[[{"header":{"parameterUnit":"m.s-1","parameterCategory":1,"la1":31.0,"la2":29.5877,"lo1":-88.7671,"lo2":-86.6584,"dy":0.0162,"dx":0.0185,"nx":115,"ny":88,"refTime":"2024-07-05T12:00:00:Z","depth":0,"parameterNumber":2,"parameterNumberName":"U-component_of_WINDS"},"data":[0.0,0.0,0.0,0.0,0.0,0.0,0.0,0.0,0.0,0.0,0.0,0.0,0.0,0.0,0.0,0.0,0.0,0.0,0.0,0.0,0.0,0.0,0.0,0.0,0.0,0.0,0.0,0.0,0.0,0.0,0.0,0.0,0.0,0.0,0.0,0.0,0.0,0.0,0.0,0.0,0.0,0.0,0.0,0.0,0.0,0.0,0.0,0.0,0.0,0.0,0.0,0.0,0.0,0.0,0.0,0.0,0.0,0.0,0.0,0.0,0.0,0.0,0.0,0.0,0.0,0.0,0.0,0.0,0.0,0.0,0.0,0.0,0.0,0.0,0.0,0.0,0.0,0.0,0.0,0.0,0.0,0.0,0.0,0.0,0.0,0.0,0.0,0.0,0.0,0.0,0.0,0.0,0.0,0.0,0.0,0.0,0.0,0.0,0.0,0.0,0.0,0.0,0.0,0.0,0.0,0.0,0.0,0.0,0.0,0.0,0.0,0.0,0.0,0.0,0.0,0.0,0.0,0.0,0.0,0.0,0.0,0.0,0.0,0.0,0.0,0.0,0.0,0.0,0.0,0.0,0.0,0.0,0.0,0.0,0.0,0.0,0.0,0.0,0.0,0.0,0.0,0.0,0.0,0.0,0.0,0.0,0.0,0.0,0.0,0.0,0.0,0.0,0.0,0.0,0.0,0.0,0.0,0.0,0.0,0.0,0.0,0.0,0.0,0.0,0.0,0.0,0.0,0.0,0.0,0.0,0.0,0.0,0.0,0.0,0.0,0.0,0.0,0.0,0.0,0.0,0.0,0.0,0.0,0.0,0.0,0.0,0.0,0.0,0.0,0.0,0.0,0.0,0.0,0.0,0.0,0.0,0.0,0.0,0.0,0.0,0.0,0.0,0.0,0.0,0.0,0.0,0.0,0.0,0.0,0.0,0.0,0.0,0.0,0.0,0.0,0.0,0.0,0.0,0.0,0.0,0.0,0.0,0.0,0.0,0.0,0.0,0.0,0.0,0.0,0.0,0.0,0.0,0.0,0.0,0.0,0.0,0.0,0.0,0.0,0.0,0.0,0.0,0.0,0.0,0.0,0.0,0.0,0.0,0.0,0.0,0.0,0.0,0.0,0.0,0.0,0.0,0.0,0.0,0.0,0.0,0.0,0.0,0.0,0.0,0.0,0.0,0.0,0.0,0.0,0.0,0.0,0.0,0.0,0.0,0.0,0.0,0.0,0.0,0.0,0.0,0.0,0.0,0.0,0.0,0.0,0.0,0.0,0.0,0.0,0.0,0.0,0.0,0.0,0.0,0.0,0.0,0.0,0.0,0.0,0.0,0.0,0.0,0.0,0.0,0.0,0.0,0.0,0.0,0.0,0.0,0.0,0.0,0.0,0.0,0.0,0.0,0.0,0.0,0.0,0.0,0.0,0.0,0.0,0.0,0.0,0.0,0.0,0.0,0.0,0.0,0.0,0.0,0.0,0.0,0.0,0.0,0.0,0.0,0.0,0.0,0.0,0.0,0.0,0.0,0.0,0.0,0.0,0.0,0.0,0.0,0.0,0.0,0.0,0.0,0.0,0.0,0.0,0.0,0.0,0.0,0.0,0.0,0.0,0.0,0.0,0.0,0.0,0.0,0.0,0.0,0.0,0.0,0.0,0.0,0.0,0.0,0.0,0.0,0.0,0.0,0.0,0.0,0.0,0.0,0.0,0.0,0.0,0.0,0.0,0.0,0.0,0.0,0.0,0.0,0.0,0.0,0.0,0.0,0.0,0.0,0.0,0.0,0.0,0.0,0.0,0.0,0.0,0.0,0.0,0.0,0.0,0.0,0.0,0.0,0.0,0.0,0.0,0.0,0.0,0.0,0.0,0.0,0.0,0.0,0.0,0.0,0.0,0.0,0.0,0.0,0.0,0.0,0.0,0.0,0.0,0.0,0.0,0.0,0.0,0.0,0.0,0.0,0.0,0.0,0.0,0.0,0.0,0.0,0.0,0.0,0.0,0.0,0.0,0.0,0.0,0.0,0.0,0.0,0.0,0.0,0.0,0.0,0.0,0.0,0.0,0.0,0.0,0.0,0.0,0.0,0.0,0.0,0.0,0.0,0.0,0.0,0.0,0.0,0.0,0.0,0.0,0.0,0.0,0.0,0.0,0.0,0.0,0.0,0.0,0.0,0.0,0.0,0.0,0.0,0.0,0.0,0.0,0.0,0.0,0.0,0.0,0.0,0.0,0.0,0.0,0.0,0.0,0.0,0.0,0.0,0.0,0.0,0.0,0.0,0.0,0.0,0.0,0.0,0.0,0.0,0.0,0.0,0.0,0.0,0.0,0.0,0.0,0.0,0.0,0.0,0.0,0.0,0.0,0.0,0.0,0.0,0.0,0.0,0.0,0.0,0.0,0.0,0.0,0.0,0.0,0.0,0.0,0.0,0.0,0.0,0.0,0.0,0.0,0.0,0.0,0.0,0.0,0.0,0.0,0.0,0.0,0.0,0.0,0.0,0.0,0.0,0.0,0.0,0.0,0.0,0.0,0.0,0.0,0.0,0.0,0.0,0.0,0.0,0.0,0.0,0.0,0.0,0.0,0.0,0.0,0.0,0.0,0.0,0.0,0.0,0.0,0.0,0.0,0.0,0.0,0.0,0.0,0.0,0.0,0.0,0.0,0.0,0.0,0.0,0.0,0.0,0.0,0.0,0.0,0.0,0.0,0.0,0.0,0.0,0.0,0.0,0.0,0.0,0.0,0.0,0.0,0.0,0.0,0.0,0.0,0.0,0.0,0.0,0.0,0.0,0.0,0.0,0.0,0.0,0.0,0.0,0.0,0.0,0.0,0.0,0.0,0.0,0.0,0.0,0.0,0.0,0.0,0.0,0.0,0.0,0.0,0.0,0.0,0.0,0.0,0.0,0.0,0.0,0.0,0.0,0.0,0.0,0.0,0.0,0.0,0.0,0.0,0.0,0.0,0.0,0.0,0.0,0.0,0.0,0.0,0.0,0.0,0.0,0.0,0.0,0.0,0.0,0.0,0.0,0.0,0.0,0.0,0.0,0.0,0.0,0.0,0.0,0.0,0.0,0.0,0.0,0.0,0.0,0.0,0.0,0.0,0.0,0.0,0.0,0.0,0.0,0.0,0.0,0.0,0.0,0.0,0.0,0.0,0.0,0.0,0.0,0.0,0.0,0.0,0.0,0.0,0.0,0.0,0.0,0.0,0.0,0.0,0.0,0.0,0.0,0.0,0.0,0.0,0.0,0.0,0.0,0.0,0.0,0.0,0.0,0.0,0.0,0.0,0.0,0.0,0.0,0.0,0.0,0.0,0.0,0.0,0.0,0.0,0.0,0.0,0.0,0.0,0.0,0.0,0.0,0.0,0.0,0.0,0.0,0.0,0.0,0.0,0.0,0.0,0.0,0.0,0.0,0.0,0.0,0.0,0.0,0.0,0.0,0.0,0.0,0.0,0.0,0.0,0.0,0.0,0.0,0.0,0.0,0.0,0.0,0.0,0.0,0.0,0.0,0.0,0.0,0.0,0.0,0.0,0.0,0.0,0.0,0.0,0.0,0.0,0.0,0.0,0.0,0.0,0.0,0.0,0.0,0.0,0.0,0.0,0.0,0.0,0.0,0.0,0.0,0.0,0.0,0.0,0.0,0.0,0.0,0.0,0.0,0.0,0.0,0.0,0.0,0.0,0.0,0.0,0.0,0.0,0.0,0.0,0.0,0.0,0.0,0.0,0.0,0.0,0.0,0.0,0.0,0.0,0.0,0.0,0.0,0.0,0.0,0.0,0.0,0.0,0.0,0.0,0.0,0.0,0.0,0.0,0.0,0.0,0.0,0.0,0.0,0.0,0.0,0.0,0.0,0.0,0.0,0.0,0.0,0.0,0.0,0.0,0.0,0.0,0.0,0.0,0.0,0.0,0.0,0.0,0.0,0.0,0.0,0.0,0.0,0.0,0.0,0.0,0.0,0.0,0.0,0.0,0.0,0.0,0.0,0.0,0.0,0.0,0.0,0.0,0.0,0.0,0.0,0.0,0.0,0.0,0.0,0.0,0.0,0.0,0.0,0.0,0.0,0.0,0.0,0.0,0.0,0.0,0.0,0.0,0.0,0.0,0.0,0.0,0.0,0.0,0.0,0.0,0.0,0.0,0.0,0.0,0.0,0.0,0.0,0.0,0.0,0.0,0.0,0.0,0.0,0.0,0.0,0.0,0.0,0.0,0.0,0.0,0.0,0.0,0.0,0.0,0.0,0.0,0.0,0.0,0.0,0.0,0.0,0.2772,0.0,0.0,0.0,0.0,0.0,0.0,0.0,0.0,0.0,0.0,0.0,0.0,0.0,0.0,0.0,0.0,0.0,0.0,0.0,0.0,0.0,0.0,0.0,0.0,0.0,0.0,0.0,0.0,0.0,0.0,0.0,0.0,0.0,0.0,0.0,0.0,0.0,0.0,0.0,0.0,0.0,0.0,0.0,0.0,0.0,0.0,0.0,0.0,0.0,0.0,0.0,0.0,0.0,0.0,0.0,0.0,0.0,0.0,0.0,0.0,0.0,0.0,0.0,0.0,0.0,0.0,0.0,0.0,0.0,0.0,0.0,0.0,0.0,0.0,0.0,0.0,0.0,0.0,0.0,0.0,0.0,0.0,0.0,0.0,0.0,0.0,0.0,0.0,0.0,0.0,0.0,0.0,0.0,0.0,0.0,0.0,0.0,0.0,0.0,0.0,0.0,0.0,0.0,0.0,0.0,0.0,0.0,0.0,0.0,0.0,0.5225,0.4262,0.3657,0.3262,0.2899,0.0,0.0,0.0,0.0,0.0,0.0,0.0,0.0,0.0,0.0,0.0,0.0,0.0,0.0,0.0,0.0,0.0,0.0,0.0,0.0,0.0,0.0,0.0,0.0,0.0,0.0,0.0,0.0,0.0,0.0,0.0,0.0,0.0,0.0,0.0,0.0,0.0,0.0,0.0,0.0,0.0,0.0,0.0,0.0,0.0,0.0,0.0,0.0,0.0,0.0,0.0,0.0,0.0,0.0,0.0,0.0,0.0,0.0,0.0,0.0,0.0,0.0,0.0,0.0,0.0,0.0,0.0,0.0,0.0,0.0,0.0,0.0,0.0,0.0,0.0,0.0,0.0,0.0,0.0,0.0,0.0,0.0,0.0,0.0,0.0,0.0,0.0,0.0,0.0,0.0,0.0,0.0,0.0,0.0,0.0,0.0,0.0,0.0,0.0,0.0,0.0,0.0,0.0,0.0,0.0,0.0,0.0,0.0,0.0,0.0,0.0,0.0,0.4736,0.4148,0.3206,0.0,0.0,0.0,0.0,0.0,0.0,0.0,0.0,0.0,0.0,0.0,0.0,0.0,0.0,0.0,0.0,0.0,0.0,0.0,0.0,0.0,0.0,0.0,0.0,0.0,0.0,0.0,0.0,0.0,0.0,0.0,0.0,0.0,0.0,0.0,0.0,0.0,0.0,0.0,0.0,0.0,0.0,0.0,0.0,0.0,0.0,0.0,0.0,0.0,0.0,0.0,0.0,0.0,0.0,0.0,0.0,0.0,0.0,0.0,0.0,0.0,0.0,0.0,0.0,0.0,0.0,0.0,0.0,0.0,0.0,0.0,0.0,0.0,0.0,0.0,0.0,0.0,0.0,0.0,0.0,0.0,0.0,0.0,0.0,0.0,0.0,0.0,0.0,0.0,0.0,0.0,0.0,0.0,0.0,0.0,0.0,0.0,0.0,0.0,0.0,0.0,0.0,0.0,0.0,0.0,0.0,0.0,0.0,0.0,0.0,0.6245,0.5785,0.5667,0.0,0.3686,0.0,0.0,0.0,0.0,0.0,0.0,0.0,0.0,0.0,0.0,0.0,0.0,0.0,0.0,0.0,0.0,0.0,0.0,0.0,0.0,0.0,0.0,0.0,0.0,0.0,0.0,0.0,0.0,0.0,0.0,0.0,0.0,0.0,0.0,0.0,0.0,0.0,0.0,0.0,0.0,0.0,0.0,0.0,0.0,0.0,0.0,0.0,0.0,0.0,0.0,0.0,0.0,0.0,0.0,0.0,0.0,0.0,0.0,0.0,0.0,0.0,0.0,0.0,0.0,0.0,0.0,0.0,0.0,0.0,0.0,0.0,0.0,0.0,0.0,0.0,0.0,0.0,0.0,0.0,0.0,0.0,0.0,0.0,0.0,0.0,0.0,0.0,0.0,0.0,0.0,0.0,0.0,0.0,0.0,0.0,0.0,0.0,0.0,0.0,0.0,0.0,0.0,0.0,0.0,0.0,0.0,0.0,0.0,0.0,0.0,0.6837,0.6224,0.5555,0.4717,0.0,0.0,0.0,0.0,0.0,0.0,0.0,0.0,0.0,0.0,0.0,0.0,0.0,0.0,0.0,0.0,0.0,0.0,0.0,0.0,0.0,0.0,0.0,0.0,0.0,0.0,0.0,0.0,0.0,0.0,0.0,0.0,0.0,0.0,0.0,0.0,0.0,0.0,0.0,0.0,0.0,0.0,0.0,0.0,0.0,0.0,0.0,0.0,0.0,0.0,0.0,0.0,0.0,0.0,0.0,0.0,0.0,0.0,0.0,0.0,0.0,0.0,0.0,0.0,0.0,0.0,0.0,0.0,0.0,0.0,0.0,0.0,0.0,0.0,0.0,0.0,0.0,0.0,0.0,0.0,0.0,0.0,0.0,0.0,0.0,0.0,0.0,0.0,0.0,0.0,0.0,0.0,0.0,0.0,0.0,0.0,0.0,0.0,0.0,0.0,0.0,0.0,0.0,0.0,0.0,0.0,0.0,0.0,0.0,0.0,0.7807,0.7119,0.6502,0.5768,0.5078,0.4442,0.0,0.0,0.0,0.0,0.0,0.0,0.0,0.0,0.0,0.0,0.0,0.0,0.0,0.0,0.0,0.0,0.0,0.0,0.0,0.0,0.0,0.0,0.0,0.0,0.0,0.0,0.0,0.0,0.0,0.0,0.0,0.0,0.0,0.0,0.0,0.0,0.0,0.0,0.0,0.0,0.0,0.0,0.0,0.0,0.0,0.0,0.0,0.0,0.0,0.0,0.0,0.0,0.0,0.0,0.0,0.0,0.0,0.0,0.0,0.0,0.0,0.0,0.0,0.0,0.0,0.0,0.0,0.0,0.0,0.0,0.0,0.0,0.0,0.0,0.0,0.0,0.0,0.0,0.0,0.0,0.0,0.0,0.0,0.0,0.0,0.0,0.0,0.0,0.0,0.0,0.0,0.0,0.0,0.0,0.0,0.0,0.0,0.0,0.0,0.0,0.0,0.0,0.0,0.0,0.0,0.0,0.0,0.0,0.8423,0.7563,0.6963,0.6672,0.6635,0.6397,0.0,0.0,0.0,0.0,0.0,0.0,0.0,0.0,0.0,0.0,0.0,0.0,0.0,0.0,0.0,0.0,0.0,0.0,0.0,0.0,0.0,0.0,0.0,0.0,0.0,0.0,0.0,0.0,0.0,0.0,0.0,0.0,0.0,0.0,0.0,0.0,0.0,0.0,0.0,0.0,0.0,0.0,0.0,0.0,0.0,0.0,0.0,0.0,0.0,0.0,0.0,0.0,0.0,0.0,0.0,0.0,0.0,0.0,0.0,0.0,0.0,0.0,0.0,0.0,0.0,0.0,0.0,0.0,0.0,0.0,0.0,0.0,0.0,0.0,0.0,0.0,0.0,0.0,0.0,0.0,0.0,0.0,0.0,0.0,0.0,0.0,0.0,0.0,0.0,0.0,0.0,0.0,0.0,0.0,0.0,0.0,0.0,0.0,0.0,0.0,0.0,0.0,0.0,0.0,0.0,0.0,0.0,0.0,0.0,0.8384,0.7776,0.7225,0.6709,0.6774,0.6433,0.0,0.0,0.0,0.0,0.0,0.0,0.0,0.0,0.0,0.0,0.0,0.0,0.0,0.0,0.0,0.0,0.0,0.0,0.0,0.0,0.0,0.0,0.0,0.0,0.0,0.0,0.0,0.0,0.0,0.0,0.0,0.0,0.0,0.0,0.0,0.0,0.0,0.0,0.0,0.0,0.0,0.0,0.0,0.0,0.0,0.0,0.0,0.0,0.0,0.0,0.0,0.0,0.0,0.0,0.0,0.0,0.0,0.0,0.0,0.0,0.0,0.0,0.0,0.0,0.0,0.0,0.0,0.0,0.0,0.0,0.0,0.0,0.0,0.0,0.0,0.0,0.0,0.0,0.0,0.0,0.0,0.0,0.0,0.0,0.0,0.0,0.0,0.0,0.0,0.0,0.0,0.0,0.0,0.0,0.0,0.0,0.0,0.0,0.0,0.0,0.0,0.0,0.0,0.0,0.0,0.0,0.0,0.0,0.0,0.82,0.0,0.7343,0.6858,0.6977,0.6696,0.0,0.0,0.0,0.0,0.0,0.0,0.0,0.0,0.0,0.0,0.0,0.0,0.0,0.0,0.0,0.0,0.0,0.0,0.0,0.0,0.0,0.0,0.0,0.0,0.0,0.0,0.0,0.0,0.0,0.0,0.0,0.0,0.0,0.0,0.0,0.0,0.0,0.0,0.0,0.0,0.0,0.0,0.0,0.0,0.0,0.0,0.0,0.0,0.0,0.0,0.0,0.0,0.0,0.0,0.0,0.0,0.0,0.0,0.0,0.0,0.0,0.0,0.0,0.0,0.0,0.0,0.0,0.0,0.0,0.0,0.0,0.0,0.0,0.0,0.0,0.0,0.0,0.0,0.0,0.0,0.0,0.0,0.0,0.0,0.0,0.0,0.0,0.0,0.0,0.0,0.0,0.0,0.0,0.0,0.0,0.0,0.0,0.0,0.0,0.0,0.0,0.0,0.0,0.0,0.0,0.0,0.0,0.0,0.8427,0.7772,0.7471,0.7289,0.7289,0.7235,0.7235,0.0,0.0,0.0,0.0,0.0,0.0,0.0,0.0,0.0,0.0,0.0,0.0,0.0,0.0,0.0,0.0,0.0,0.0,0.0,0.0,0.0,0.0,0.0,0.0,0.0,0.0,0.0,0.0,0.0,0.0,0.0,0.0,0.0,0.0,0.0,0.0,0.0,0.0,0.0,0.0,0.0,0.0,0.0,0.0,0.0,0.0,0.0,0.0,0.0,0.0,0.0,0.0,0.0,0.0,0.0,0.0,0.0,0.0,0.0,0.0,0.0,0.0,0.0,0.0,0.0,0.0,0.0,0.0,0.0,0.0,0.0,0.0,0.0,0.0,0.0,0.0,0.0,0.0,0.0,0.0,0.0,0.0,0.0,0.0,0.0,0.0,0.0,0.0,0.0,0.0,0.0,0.0,0.0,0.0,0.0,0.0,0.0,0.0,0.0,0.0,0.0,0.0,0.0,0.0,0.0,0.0,0.0,0.0,0.0,0.7837,0.7586,0.7343,0.7128,0.675,0.6534,0.0,0.0,0.0,0.0,0.0,0.0,0.0,0.0,0.0,0.0,0.0,0.0,0.0,0.0,0.0,0.0,0.0,0.0,0.0,0.0,0.0,0.0,0.0,0.0,0.0,0.0,0.0,0.0,0.0,0.0,0.0,0.0,0.0,0.0,0.0,0.0,0.0,0.0,0.0,0.0,0.0,0.0,0.0,0.0,0.0,0.0,0.0,0.0,0.0,0.0,0.0,0.0,0.0,0.0,0.0,0.0,0.0,0.0,0.0,0.0,0.0,0.0,0.0,0.0,0.0,0.0,0.0,0.0,0.0,0.0,0.0,0.0,0.0,0.0,0.0,0.0,0.0,0.0,0.0,0.0,0.0,0.0,0.0,0.0,0.0,0.0,0.0,0.0,0.0,0.0,0.0,0.0,0.0,0.0,0.0,0.0,0.0,0.0,0.0,0.0,0.0,0.0,0.0,0.0,0.0,0.0,0.0,0.0,0.0,0.8428,0.7795,0.7278,0.6815,0.6263,0.5937,0.5882,0.0,0.0,0.0,0.0,0.0,0.0,0.0,0.0,0.0,0.0,0.0,0.0,0.0,0.0,0.0,0.0,0.0,0.0,0.0,0.0,0.0,0.0,0.0,0.0,0.0,0.0,0.0,0.0,0.0,0.0,0.0,0.0,0.0,0.0,0.0,0.0,0.0,0.0,0.0,0.0,0.0,0.0,0.0,0.0,0.0,0.0,0.0,0.0,0.0,0.0,0.0,0.0,0.0,0.0,0.0,0.0,0.0,0.0,0.0,0.0,0.0,0.0,0.0,0.0,0.0,0.0,0.0,0.0,0.0,0.0,0.0,0.0,0.0,0.0,0.0,0.0,0.0,0.0,0.0,0.0,0.0,0.0,0.0,0.0,0.0,0.0,0.0,0.0,0.0,0.0,0.0,0.0,0.0,0.0,0.0,0.0,0.0,0.0,0.0,0.0,0.0,0.0,0.0,0.0,0.0,0.0,0.0,0.0,0.9374,0.8215,0.7127,0.619,0.5747,0.5429,0.0,0.0,0.0,0.0,0.0,0.0,0.0,0.0,0.0,0.0,0.0,0.0,0.0,0.0,0.0,0.0,0.0,0.0,0.0,0.0,0.0,0.0,0.0,0.0,0.0,0.0,0.0,0.0,0.0,0.0,0.0,0.0,0.0,0.0,0.0,0.0,0.0,0.0,0.0,0.0,0.0,0.0,0.0,0.0,0.0,0.0,0.0,0.0,0.0,0.0,0.0,0.0,0.0,0.0,0.0,0.0,0.0,0.0,0.0,0.0,0.0,0.0,0.0,0.0,0.0,0.0,0.0,0.0,0.0,0.0,0.0,0.0,0.0,0.0,0.0,0.0,0.0,0.0,0.0,0.0,0.0,0.0,0.0,0.0,0.0,0.0,0.0,0.0,0.0,0.0,0.0,0.0,0.0,0.0,0.0,0.0,0.0,0.0,0.0,0.0,0.0,0.0,0.0,0.0,0.0,0.0,0.0,0.0,0.0,1.0169,0.905,0.7659,0.5972,0.4816,0.4234,0.0,0.0,0.0,0.0,0.0,0.0,0.0,0.0,0.0,0.0,0.0,0.0,0.0,0.0,0.0,0.0,0.0,0.0,0.0,0.0,0.0,0.0,0.0,0.0,0.0,0.0,0.0,0.0,0.0,0.0,0.0,0.0,0.0,0.0,0.0,0.0,0.0,0.0,0.0,0.0,0.0,0.0,0.0,0.0,0.0,0.0,0.0,0.0,0.0,0.0,0.0,0.0,0.0,0.0,0.0,0.0,0.0,0.0,0.0,0.0,0.0,0.0,0.0,0.0,0.0,0.0,0.0,0.0,0.0,0.0,0.0,0.0,0.0,0.0,0.0,0.0,0.0,0.0,0.0,0.0,0.0,0.0,0.0,0.0,0.0,0.0,0.0,0.0,0.0,0.0,0.0,0.0,0.0,0.0,0.0,0.0,0.0,0.0,0.0,0.0,0.0,0.0,0.0,0.0,0.0,0.0,0.0,0.0,1.1632,1.0838,0.9447,0.7845,0.6044,0.4938,0.4161,0.0,0.0,0.0,0.0,0.0,0.0,0.0,0.0,0.0,0.0,0.0,0.0,0.0,0.0,0.0,0.0,0.0,0.0,0.0,0.0,0.0,0.0,0.0,0.0,0.0,0.0,0.0,0.0,0.0,0.0,0.0,0.0,0.0,0.0,0.0,0.0,0.0,0.0,0.0,0.0,0.0,0.0,0.0,0.0,0.0,0.0,0.0,0.0,0.0,0.0,0.0,0.0,0.0,0.0,0.0,0.0,0.0,0.0,0.0,0.0,0.0,0.0,0.0,0.0,0.0,0.0,0.0,0.0,0.0,0.0,0.0,0.0,0.0,0.0,0.0,0.0,0.0,0.0,0.0,0.0,0.0,0.0,0.0,0.0,0.0,0.0,0.0,0.0,0.0,0.0,0.0,0.0,0.0,0.0,0.0,0.0,0.0,0.0,0.0,0.0,0.0,0.0,0.0,0.0,0.0,0.0,0.0,0.0,1.1914,1.138,0.9722,0.8123,0.6562,0.5692,0.4665,0.0,0.0,0.0,0.0,0.0,0.0,0.0,0.0,0.0,0.0,0.0,0.0,0.0,0.0,0.0,0.0,0.0,0.0,0.0,0.0,0.0,0.0,0.0,0.0,0.0,0.0,0.0,0.0,0.0,0.0,0.0,0.0,0.0,0.0,0.0,0.0,0.0,0.0,0.0,0.0,0.0,0.0,0.0,0.0,0.0,0.0,0.0,0.0,0.0,0.0,0.0,0.0,0.0,0.0,0.0,0.0,0.0,0.0,0.0,0.0,0.0,0.0,0.0,0.0,0.0,0.0,0.0,0.0,0.0,0.0,0.0,0.0,0.0,0.0,0.0,0.0,0.0,0.0,0.0,0.0,0.0,0.0,0.0,0.0,0.0,0.0,0.0,0.0,0.0,0.0,0.0,0.0,0.0,0.0,0.0,0.0,0.0,0.0,0.0,0.0,0.0,0.0,0.0,0.0,0.0,0.0,0.0,0.0,1.3135,1.2095,1.1072,0.9708,0.7932,0.6315,0.4931,0.0,0.0,0.0,0.0,0.0,0.0,0.0,0.0,0.0,0.0,0.0,0.0,0.0,0.0,0.0,0.0,0.0,0.0,0.0,0.0,0.0,0.0,0.0,0.0,0.0,0.0,0.0,0.0,0.0,0.0,0.0,0.0,0.0,0.0,0.0,0.0,0.0,0.0,0.0,0.0,0.0,0.0,0.0,0.0,0.0,0.0,0.0,0.0,0.9439,0.0,0.0,0.0,0.0,0.0,0.0,0.0,0.0,0.0,0.0,0.0,0.0,0.0,0.0,0.0,0.0,0.0,0.0,0.0,0.0,0.0,0.0,0.0,0.0,0.0,0.0,0.0,0.0,0.0,0.0,0.0,0.0,0.0,0.0,0.0,0.0,0.0,0.0,0.0,0.0,0.0,0.0,0.0,0.0,0.0,0.0,0.0,0.0,0.0,0.0,0.0,0.0,0.0,0.0,0.0,0.0,0.0,0.0,0.0,1.3625,1.2458,1.1505,1.0262,0.8786,0.7744,0.6305,0.0,0.0,0.0,0.0,0.0,0.0,0.0,0.0,0.0,0.0,0.0,0.0,0.0,0.0,0.0,0.0,0.0,0.0,0.0,0.0,0.0,0.0,0.0,0.0,0.0,0.0,0.0,0.0,0.0,0.0,0.0,0.0,0.0,0.0,0.0,0.0,0.0,0.0,0.0,0.0,0.0,0.0,0.0,0.0,0.0,0.0,0.0,0.0,0.0,0.0,0.0,0.0,0.0,0.0,0.0,0.0,0.0,0.0,0.0,0.0,0.0,0.0,0.0,0.0,0.0,0.0,0.0,0.0,0.0,0.0,0.0,0.0,0.0,0.0,0.0,0.0,0.0,0.0,0.0,0.0,0.0,0.0,0.0,0.0,0.0,0.0,0.0,0.0,0.0,0.0,0.0,0.0,0.0,0.0,0.0,0.0,0.0,0.0,0.0,0.0,0.0,0.0,0.0,0.0,0.0,0.0,0.0,1.4739,1.3785,1.2796,1.1745,1.0656,0.9563,0.9472,0.827,0.5834,0.0,0.0,0.0,0.0,0.0,0.0,0.0,0.0,0.0,0.0,0.0,0.0,0.0,0.0,0.0,0.0,0.0,0.0,0.0,0.0,0.0,0.0,0.0,0.0,0.0,0.0,0.0,0.0,0.0,0.0,0.0,0.0,0.0,0.0,0.0,0.0,0.0,0.0,1.5031,1.5193,0.0,0.0,0.0,0.0,0.0,0.0,0.0,0.0,0.6748,0.0,0.0,0.0,0.0,0.0,0.0,0.0,0.0,0.0,0.0,0.0,0.0,0.0,0.0,0.0,0.0,0.0,0.0,0.0,0.0,0.0,0.0,0.0,0.0,0.0,0.0,0.0,0.0,0.0,0.0,0.0,0.0,0.0,0.0,0.0,0.0,0.0,0.0,0.0,0.0,0.0,0.0,0.0,0.0,0.0,0.0,0.0,0.0,0.0,0.0,0.0,0.0,0.0,0.0,0.0,0.0,1.5277,1.4577,1.4059,1.3681,1.2915,1.2005,1.1004,1.0942,1.0326,0.892,0.0,0.0,0.0,0.0,0.0,0.0,0.0,0.0,0.0,0.0,0.0,0.0,0.0,0.0,0.0,0.0,0.0,0.0,0.0,0.0,0.0,0.0,0.0,0.0,0.0,0.0,0.0,0.0,0.0,0.0,0.0,0.0,0.0,0.0,0.0,0.0,0.0,0.0,0.0,1.7777,1.7441,0.0,0.0,0.0,0.0,0.0,0.0,0.0,0.0,0.5251,0.0,0.0,0.0,0.0,0.0,0.0,0.0,0.0,0.0,0.0,0.0,0.0,0.0,0.0,0.0,0.0,0.0,0.0,0.0,0.0,0.0,0.0,0.0,0.0,0.0,0.0,0.0,0.0,0.0,0.0,0.0,0.0,0.0,0.0,0.0,0.0,0.0,0.0,0.0,0.0,0.0,0.0,0.0,0.0,0.0,0.0,0.0,0.0,0.0,0.0,0.0,0.0,0.0,0.0,0.0,1.4996,1.4956,1.4433,1.3444,1.3157,1.275,1.2073,1.099,1.0064,0.0,0.0,0.0,0.0,0.0,0.0,0.0,0.0,0.0,0.0,0.0,0.0,0.0,0.0,0.0,0.0,0.0,0.0,0.0,0.0,0.0,0.0,0.0,0.0,0.0,0.0,0.0,0.0,0.0,0.0,0.0,0.0,0.0,0.0,0.0,0.0,0.0,0.0,0.0,0.0,1.8584,1.8156,1.7862,0.0,0.0,0.0,0.0,0.0,0.0,0.5856,0.506,0.0,0.0,0.0,0.0,0.0,0.0,0.0,0.0,0.0,0.0,0.0,0.0,0.0,0.0,0.0,0.0,0.0,0.0,0.0,0.0,0.0,0.0,0.0,0.0,0.0,0.0,0.0,0.0,0.0,0.0,0.0,0.0,0.0,0.0,0.0,0.0,0.0,0.0,0.0,0.0,0.0,0.0,0.0,0.0,0.0,0.0,0.0,0.0,0.0,0.0,0.0,0.0,0.0,0.0,0.0,1.4219,1.4759,1.4319,1.2851,1.2796,1.2934,1.3056,1.1132,0.9377,0.0,0.0,0.0,0.0,0.0,0.0,0.0,0.0,0.0,0.0,0.0,0.0,0.0,0.0,0.0,0.0,0.0,0.0,0.0,0.0,0.0,0.0,0.0,0.0,0.0,0.0,0.0,0.0,0.0,0.0,0.0,0.0,0.0,0.0,0.0,0.0,0.0,0.0,0.0,0.0,0.0,1.8203,1.7661,1.7805,0.0,0.0,0.0,0.0,0.668,0.5706,0.0,0.0,0.0,0.0,0.0,0.0,0.0,0.0,0.0,0.0,0.0,0.0,0.0,0.0,0.0,0.0,0.0,0.0,0.0,0.0,0.0,0.0,0.0,0.0,0.0,0.0,0.0,0.0,0.0,0.0,0.0,0.0,0.0,0.0,0.0,0.0,0.0,0.0,0.0,0.0,0.0,0.0,0.0,0.0,0.0,0.0,0.0,0.0,0.0,0.0,0.0,0.0,0.0,0.0,0.0,0.0,1.2085,1.2821,1.2927,1.236,1.1663,1.2184,1.4042,1.2565,0.9289,0.0,0.0,0.0,0.0,0.0,0.0,0.0,0.0,0.0,0.0,0.0,0.0,0.0,0.0,0.0,0.0,0.0,0.0,0.0,0.0,0.0,0.0,0.0,0.0,0.0,0.0,0.0,0.0,0.0,0.0,0.0,0.0,0.0,0.0,0.0,0.0,0.0,0.0,0.0,0.0,0.0,1.7506,1.6942,1.7625,1.7063,0.0,0.0,0.7629,0.6719,0.5407,0.0,0.0,0.0,0.0,0.0,0.0,0.0,0.0,0.0,0.0,0.0,0.0,0.0,0.0,0.0,0.0,0.0,0.0,0.0,0.0,0.0,0.0,0.0,0.0,0.0,0.0,0.0,0.0,0.0,0.0,0.0,0.0,0.0,0.0,0.0,0.0,0.0,0.0,0.0,0.0,0.0,0.0,0.0,0.0,0.0,0.0,0.0,0.0,0.0,0.0,0.0,0.0,0.0,0.0,0.0,1.1,1.0485,1.0944,1.1135,1.098,1.0599,1.0841,1.1892,1.0081,0.8145,0.0,0.0,0.0,0.0,0.0,0.0,0.0,0.0,0.0,0.0,0.0,0.0,0.0,0.0,0.0,0.0,0.0,0.0,0.0,0.0,0.0,0.0,0.0,0.0,0.0,0.0,0.0,0.0,0.0,0.0,0.0,0.0,0.0,0.0,0.0,0.0,0.0,0.0,0.0,0.0,0.0,0.0,1.5478,1.6398,0.0,0.0,0.0,0.6901,0.551,0.0,0.0,0.0,0.0,0.0,0.0,0.0,0.0,0.0,0.0,0.0,0.0,0.0,0.0,0.0,0.0,0.0,0.0,0.0,0.0,0.0,0.0,0.0,0.0,0.0,0.0,0.0,0.0,0.0,0.0,0.0,0.0,0.0,0.0,0.0,0.0,0.0,0.0,0.0,0.0,0.0,0.0,0.0,0.0,0.0,0.0,0.0,0.0,0.0,0.0,0.0,0.0,0.0,0.0,0.0,0.0,0.0,0.907,0.9301,0.9417,0.9377,0.8931,0.8944,0.9421,0.7711,0.0,0.0,0.0,0.0,0.0,0.0,0.0,0.0,0.0,0.0,0.0,0.0,0.0,0.0,0.0,0.0,0.0,0.0,0.0,0.0,0.0,0.0,0.0,0.0,0.0,0.0,0.0,1.1393,0.0,0.0,0.0,0.0,0.0,0.0,0.0,0.0,0.0,0.0,0.0,0.0,0.0,0.0,1.1107,1.0957,1.2447,1.1575,0.0,0.0,0.5029,0.425,0.4941,0.5534,0.0,0.0,0.0,0.0,0.0,0.0,0.0,0.0,0.0,0.0,0.0,0.0,0.0,0.0,0.0,0.0,0.0,0.0,0.0,0.0,0.0,0.0,0.0,0.0,0.0,0.0,0.0,0.0,0.0,0.0,0.0,0.0,0.0,0.0,0.0,0.0,0.0,0.0,0.0,0.0,0.0,0.0,0.0,0.0,0.0,0.0,0.0,0.0,0.0,0.0,0.0,0.0,0.0,0.0,0.7384,0.7802,0.8095,0.8051,0.7752,0.622,0.6193,0.7672,0.6993,0.5937,0.0,0.0,0.0,0.0,0.0,0.0,0.0,0.0,0.0,0.0,0.0,0.0,0.0,0.0,0.0,0.0,0.0,0.0,0.0,0.0,0.0,0.0,0.0,0.0,0.0,0.0,0.0,0.0,0.0,0.0,0.0,0.0,0.0,0.0,0.0,0.0,0.0,0.0,0.0,0.0,0.0,0.484,0.1357,0.4244,0.4633,0.0,-0.0395,0.1531,0.3271,0.4545,0.5452,0.5802,0.0,0.0,0.0,0.0,0.0,0.0,0.0,0.0,0.0,0.0,0.0,0.0,0.0,0.0,0.0,0.0,0.0,0.0,0.0,0.0,0.0,0.0,0.0,0.0,0.0,0.0,0.0,0.0,-0.1534,0.0,0.0,0.0,0.0,0.0,0.0,0.0,0.0,0.0,0.0,0.0,0.0,0.0,0.0,0.0,0.0,0.0,0.0,0.0,0.0,0.0,0.0,0.0,0.0,0.6466,0.5708,0.4921,0.4978,0.5814,0.4345,0.329,0.2933,0.4661,0.5226,0.0,0.0,0.0,0.0,0.0,0.0,0.0,0.0,0.0,0.0,0.0,0.0,0.0,0.0,0.0,0.0,0.0,0.0,0.0,0.0,0.0,0.0,0.0,0.0,0.0,0.0,0.0,0.0,1.0937,1.0851,1.037,0.0,0.0,0.0,0.0,0.0,0.0,0.0,0.0,0.0,0.0,0.0851,-0.2452,-0.1624,0.0,0.0,-0.3086,-0.1358,0.1427,0.3637,0.5323,0.6068,0.7267,0.0,0.0,0.0,0.0,0.0,0.0,0.0,0.0,0.0,0.0,0.0,0.0,0.0,0.0,0.0,0.0,0.0,0.0,0.0,0.0,0.0,0.0,0.0,0.0,0.0,0.0,0.0,-0.2344,0.0,0.0,0.0,0.0,0.0,0.0,0.0,0.0,0.0,0.0,0.0,0.0,0.0,0.0,0.0,0.0,0.0,0.0,0.0,0.0,0.0,0.0,0.0,0.0,0.5139,0.4482,0.3463,0.3087,0.3413,0.2326,0.1197,0.0116,0.324,0.489,0.0,0.0,0.0,0.0,0.0,0.0,0.0,0.0,0.0,0.0,0.0,0.0,0.0,0.0,0.0,0.0,0.0,0.0,0.0,0.0,0.0,0.0,0.0,0.0,0.0,0.0,0.0,0.0,1.1121,1.0817,1.0217,0.0,0.0,0.0,0.0,0.0,0.0,0.0,0.0,0.0,0.0,-0.2312,-0.5005,-0.5754,-0.5831,-0.5467,-0.3886,-0.1879,0.0593,0.3132,0.5236,0.6519,0.0,0.0,0.0,0.0,0.0,0.0,0.0,0.0,0.0,0.0,0.0,0.0,0.0,0.0,0.0,0.0,0.0,0.0,0.0,0.0,0.0,0.0,0.0,0.0,0.0,0.0,0.0,-0.3231,0.0,0.0,0.0129,0.0,0.0,0.0,0.0,0.0,0.0,0.0,0.0,0.0,0.0,0.0,0.0,0.0,0.0,0.0,0.0,0.0,0.0,0.0,0.0,0.0,0.0,0.3121,0.4336,0.4202,0.2947,0.0,0.0,0.0,0.0,0.3156,0.4878,0.4816,0.0,0.0,0.0,0.0,0.0,0.0,0.0,0.0,0.0,0.0,0.0,0.0,0.0,0.0,0.0,0.0,0.0,0.0,0.0,0.0,0.0,0.0,0.0,0.0,0.0,0.0,1.1794,1.1714,1.1567,0.0,0.0,0.0,0.0,0.0,0.0,0.0,0.0,0.0,0.0361,-0.241,-0.4784,-0.6715,-0.7828,-0.7922,-0.6825,-0.2705,0.0576,0.123,0.3192,0.525,0.0,0.0,0.0,0.0,0.0,0.0,0.0,0.0,0.0,0.0,0.0,0.0,0.0,0.0,0.0,0.0,0.0,0.0,0.0,0.0,0.0,0.0,0.0,0.0,0.0,0.0,0.0,-0.3551,-0.3932,0.0,0.0,0.0,0.0,0.0,0.0,0.0,0.0,0.0,0.0,0.0,0.6193,0.6075,0.0,0.0,0.0,0.0,0.0,0.0,0.0,0.0,0.0,0.0,0.0,0.0,0.1018,0.1462,0.1458,0.0995,0.0,0.0,0.0,0.0,0.1049,0.2023,0.2805,0.0,0.0,0.0,0.0,0.0,0.0,0.0,0.0,0.0,0.0,0.0,0.0,0.0,0.0,0.0,0.0,0.0,0.0,0.0,0.0,0.0,0.0,0.0,0.0,0.0,1.16,0.0,0.0,0.0,0.0,0.0,0.0,0.0,0.0,0.0,0.0,0.5458,0.3513,-0.0303,-0.2243,-0.4025,-0.6004,-0.7122,-0.7104,0.0,0.0,0.0,0.0,0.0,0.0,0.0,0.0,0.0,0.0,0.0,0.0,0.0,0.0,-0.3659,-0.6234,-0.7129,-0.787,-0.9074,0.0,0.0,0.0,0.0,0.0,0.0,0.0,0.0,0.0,0.0,0.0,0.0,0.0,0.0,-0.4013,-0.443,-0.2926,0.0,0.0,0.0,0.0,0.0,0.0,0.0,0.0,0.6277,0.6518,0.6808,0.6486,0.6381,0.6418,0.5387,0.4918,0.0,0.0,0.0,0.0,0.0,0.0,0.0,0.0,0.0,0.0,-0.1166,-0.1776,-0.1691,-0.1624,-0.1501,-0.1342,-0.0758,0.0056,0.1062,0.1479,0.1382,0.0,0.0,0.0,0.0,0.0,0.0,0.0,0.0,0.0,0.0,0.0,0.0,0.0,0.0,0.0,0.0,0.0,0.0,0.0,0.0,0.0,0.0,0.0,1.1113,0.0,0.0,0.0,0.0,0.0,0.0,0.0,0.0,0.0,0.5856,0.4922,0.3101,-0.0479,-0.2054,-0.3471,-0.5237,0.0,0.0,0.0,0.0,0.0,0.0,0.0,0.4776,0.5853,0.6942,0.7432,0.6859,0.6379,0.5164,0.2625,0.0,0.0,-0.6973,-0.8088,-0.9094,-1.0592,-1.1708,-1.2922,-1.4323,-1.635,-1.8299,0.0,0.0,0.0,0.0,0.0661,0.0,0.0,0.0,-0.3982,-0.425,0.0,-0.3798,0.0,0.0,0.0,0.0,0.554,0.591,0.0,0.0,0.7291,0.7689,0.7796,0.7276,0.7154,0.7191,0.4147,0.3393,0.4805,0.4821,0.3192,0.0,0.0,0.0,0.0,0.0,-0.0039,0.0,-0.3539,-0.5172,-0.5079,-0.4855,-0.4554,-0.4159,-0.2442,-0.1211,-0.0439,0.0591,0.0913,0.0217,0.0332,0.0,0.0,0.0,0.0,0.0,0.0,0.0,0.0,0.0,0.0,0.0,0.0,0.0,0.0,0.0,0.0,0.0,0.0,0.0,0.0,1.0854,0.0,0.0,0.0,0.0,0.0,0.0,0.0,0.0,0.0,0.6971,0.5367,0.4152,0.2387,-0.0351,0.0,0.0,0.0,0.0,-0.4289,-0.4422,-0.2144,0.0136,0.1593,0.3,0.4448,0.6058,0.0,0.0,0.6279,0.5335,0.4341,0.3643,0.1002,-0.2131,-0.5296,-0.688,-0.8456,-1.0627,-1.1742,-1.2909,-1.4151,-1.5809,-1.8056,0.2007,0.0,0.0,0.0,0.0,-0.3513,-0.4232,-0.4182,-0.4033,-0.4568,-0.5321,-0.2284,0.0,0.0,0.0,0.0,0.0,0.0,0.6393,0.6403,0.7261,0.8,0.8556,0.7775,0.7349,0.7082,0.4778,0.289,0.1484,0.1464,0.0949,0.0,0.0,0.0,0.0,0.0,-0.1205,-0.3659,-0.7014,-0.8651,-0.8533,-0.9211,-0.9576,-0.9533,-0.7607,-0.607,-0.5008,-0.3651,-0.2152,-0.0531,0.0267,0.0,0.0,0.0,0.0,0.0,0.0,0.0,0.0,0.0,0.0,0.0,0.0,0.0,0.0,0.0,0.0,0.0,0.0,0.0,1.022,1.078,1.0856,0.0,0.0,0.0,0.0,0.0,0.0,0.0,0.0,0.0,0.3619,0.3104,0.2211,0.0,0.0,-0.2956,-0.3066,-0.3213,-0.3088,-0.2214,-0.1039,0.0,0.2513,0.4099,0.5456,0.639,0.6976,0.7308,0.733,0.6412,0.5406,0.4624,0.3671,0.1972,-0.1121,-0.4533,-0.7252,-0.915,-0.9627,-0.9955,-1.0807,-1.2627,-1.4545,0.1152,0.1496,0.0388,-0.1345,-0.3372,-0.3735,-0.3774,-0.3659,-0.4319,-0.4631,-0.4369,-0.0153,0.2734,0.4435,0.4504,0.0,0.0,0.0,0.6632,0.6715,0.7706,0.8448,0.8819,0.8178,0.7637,0.7229,0.4858,0.2396,0.0,0.0,0.0,0.0,0.0,0.0,0.0,0.0,-0.2382,-0.6992,-0.9104,-1.0237,-1.0527,-1.1884,-1.2689,-1.2845,-1.1456,-0.9985,-0.8388,-0.6513,-0.4319,-0.1844,-0.0286,0.084,0.0,0.0,0.0,0.0,0.0,0.0,0.0,0.0,0.0,0.0,0.0,0.5166,0.7291,0.0,0.0,0.0,0.9587,0.977,0.906,0.9694,0.0,0.0,0.0,0.0,0.0,0.0,0.0,0.7712,0.6257,0.4578,0.2626,0.2101,0.1419,-0.006,-0.1523,-0.2425,-0.242,0.0,-0.1812,-0.0671,0.0278,0.178,0.4328,0.5557,0.6589,0.7768,0.8709,0.9082,0.8762,0.7864,0.699,0.649,0.6484,0.5648,0.2638,-0.0,-0.2861,-0.6051,-0.6432,-0.63,-0.6723,-0.7841,-0.9,0.1688,0.1652,0.0741,-0.1282,-0.3886,-0.33,-0.2898,-0.2846,-0.4528,-0.4137,-0.197,0.219,0.4373,0.4904,0.5384,0.0,0.6556,0.6733,0.7041,0.7432,0.8483,0.8951,0.8896,0.8387,0.7977,0.7549,0.4466,0.1933,0.0,0.0,0.0,0.0,0.0,0.0,0.0,0.0,-0.3866,-0.9952,-1.0202,-1.0803,-1.1859,-1.3601,-1.4689,-1.5034,-1.4508,-1.3226,-1.0976,-0.8429,-0.5929,-0.3546,-0.1248,0.0537,0.16,0.0,0.0,0.0,0.0,0.0,0.0,0.0,0.0,0.0,0.0,0.0,0.0,0.0,0.0,0.0,0.7671,0.0,0.7726,0.815,0.0,0.0,0.0,0.7595,0.7694,0.687,0.6142,0.5768,0.0,0.0,0.2245,0.1364,0.0511,-0.0312,-0.1208,-0.1865,-0.2283,-0.1505,-0.0537,0.0735,0.1778,0.3517,0.6485,0.7372,0.8354,0.999,1.0966,1.1286,1.0792,0.9658,0.8974,0.9014,0.9425,0.8869,0.6011,0.5517,0.4153,-0.1428,-0.2305,-0.2223,-0.2341,-0.2264,-0.2758,0.2974,0.2924,0.3326,0.1962,-0.0594,-0.1883,-0.2531,-0.2724,-0.2951,-0.0726,0.3188,0.2926,0.3801,0.5529,0.6191,0.661,0.6822,0.7114,0.717,0.7177,0.8252,0.8898,0.9159,0.8184,0.7484,0.6829,0.4069,0.1769,0.0,0.0,0.0,0.0,0.0,0.0,0.0,-0.5191,-0.7968,-0.8314,-1.1121,-1.3923,-1.6554,-1.7732,-1.8697,-1.9586,-1.8773,-1.707,-1.4511,-1.1494,-0.8339,-0.496,-0.2192,0.0033,0.1475,0.2484,0.0,0.0,0.0,0.0,0.0,0.0,0.0,0.0,0.0,0.1444,0.4621,0.0,0.3928,0.0,0.6569,0.7714,0.8431,0.8704,0.0,0.0,0.8659,0.8119,0.721,0.6766,0.616,0.5193,0.4007,0.31,0.2666,0.2071,0.1499,0.1011,-0.0134,-0.1176,-0.1569,-0.0389,0.1334,0.3347,0.4082,0.5068,0.7257,0.9569,1.1408,1.2837,1.3473,1.377,1.3729,1.2386,1.1426,1.1693,1.1591,1.0813,0.911,0.8375,0.7471,0.5632,0.3823,0.2234,0.2075,0.2141,0.167,0.4815,0.4555,0.4624,0.3846,0.2343,-0.0152,-0.0459,0.0777,0.0941,0.2558,0.5077,0.4483,0.5167,0.6762,0.7138,0.7482,0.7878,0.778,0.7788,0.7998,0.8444,0.8867,0.9138,0.8149,0.7332,0.6703,0.4358,0.212,0.0,0.0,0.0,0.0,0.0,-0.1448,-0.4526,-1.1319,-1.3119,-0.9715,-1.3015,-1.6653,-2.0441,-2.1823,-2.2988,-2.3964,-2.4009,-2.2769,-2.0142,-1.7193,-1.3457,-0.8754,-0.5679,-0.2585,0.0634,0.2437,0.355,0.0,0.0,0.0,0.0,0.0,0.0,0.0,0.0,0.0,0.0,0.0,0.233,0.4579,0.5832,0.6976,0.8063,0.876,0.9156,0.9306,0.8911,0.8416,0.7846,0.7107,0.6374,0.5612,0.4611,0.3903,0.3605,0.3147,0.2898,0.3019,0.2282,0.1207,-0.0065,0.0994,0.3175,0.6137,0.6269,0.6881,0.9151,1.1668,1.347,1.4049,1.497,1.5712,1.5656,1.4979,1.4169,1.3618,1.3312,1.2757,1.1436,1.0733,1.0182,0.9543,0.8323,0.688,0.5726,0.5205,0.4491,0.6608,0.6231,0.5414,0.5044,0.4758,0.1871,0.2227,0.4757,0.4763,0.4884,0.5156,0.6112,0.7092,0.803,0.8025,0.8491,0.9207,0.8625,0.8681,0.9205,0.8892,0.8831,0.8937,0.807,0.7324,0.6686,0.5008,0.2913,0.0523,0.0172,0.0,0.0,0.0,-0.3019,-0.9106,-1.5922,-1.7236,-1.3132,-1.5636,-1.9265,-2.3996,-2.5766,-2.7149,-2.8129,-2.8982,-2.8144,-2.5542,-2.2834,-1.8796,-1.3014,-0.9788,-0.5888,-0.0948,0.1761,0.3471,0.0,0.2384,0.0,0.0,0.0,0.0,0.0,0.0,0.0,0.0,-0.0467,0.1077,0.4525,0.5415,0.6271,0.741,0.858,0.9423,0.9712,0.9108,0.8777,0.8866,0.779,0.6866,0.6597,0.5701,0.5076,0.4951,0.4572,0.4469,0.4962,0.4962,0.4092,0.2185,0.2957,0.5209,0.8657,0.842,0.9083,1.1768,1.3786,1.4892,1.4928,1.6078,1.7097,1.7105,1.7194,1.6769,1.5378,1.4958,1.449,1.3246,1.282,1.2356,1.1659,1.1137,1.026,0.8667,0.7462,0.6771,0.7153,0.7311,0.7064,0.6603,0.5898,0.463,0.359,0.2926,0.2923,0.368,0.5033,0.6196,0.7098,0.7794,0.8397,0.9194,1.0118,0.9657,0.952,0.961,0.9562,0.9107,0.8421,0.7673,0.7,0.6438,0.5573,0.4473,0.313,0.1043,0.0,0.0,0.0,-0.1727,-0.5264,0.0,0.0,0.0,-1.8956,-2.1999,-2.747,-2.8976,-3.0227,-3.1397,-3.046,0.0,-2.5321,-2.2655,-1.8753,-1.3621,-1.0407,0.0,0.0,0.0,0.0,0.0,0.0,0.0,0.0,0.0,0.0,0.0,-0.1909,-0.1036,-0.0524,0.061,0.2261,0.4511,0.5387,0.6455,0.7998,0.8751,0.9439,1.0151,1.0051,0.9751,0.9285,0.8922,0.8477,0.7768,0.7057,0.666,0.6648,0.6069,0.5855,0.6379,0.6264,0.6272,0.6373,0.6286,0.7261,0.9379,1.0597,1.2069,1.4078,1.5341,1.6426,1.721,1.77,1.8223,1.8585,1.878,1.8555,1.7407,1.7095,1.6519,1.5351,1.4202,1.3171,1.2767,1.1948,1.1168,1.0465,0.9614,0.8809,0.901,0.9006,0.9203,0.8616,0.0,0.7079,0.6109,0.4779,0.3978,0.433,0.5581,0.6467,0.7545,0.8744,0.9113,0.9955,1.1033,1.0386,1.0221,1.0438,0.9658,0.9031,0.8448,0.7478,0.6546,0.5715,0.5501,0.4772,0.3549,0.2647,0.146,0.0022,-0.0789,-0.1891,-0.3391,-0.8529,-1.4205,-2.0317,-2.286,-2.6109,-3.0078,-3.2928,-3.4534,-3.4816,-3.4089,0.0,0.0,0.0,0.0,0.0,0.0,0.0,0.0,0.0,0.0,-0.0459,-0.1083,-0.1799,-0.2529,-0.2677,-0.2722,-0.27,-0.1226,0.0056,0.0765,0.1598,0.2849,0.4583,0.544,0.6592,0.8268,0.9248,1.0163,1.1012,1.1308,1.1191,1.0697,1.0406,1.0019,0.9194,0.8485,0.8057,0.7991,0.734,0.714,0.759,0.7529,0.7662,0.8322,0.8,0.8273,1.0213,1.1917,1.3459,1.4841,1.6377,1.7445,1.8114,1.8608,1.9129,1.9768,1.9777,1.942,1.8703,1.8044,1.7295,1.6417,1.5087,1.3892,1.3124,1.2028,1.0914,1.0454,0.9977,0.9578,1.1317,1.0758,1.1179,1.0543,0.9241,0.904,0.8343,0.7154,0.5696,0.0,0.0,0.6763,0.8079,0.9864,0.998,1.0741,1.1893,1.1136,1.0983,1.1251,0.9777,0.8955,0.8651,0.7413,0.6197,0.5154,0.5414,0.4967,0.3863,0.3781,0.2476,0.0097,-0.1353,-0.2115,-0.2633,-0.7481,-1.3124,-1.9257,-2.5234,-2.929,-3.1328,-3.5641,-3.777,-3.7461,-3.6873,-3.4888,-3.1244,-2.7882,-2.3027,-1.6293,-1.4167,-1.0714,-0.5502,-0.3063,-0.1743,-0.1677,-0.273,-0.3464,-0.3464,-0.3442,-0.279,-0.1275,0.0586,0.1956,0.2639,0.2949,0.3661,0.4967,0.5763,0.6987,0.8618,0.9882,1.105,1.2203,1.2569,1.2572,1.2208,1.1929,1.141,1.0624,0.9783,0.9221,0.8995,0.8364,0.8089,0.8423,0.8317,0.863,0.9122,0.8991,0.9399,1.1227,1.287,1.4177,1.5429,1.6949,1.8208,1.8696,1.9156,1.9752,2.0388,2.0301,1.9827,1.9298,1.8511,1.7716,1.6891,1.5583,1.4335,1.3259,1.1651,1.0206,0.9537,0.9315,0.9335,1.3387,1.1976,1.2331,1.1892,1.0895,1.0082,0.8781,0.716,0.6255,0.5992,0.6259,0.7021,0.8466,1.032,1.0613,1.1596,1.3007,1.2475,1.1936,1.1429,1.0353,0.9449,0.865,0.741,0.6342,0.5591,0.5938,0.6222,0.5864,0.248,0.0377,0.0,-0.0351,-0.0974,-0.2142,-0.5004,-0.8845,-1.3666,-2.2832,-2.8319,-2.9906,-3.4198,-3.6822,-3.7413,-3.5367,-3.258,-2.8941,-2.5456,-2.0969,-1.5189,-1.3926,-1.172,-0.8052,-0.5003,-0.3321,-0.262,-0.2919,-0.3129,-0.3047,-0.2693,-0.1286,0.1159,0.2581,0.3697,0.4539,0.5486,0.5893,0.578,0.689,0.8126,0.9371,1.0543,1.1858,1.3191,1.3564,1.3564,1.3268,1.2969,1.2519,1.1811,1.1001,1.0243,0.9722,0.893,0.8431,0.8521,0.8284,0.8353,0.9547,1.0497,1.1585,1.2903,1.4136,1.5352,1.6658,1.782,1.897,1.9787,1.968,1.983,2.0716,2.0448,1.9993,1.9439,1.8932,1.8236,1.717,1.5563,1.4052,1.2679,1.0889,0.925,0.8296,0.7828,0.8091,1.4255,1.3221,1.3789,1.327,1.1973,1.135,1.0357,0.9161,0.8767,0.789,0.6969,0.8236,0.9494,1.0703,1.167,1.238,1.2841,1.2407,1.1549,1.0361,0.9821,0.8906,0.7603,0.5779,0.453,0.3956,0.4871,0.4758,0.3539,0.1156,0.0,0.0,0.0976,0.1522,0.1463,-0.0625,-0.3352,-0.6766,-1.5747,-2.2624,-2.7073,-3.0624,-3.2901,-3.3707,-3.2331,-2.9292,-2.4521,-2.0295,-1.5605,-1.048,-0.8006,-0.5665,-0.3314,-0.1711,-0.0793,-0.086,-0.1748,-0.2271,-0.2186,-0.0663,0.1054,0.3039,0.4512,0.5817,0.6848,0.6653,0.6701,0.716,0.8157,0.9197,1.0181,1.1655,1.2963,1.4054,1.4772,1.5172,1.5071,1.4493,1.3873,1.3204,1.1805,1.0725,1.0343,0.9143,0.8343,0.8305,0.8245,0.8783,0.9898,1.0921,1.2181,1.3689,1.5495,1.7015,1.8129,1.9156,2.0109,2.0965,2.0746,2.0791,2.1313,2.0894,2.0219,1.9858,1.9175,1.8209,1.7157,1.5527,1.386,1.2203,1.032,0.8674,0.7608,0.6842,0.6964,1.4879,1.448,1.4958,1.4279,1.2806,1.248,1.1974,1.1342,1.1342,1.0449,0.9217,0.9931,1.0737,1.1613,1.2707,1.3038,1.2681,1.2372,1.1231,0.9513,0.914,0.8062,0.6282,0.4089,0.2638,0.204,0.2967,0.2547,0.0944,0.0284,0.0,0.0,0.2273,0.4456,0.652,0.4551,0.282,0.1087,-0.5918,-1.3187,-2.0182,-2.5527,-2.7934,-2.6621,-2.6117,-2.3195,-1.7734,-1.3173,-0.8794,-0.4546,-0.17,0.0663,0.2494,0.281,0.2592,0.1723,-0.014,-0.1161,-0.0904,0.1193,0.3124,0.4477,0.6172,0.7599,0.8619,0.8051,0.7827,0.8619,0.9398,1.0298,1.1317,1.2694,1.4066,1.5107,1.6119,1.6757,1.6937,1.6181,1.5268,1.4496,1.2694,1.1308,1.0554,0.9197,0.8199,0.8027,0.8413,0.9186,1.0226,1.1104,1.2351,1.4512,1.6974,1.8685,1.938,2.0351,2.1247,2.1982,2.1783,2.1757,2.1911,2.1161,2.0239,1.9864,1.8955,1.7875,1.6946,1.5426,1.3738,1.2081,1.0164,0.829,0.6903,0.6161,0.6025,1.5621,1.6013,1.549,1.4497,1.3391,1.3222,1.3073,1.2913,1.3036,1.3471,1.3738,1.1986,1.2043,1.3309,1.3543,1.3487,1.3204,1.3057,1.1746,0.9563,0.8729,0.711,0.4899,0.3112,0.1588,0.0481,0.0577,0.0691,0.0336,0.0271,0.0,0.0,0.334,0.7686,1.1796,1.0235,0.9774,1.1261,0.7186,0.1459,-0.6201,-1.8727,-2.2026,-1.4824,-1.4131,-1.1755,-0.6795,-0.3544,-0.0323,0.2179,0.3007,0.4401,0.646,0.6589,0.5755,0.446,0.169,0.0131,0.0513,0.2282,0.4051,0.5475,0.7182,0.8619,0.9755,1.0269,1.032,1.0151,1.0608,1.1575,1.2735,1.3803,1.5117,1.6752,1.7489,1.8047,1.824,1.7851,1.6802,1.5347,1.3693,1.2284,1.0742,0.9209,0.8176,0.7628,0.8253,0.9189,1.0381,1.1204,1.271,1.5519,1.8393,1.9928,2.0155,2.105,2.2047,2.2565,2.2417,2.2319,2.216,2.1133,1.9737,1.9245,1.8394,1.7379,1.6392,1.5099,1.3632,1.2129,1.0192,0.8186,0.6337,0.5647,0.5868,1.6623,1.6317,1.5576,1.4882,1.4324,1.4184,1.433,1.4683,1.4811,1.5592,1.6649,1.5443,1.4753,1.4556,1.5069,1.4497,1.3027,1.3361,1.1964,0.9337,0.9275,0.8097,0.582,0.3451,0.1992,0.1456,0.1401,0.1389,0.1734,0.3201,0.453,0.5611,0.8325,1.2582,1.7576,1.6395,1.8058,2.3106,1.7112,1.7285,2.1092,-0.125,-1.159,-0.4074,0.6995,1.0468,0.6494,0.8733,1.0695,1.1348,1.1434,1.1458,1.124,1.0486,0.8739,0.6007,0.3285,0.2046,0.2604,0.3711,0.5023,0.6656,0.8224,0.9585,1.0813,1.1566,1.1963,1.2178,1.2364,1.2959,1.4004,1.5099,1.6342,1.7693,1.8478,1.8874,1.9081,1.8287,1.7157,1.5729,1.3803,1.2043,1.0384,0.8594,0.7468,0.7263,0.7938,0.9146,1.0629,1.1464,1.3177,1.609,1.9014,2.0599,2.0857,2.1691,2.2674,2.3256,2.3419,2.3253,2.2258,2.1354,2.0085,1.881,1.8075,1.7244,1.6239,1.5129,1.3782,1.2168,1.0043,0.7909,0.6181,0.6456,0.6655,1.7152,1.6625,1.5695,1.5134,1.4909,1.5048,1.5503,1.6283,1.6773,1.7816,1.9039,1.8882,1.8067,1.6968,1.6891,1.5703,1.4015,1.4354,1.3108,1.0585,1.0937,1.0264,0.8467,0.5862,0.4529,0.4555,0.4971,0.5646,0.6868,1.0233,1.2477,1.3811,1.5742,1.9456,2.417,2.3556,2.6458,3.2475,2.7656,3.258,4.3034,2.6311,1.3079,1.1918,2.8694,3.3225,2.1221,2.1817,2.1998,2.0654,1.9796,1.8204,1.6101,1.4447,1.1248,0.6657,0.4307,0.3434,0.4088,0.4734,0.5828,0.7314,0.8892,1.0324,1.146,1.2396,1.3258,1.4047,1.4125,1.4407,1.5194,1.6269,1.7368,1.8513,1.9364,1.9726,1.9473,1.8782,1.7761,1.5887,1.4003,1.1818,0.9869,0.817,0.7253,0.7582,0.8234,0.9392,1.1037,1.204,1.3353,1.6547,1.9233,2.0805,2.1514,2.2356,2.3255,2.3733,2.3923,2.3285,2.2272,2.1375,2.034,1.8908,1.8283,1.7597,1.6717,1.5558,1.4052,1.2188,1.0122,0.8072,0.686,0.7436,0.6835,1.6823,1.7352,1.5908,1.5224,1.4996,1.5787,1.6545,1.7315,1.8909,2.0119,2.0953,2.1768,2.1793,2.0957,1.907,1.7338,1.6464,1.6476,1.5576,1.3886,1.39,1.3662,1.3049,1.0908,0.9729,0.9691,1.0741,1.3168,1.6748,2.1385,2.4414,2.4751,2.5271,2.8423,3.2221,3.1691,3.4337,3.9761,4.0742,4.5995,5.6544,6.4904,5.5187,3.5639,4.7947,5.119,3.986,3.5551,3.2822,2.9992,2.6622,2.3679,2.1303,1.8079,1.2964,0.6904,0.4696,0.4056,0.4435,0.5202,0.6236,0.7416,0.9184,1.0698,1.1677,1.2842,1.4015,1.5373,1.5513,1.5856,1.6332,1.6973,1.8025,1.927,2.0238,2.029,1.9703,1.9641,1.8589,1.6135,1.4132,1.1938,0.8907,0.8196,0.8196,0.8653,0.9229,1.0273,1.2056,1.2683,1.4136,1.6775,1.9141,2.0758,2.1708,2.2496,2.3405,2.3892,2.3554,2.2998,2.2082,2.112,2.0041,1.9218,1.8731,1.8137,1.729,1.6042,1.446,1.2609,1.0376,0.859,0.7394,0.695,0.6517,1.8121,1.7756,1.7127,1.6801,1.6794,1.7074,1.7584,1.837,1.956,2.0594,2.1552,2.2795,2.3896,2.4712,2.3311,2.103,1.843,1.8806,1.8153,1.6781,1.761,1.7452,1.6221,1.5339,1.4678,1.4233,1.4644,1.701,2.0978,2.4269,2.6891,2.8704,2.9202,3.1621,3.5507,3.7145,4.1306,4.8813,5.4684,6.1289,6.7656,7.7571,7.6042,6.4813,6.5764,6.3136,5.4188,4.7099,4.0943,3.6311,3.1905,2.7879,2.4257,1.8947,1.3891,0.9727,0.6836,0.5158,0.4804,0.5414,0.6607,0.8078,0.9439,1.0743,1.1766,1.301,1.416,1.488,1.5869,1.6527,1.6975,1.7573,1.8403,1.9297,1.978,1.998,1.9726,1.9324,1.8239,1.6172,1.3687,1.0812,0.9469,0.8571,0.8846,0.973,1.0396,1.176,1.3219,1.3658,1.459,1.7454,1.9652,2.1061,2.1609,2.2159,2.2807,2.3231,2.3155,2.2555,2.179,2.1267,2.0358,1.9627,1.9199,1.8616,1.7747,1.598,1.4474,1.2614,1.0457,0.9129,0.7915,0.7639,0.7225,1.935,1.8386,1.8278,1.8254,1.8257,1.8508,1.8887,1.9478,2.0843,2.1597,2.2067,2.3852,2.5772,2.7098,2.6862,2.524,2.2527,2.2293,2.1488,2.0585,2.1852,2.1851,2.0856,2.0676,2.0318,1.9958,2.055,2.3055,2.6972,2.9869,3.2473,3.4879,3.4879,3.6466,3.9696,4.2064,4.7184,5.52,6.3728,7.0331,7.5312,8.1821,8.5029,8.2247,7.4579,6.6742,6.0695,5.2956,4.6183,4.0552,3.5314,3.0425,2.5367,1.9707,1.5029,1.1918,0.8718,0.6698,0.6123,0.6504,0.7427,0.8792,0.9911,1.0941,1.1794,1.2979,1.3865,1.4618,1.5355,1.6197,1.681,1.7618,1.849,1.9032,1.9235,1.9293,1.9198,1.8951,1.7678,1.5471,1.2789,1.0755,1.0003,0.984,1.0385,1.1437,1.2205,1.3406,1.4697,1.4959,1.5591,1.8276,2.0099,2.1171,2.1629,2.1985,2.2453,2.2882,2.2732,2.2139,2.1715,2.1266,2.0804,2.0149,1.9514,1.9026,1.783,1.6009,1.4264,1.2531,1.1082,0.9754,0.898,0.845,0.8067,2.0532,1.9562,1.9285,1.9491,1.9647,2.0225,2.048,2.0876,2.2963,2.3126,2.2493,2.5197,2.745,2.8684,2.9125,2.9136,2.8651,2.693,2.5796,2.5498,2.6432,2.6784,2.6481,2.649,2.6605,2.6698,2.9196,3.2205,3.5554,3.9016,4.1646,4.3073,4.2865,4.3101,4.4916,4.6722,5.0973,5.76,6.5312,7.2037,7.7124,7.9822,8.292,8.4547,7.269,6.2567,5.7494,5.3061,4.7906,4.2381,3.7037,3.1095,2.4964,2.0633,1.6905,1.3278,1.0251,0.8726,0.834,0.8282,0.8445,0.93,1.041,1.1138,1.1667,1.2597,1.3538,1.4262,1.4649,1.497,1.5793,1.6894,1.7871,1.8441,1.8526,1.8473,1.8225,1.8637,1.7812,1.4419,1.2335,1.1487,1.1626,1.1852,1.2505,1.3732,1.4591,1.5427,1.6573,1.6409,1.7203,1.9043,2.0488,2.141,2.159,2.1776,2.2226,2.2548,2.219,2.1736,2.1545,2.1156,2.1099,2.0532,2.0052,1.9447,1.7859,1.6098,1.4629,1.304,1.1674,1.0463,0.977,0.9207,0.8988,2.3821,2.3475,2.2937,2.2698,2.2678,2.2416,2.2266,2.2415,2.3773,2.3696,2.3441,2.6194,2.9199,3.1331,3.1448,3.1802,3.2795,3.2028,3.0891,2.9679,3.0295,3.0628,3.0535,3.0962,3.1841,3.32,3.5599,3.8634,4.1909,4.4883,4.6956,4.7874,4.7341,4.6786,4.6505,4.8287,5.1541,5.631,6.3103,6.8704,7.2401,7.4698,7.8174,8.1214,6.9989,5.8908,5.0572,5.016,4.7678,4.2512,3.8073,3.2532,2.6346,2.2331,1.8905,1.5422,1.1722,0.9733,0.9601,0.8968,0.8834,0.9389,1.0067,1.0425,1.0812,1.1932,1.2681,1.2958,1.3342,1.3982,1.4457,1.4928,1.573,1.6752,1.7038,1.7263,1.7287,1.7292,1.6384,1.4772,1.3777,1.3529,1.3565,1.393,1.5033,1.6381,1.7033,1.7751,1.8574,1.807,1.8175,1.9923,2.0954,2.1845,2.2053,2.2348,2.2652,2.2741,2.2321,2.1953,2.1642,2.133,2.1285,2.0654,2.019,1.9225,1.7657,1.6206,1.4759,1.3531,1.2174,1.1213,1.0399,1.0037,0.9904,2.6601,2.6411,2.559,2.5273,2.5223,2.469,2.4317,2.4293,2.5312,2.4762,2.412,2.7331,3.1015,3.3656,3.3671,3.414,3.5417,3.63,3.5955,3.4523,3.4452,3.456,3.4534,3.5577,3.6819,3.8369,4.0532,4.3089,4.5922,4.8278,4.9956,5.061,5.0035,4.8833,4.7758,4.8743,5.1009,5.4391,5.9076,6.3428,6.6513,6.8476,7.1502,7.3888,6.5187,5.5113,4.6576,4.7363,4.6372,4.2336,3.8372,3.3428,2.7456,2.3972,2.0543,1.6854,1.3428,1.0966,1.0524,0.9921,0.9573,1.0035,1.0375,1.061,1.0836,1.1771,1.2175,1.2095,1.2631,1.3129,1.3244,1.3194,1.3711,1.474,1.5426,1.5919,1.6373,1.628,1.5832,1.5187,1.5065,1.5235,1.5622,1.6652,1.7761,1.9079,1.9901,2.0391,2.0873,2.0005,2.0486,2.1252,2.2475,2.2907,2.2822,2.296,2.3123,2.301,2.2693,2.2453,2.2159,2.1822,2.164,2.0029,1.9183,1.8462,1.6998,1.6039,1.4765,1.3668,1.2814,1.2031,1.1349,1.1162,1.1073,2.8965,2.8456,2.7568,2.724,2.7152,2.6987,2.6502,2.6142,2.7359,2.6357,2.5116,2.8509,3.2591,3.5288,3.5509,3.5942,3.7319,3.909,4.0085,3.9824,3.9381,3.8853,3.89,4.0068,4.1115,4.2234,4.409,4.5961,4.7772,5.0048,5.159,5.1785,5.1201,5.0197,4.8567,4.8749,4.9625,5.1458,5.4364,5.7601,6.049,6.1568,6.335,6.6238,5.8906,5.1475,4.6167,4.5338,4.4335,4.1742,3.8213,3.3884,2.8987,2.5467,2.1548,1.7276,1.4255,1.2256,1.1231,1.0862,1.0831,1.0915,1.1177,1.1518,1.139,1.1871,1.2225,1.2043,1.2491,1.2677,1.2438,1.2301,1.2536,1.2964,1.4121,1.4978,1.5634,1.5723,1.5804,1.5956,1.6174,1.675,1.7916,1.9329,2.0644,2.1906,2.2866,2.3387,2.3451,2.2824,2.2302,2.3019,2.4067,2.4067,2.3981,2.394,2.4126,2.4206,2.3903,2.3509,2.2978,2.2595,2.1653,2.0091,1.8385,1.7567,1.6758,1.585,1.5206,1.4537,1.3718,1.289,1.2509,1.2312,1.2023,3.2947,3.2686,3.1248,3.029,2.9647,2.9057,2.8262,2.7628,2.7978,2.781,2.7554,2.9542,3.3339,3.6948,3.6168,3.6889,3.9143,4.0463,4.1711,4.2736,4.3714,4.3529,4.3179,4.3531,4.3945,4.4526,4.6403,4.8359,4.9527,5.1191,5.2125,5.2175,5.1112,4.9698,4.7971,4.7476,4.7361,4.7921,5.0302,5.2346,5.3806,5.4957,5.5613,5.5956,5.2525,4.8883,4.5893,4.5403,4.3701,4.0624,3.7927,3.4076,2.8994,2.5067,2.1134,1.6968,1.3977,1.2106,1.1736,1.131,1.1148,1.1217,1.1531,1.1538,1.1616,1.2068,1.2247,1.2257,1.2782,1.3235,1.2891,1.2842,1.318,1.3718,1.4195,1.4829,1.5942,1.6355,1.6598,1.7149,1.8064,1.915,2.041,2.1625,2.2991,2.4434,2.5161,2.5552,2.5587,2.5239,2.4581,2.4802,2.5385,2.5306,2.516,2.5094,2.5247,2.5509,2.5401,2.5082,2.4355,2.3633,2.2336,2.0678,1.8667,1.7455,1.6732,1.5908,1.5541,1.5721,1.5222,1.4711,1.3917,1.3489,1.2942,3.5016,3.4924,3.3265,3.2071,3.1254,3.0742,2.9814,2.9046,2.9508,2.9138,2.9117,3.1534,3.499,3.8465,3.7906,3.8946,4.1317,4.2006,4.3278,4.5031,4.6337,4.6347,4.5751,4.5718,4.5708,4.5714,4.7679,4.8886,4.9692,5.1245,5.174,5.1259,5.0581,4.9126,4.7184,4.6632,4.6165,4.612,4.7484,4.8605,4.9058,5.0263,5.0793,5.0579,4.8922,4.7503,4.6325,4.5746,4.4013,4.1078,3.8515,3.4797,2.9195,2.5185,2.0988,1.643,1.4133,1.2969,1.2458,1.21,1.1874,1.1858,1.2039,1.2276,1.238,1.2807,1.3231,1.3237,1.3801,1.4104,1.4275,1.4185,1.4398,1.4854,1.4857,1.5394,1.6885,1.7243,1.784,1.8806,2.0017,2.1273,2.2546,2.3802,2.5116,2.6253,2.6909,2.734,2.7615,2.7245,2.6816,2.6665,2.6485,2.6268,2.6323,2.6371,2.6542,2.685,2.6618,2.6391,2.525,2.4281,2.2443,2.0655,1.8854,1.782,1.7812,1.7708,1.7641,1.7639,1.7147,1.6659,1.6011,1.497,1.4338,3.6114,3.6021,3.4291,3.3054,3.227,3.2021,3.0992,3.0092,3.1119,3.0736,3.0185,3.3624,3.6776,3.9979,3.9564,4.1079,4.3021,4.345,4.5224,4.6838,4.8081,4.8089,4.7127,4.695,4.6646,4.6441,4.7898,4.862,4.9244,5.0491,5.0771,5.0297,4.9874,4.8651,4.7038,4.6244,4.5622,4.5196,4.5624,4.6131,4.6505,4.7706,4.8458,4.8641,4.8608,4.7661,4.6751,4.5921,4.4483,4.1931,3.9619,3.5113,2.9542,2.5721,2.1219,1.7016,1.5096,1.4063,1.3445,1.3316,1.3246,1.3009,1.36,1.3822,1.3776,1.4347,1.4746,1.4812,1.4997,1.5436,1.5865,1.5712,1.5572,1.5827,1.5862,1.646,1.7439,1.8229,1.9052,2.0483,2.1807,2.3061,2.4465,2.5678,2.6916,2.7743,2.8313,2.8597,2.8778,2.8504,2.8089,2.7838,2.7556,2.7185,2.7392,2.7575,2.7949,2.8208,2.7882,2.7348,2.5712,2.4403,2.236,2.0687,2.0386,2.0524,2.0892,2.0729,2.0473,2.0545,2.0713,1.9717,1.8528,1.7132,1.6211,3.7925,3.7753,3.5402,3.3916,3.309,3.2313,3.1421,3.0547,3.1474,3.1957,3.2529,3.4465,3.7092,3.9889,3.9924,4.0772,4.2922,4.4331,4.623,4.8533,4.9356,4.9336,4.8584,4.8081,4.7272,4.7139,4.7869,4.8494,4.8944,4.9673,5.0156,4.9912,4.9036,4.8281,4.6999,4.58,4.5189,4.4685,4.4687,4.5052,4.5481,4.6305,4.7389,4.8217,4.892,4.8613,4.7546,4.6839,4.4684,4.1404,3.8028,3.4399,3.0258,2.5373,2.1005,1.7993,1.5795,1.4849,1.4656,1.4399,1.4482,1.5071,1.5379,1.5965,1.6463,1.6124,1.6346,1.6506,1.6586,1.6564,1.6917,1.6339,1.6178,1.6465,1.6562,1.6893,1.788,1.8637,1.9707,2.1181,2.2646,2.4315,2.6232,2.7094,2.8146,2.9076,2.9469,2.9658,2.9588,2.9337,2.887,2.8179,2.7661,2.7175,2.7676,2.795,2.8317,2.8602,2.8457,2.8337,2.676,2.5622,2.4006,2.3195,2.2772,2.332,2.4496,2.422,2.4117,2.4219,2.417,2.2805,2.1386,1.9739,1.7452,3.8514,3.8281,3.5781,3.4178,3.3307,3.2427,3.1543,3.1104,3.2018,3.2787,3.3606,3.5405,3.7605,3.9526,4.0259,4.1609,4.3469,4.5517,4.7151,4.8584,4.9515,4.9937,4.988,4.9748,4.9381,4.8515,4.8967,4.9243,4.9282,4.9301,4.9295,4.8311,4.7695,4.6672,4.564,4.4781,4.438,4.4399,4.4618,4.4963,4.5312,4.6618,4.7649,4.8663,4.9148,4.8655,4.6946,4.5526,4.2767,3.9003,3.542,3.2397,2.9497,2.4846,2.0991,1.8783,1.7136,1.615,1.5909,1.577,1.5863,1.6565,1.6865,1.708,1.7236,1.6963,1.6763,1.6725,1.6511,1.6469,1.7011,1.6698,1.6529,1.6713,1.6831,1.7162,1.8082,1.9027,2.0326,2.1891,2.3588,2.5128,2.6662,2.7773,2.8454,2.907,2.8892,2.9071,2.8931,2.8763,2.8443,2.7928,2.7326,2.724,2.7719,2.8082,2.8361,2.8623,2.8568,2.8579,2.7918,2.7059,2.6253,2.5789,2.5529,2.7593,2.8591,2.816,2.7868,2.8452,2.8,2.6208,2.4019,2.1653,1.9042,3.8545,3.8372,3.5798,3.4215,3.3317,3.2492,3.1613,3.1086,3.2499,3.3206,3.3847,3.642,3.8092,3.9309,4.0746,4.2459,4.4407,4.6407,4.7746,4.8307,4.9548,5.006,5.0256,5.1153,5.143,5.0371,5.0127,4.9872,4.8955,4.8593,4.6713,4.5441,4.5133,4.4162,4.3085,4.3201,4.3384,4.3836,4.4417,4.5109,4.5589,4.7241,4.8379,4.8962,4.9121,4.7951,4.5921,4.3771,4.085,3.6369,3.2349,2.9387,2.6746,2.3878,2.0734,1.9545,1.8297,1.7773,1.7616,1.7508,1.7542,1.7697,1.805,1.784,1.7479,1.6811,1.6334,1.5847,1.5517,1.533,1.5988,1.5824,1.6011,1.6349,1.6492,1.7117,1.7929,1.9144,2.0582,2.239,2.4045,2.5661,2.686,2.7962,2.8536,2.887,2.8581,2.8418,2.8318,2.8115,2.7704,2.7575,2.7075,2.7129,2.7655,2.8121,2.8364,2.8343,2.8476,2.8609,2.8821,2.8913,2.8467,2.8385,2.8856,3.0522,3.158,3.1254,3.1444,3.244,3.072,2.7689,2.5406,2.344,2.0246,3.8528,3.8315,3.5759,3.4173,3.332,3.2457,3.1613,3.1169,3.2538,3.3384,3.4071,3.6446,3.8218,3.9346,4.0419,4.2262,4.4413,4.632,4.7612,4.8369,4.9379,4.9828,5.0445,5.1479,5.1999,5.1719,5.049,4.8578,4.649,4.4705,4.2616,4.1012,4.0513,4.0117,4.0402,4.1483,4.2052,4.2667,4.3405,4.4213,4.5582,4.6693,4.7688,4.8343,4.8644,4.7372,4.4946,4.2615,3.966,3.5488,3.1018,2.7143,2.4244,2.2073,2.0702,1.9762,1.9159,1.8957,1.9405,1.9437,1.9835,2.0263,1.9936,1.8977,1.7824,1.6483,1.5186,1.4319,1.39,1.3807,1.4124,1.4289,1.4484,1.4875,1.5616,1.6363,1.6937,1.8291,2.0074,2.1945,2.393,2.5764,2.6625,2.7441,2.7947,2.8126,2.7877,2.7782,2.7679,2.7413,2.6976,2.6889,2.6889,2.7125,2.7515,2.7926,2.8272,2.8077,2.8091,2.841,2.9005,3.0406,3.0604,2.9036,2.9998,3.1902,3.2764,3.2905,3.2583,3.1778,3.0172,2.838,2.5121,2.1882,1.9345,3.8541,3.8288,3.5767,3.4195,3.3317,3.246,3.1892,3.1685,3.2693,3.3741,3.4941,3.6667,3.8448,3.977,4.064,4.225,4.4188,4.575,4.7005,4.7963,4.863,4.9294,4.9789,5.072,5.0867,5.0167,4.8523,4.6351,4.4175,4.0826,3.7649,3.5059,3.4476,3.4594,3.5338,3.6518,3.8644,3.9959,4.1456,4.2799,4.4546,4.5575,4.6491,4.6861,4.6782,4.5602,4.3234,4.0238,3.7063,3.3146,2.8834,2.5232,2.2662,2.0973,2.0276,1.9924,1.9834,2.0294,2.1048,2.1035,2.0874,2.0886,2.0085,1.8271,1.6436,1.4611,1.3019,1.1853,1.1528,1.1665,1.2147,1.2388,1.2806,1.3481,1.4294,1.5053,1.611,1.7761,1.9431,2.1146,2.2945,2.4581,2.5778,2.6546,2.727,2.7318,2.716,2.7128,2.7049,2.6641,2.616,2.6472,2.6605,2.6704,2.6928,2.7159,2.7296,2.7212,2.721,2.7467,2.8076,2.9005,2.8714,2.7644,2.9594,3.0406,3.1241,3.0438,3.0689,3.0544,2.8138,2.5612,2.3011,2.0292,1.7534,3.8752,3.838,3.6157,3.4625,3.3632,3.2928,3.2517,3.2538,3.3378,3.435,3.5465,3.7069,3.8818,4.0325,4.1314,4.2435,4.3941,4.5052,4.5989,4.681,4.7443,4.8155,4.8474,4.8693,4.856,4.7621,4.4834,4.2906,4.0528,3.6689,3.2243,2.8946,2.7654,2.8026,2.9074,3.1049,3.3568,3.6177,3.8327,4.0173,4.212,4.3337,4.4069,4.43,4.3814,4.2612,4.0361,3.7743,3.4551,3.0952,2.7173,2.3617,2.1527,2.0026,1.9643,2.0141,2.0453,2.1294,2.1841,2.1801,2.1163,2.0614,1.8743,1.6618,1.4159,1.1918,0.9524,0.8512,0.8669,0.925,0.9989,1.0532,1.1089,1.19,1.2683,1.3652,1.5292,1.6797,1.8377,2.0096,2.1928,2.3252,2.4388,2.5528,2.6212,2.6152,2.5995,2.631,2.6264,2.5893,2.5712,2.6125,2.6372,2.6341,2.6329,2.604,2.5933,2.5625,2.5518,2.5473,2.6203,2.7059,2.6129,2.4766,2.3944,2.4661,2.6193,2.7549,2.71,2.6229,2.4849,2.2206,1.8419,1.6688,1.4988,3.9213,3.8437,3.7344,3.5975,3.464,3.4315,3.3817,3.3367,3.4659,3.5394,3.579,3.7656,3.9286,4.0606,4.2078,4.2693,4.3098,4.3813,4.4724,4.5571,4.5908,4.6076,4.6044,4.6215,4.5452,4.4202,4.0671,3.8068,3.5326,3.1315,2.6558,2.2338,2.1161,2.1479,2.2942,2.5506,2.8785,3.1533,3.3594,3.5897,3.8098,3.91,3.9238,3.9379,3.9387,3.8997,3.7176,3.4972,3.2371,2.9295,2.6002,2.2977,2.0534,1.919,1.9147,1.9761,2.0557,2.1319,2.1873,2.151,2.0553,1.9267,1.7206,1.5115,1.2101,0.8512,0.5801,0.5194,0.6194,0.7435,0.8251,0.8974,0.9651,1.0592,1.1616,1.2816,1.431,1.6274,1.7763,1.9024,2.0889,2.1823,2.2829,2.4012,2.5043,2.4942,2.484,2.5181,2.5396,2.5083,2.5461,2.6101,2.5982,2.5889,2.5571,2.5292,2.4785,2.4294,2.3916,2.3556,2.3281,2.3301,2.2206,2.0985,1.9523,1.8581,1.987,2.1076,2.2205,2.0983,1.8284,1.5627,1.2808,1.2031,1.2365,3.9574,3.9138,3.8323,3.6992,3.5459,3.4891,3.4436,3.4354,3.5193,3.6122,3.6872,3.8098,3.9449,4.0793,4.2271,4.2695,4.2528,4.2927,4.3712,4.4315,4.4353,4.4159,4.4065,4.3437,4.242,4.0119,3.66,3.2007,2.8919,2.5088,2.0699,1.6564,1.4993,1.5245,1.7134,1.9772,2.3158,2.6935,3.083,3.3493,3.384,3.3859,3.4053,3.4619,3.4931,3.4699,3.3944,3.1931,3.0101,2.7551,2.4762,2.1936,2.0037,1.8866,1.8506,1.8488,1.9202,2.0197,2.1303,2.061,1.916,1.7587,1.5357,1.2845,0.9009,0.5874,0.3925,0.4426,0.5205,0.6182,0.7235,0.8197,0.8942,0.983,1.1034,1.2589,1.4028,1.5662,1.7259,1.8572,1.9736,2.0761,2.1696,2.2619,2.3476,2.342,2.3491,2.3716,2.4196,2.4488,2.5228,2.6215,2.586,2.5361,2.4917,2.4584,2.4002,2.3372,2.2426,2.1749,1.9829,1.9085,1.8499,1.5504,1.2263,1.2188,1.3501,1.3393,1.3416,1.2402,1.1195,0.9714,0.8601,1.043,1.0024,3.88,3.8136,3.8157,3.713,3.5293,3.4581,3.407,3.3929,3.5057,3.6227,3.75,3.8736,4.0056,4.0873,4.1976,4.2486,4.2325,4.2282,4.2935,4.3211,4.291,4.253,4.1897,4.094,3.8872,3.6804,3.237,2.7862,2.302,1.8803,1.5259,1.1633,1.0871,1.0804,1.2294,1.4917,1.8252,2.2869,2.7921,2.9722,2.9027,2.8349,2.8887,2.958,3.0188,3.0436,3.0395,2.9078,2.7382,2.5524,2.3214,2.0706,1.9185,1.8279,1.7816,1.7751,1.7971,1.8245,1.8676,1.817,1.6846,1.4911,1.2588,0.9411,0.6042,0.3779,0.3857,0.5018,0.5273,0.6257,0.7143,0.8051,0.8806,0.9786,1.0835,1.2439,1.413,1.5705,1.7082,1.8361,1.9381,2.0079,2.095,2.1483,2.1944,2.193,2.2038,2.2244,2.3019,2.39,2.4722,2.5798,2.5468,2.4866,2.4378,2.385,2.3236,2.2425,2.1499,1.9894,1.8108,1.6594,1.5711,1.1727,0.7386,0.6527,0.8199,0.6241,0.4403,0.4914,0.5299,0.5307,0.5446,0.7498,0.8092,3.6137,3.4007,3.6135,3.5531,3.3388,3.3244,3.254,3.1927,3.4127,3.5484,3.6783,3.9464,4.0651,4.1028,4.1506,4.2114,4.2362,4.184,4.214,4.224,4.191,4.101,3.995,3.7983,3.5524,3.2645,2.8343,2.3804,1.9313,1.4577,1.111,0.8333,0.815,0.8127,0.9483,1.2056,1.5328,1.9437,2.3651,2.4805,2.4148,2.3678,2.3865,2.4585,2.5253,2.5724,2.5743,2.5458,2.481,2.3183,2.1374,1.9796,1.836,1.7543,1.7152,1.7081,1.6673,1.6468,1.5811,1.5357,1.3787,1.115,0.8497,0.6518,0.5156,0.443,0.4936,0.6142,0.6153,0.6611,0.7491,0.8233,0.9042,0.9938,1.1097,1.2831,1.4335,1.5647,1.7024,1.815,1.9118,1.992,2.0474,2.1171,2.1665,2.1769,2.1769,2.1959,2.3008,2.3839,2.4374,2.4982,2.484,2.447,2.3823,2.3237,2.2357,2.1349,2.0394,1.8518,1.6428,1.5071,1.4388,1.1007,0.7454,0.5121,0.3002,0.3049,0.2383,0.025,-0.0079,0.154,0.2852,0.4586,0.508,3.0908,2.9682,2.9404,2.9662,3.0337,3.0056,2.9627,2.9547,3.1506,3.3867,3.5973,3.8332,3.9786,4.0274,4.0775,4.129,4.1545,4.1001,4.1087,4.1048,4.0691,3.9476,3.7899,3.5673,3.3309,2.9337,2.4568,1.9935,1.5817,1.1793,0.9277,0.7476,0.6678,0.6898,0.8166,1.0868,1.4201,1.6444,1.9242,2.0542,2.0271,2.0178,2.0471,2.1428,2.2042,2.2615,2.2882,2.2558,2.1993,2.1171,1.9825,1.865,1.7693,1.7027,1.6655,1.6346,1.5793,1.4732,1.3346,1.275,1.1364,0.8552,0.6329,0.5277,0.5642,0.5363,0.5665,0.6441,0.7003,0.7343,0.8023,0.885,0.9633,1.0357,1.15,1.309,1.4515,1.5718,1.6981,1.8124,1.9027,1.987,2.0446,2.095,2.1351,2.1622,2.157,2.1802,2.2871,2.3745,2.4215,2.4485,2.443,2.4217,2.3654,2.2614,2.143,2.0454,1.9591,1.7746,1.6042,1.4979,1.3736,1.0504,0.8024,0.605,0.4105,0.228,0.0861,-0.0353,-0.0686,-0.0242,0.0938,0.2404,0.3036,2.3628,2.3917,2.2112,2.3358,2.6368,2.6229,2.6002,2.634,2.8216,3.1117,3.436,3.6291,3.779,3.8766,3.9526,4.017,4.0339,4.0001,3.9913,3.9616,3.9002,3.7477,3.5466,3.2815,2.9667,2.5678,2.124,1.6648,1.3284,1.0249,0.8215,0.6804,0.5992,0.6534,0.783,1.1096,1.3803,1.505,1.6771,1.8017,1.7932,1.8376,1.8716,1.9419,1.9748,2.0053,2.0292,2.0118,1.977,1.9239,1.8482,1.7619,1.707,1.6704,1.6319,1.5659,1.4973,1.3952,1.2388,1.0526,0.8922,0.6451,0.5895,0.5883,0.641,0.6466,0.6531,0.7201,0.759,0.8073,0.8663,0.9461,1.0276,1.0901,1.1629,1.3126,1.4442,1.5718,1.6907,1.8112,1.8985,1.987,2.052,2.1007,2.138,2.179,2.1995,2.2057,2.2501,2.3279,2.3917,2.4116,2.4181,2.3896,2.3552,2.2533,2.1544,2.0547,1.9402,1.7831,1.6267,1.5264,1.3666,1.1069,0.8863,0.707,0.5498,0.3912,0.1737,-0.0369,-0.0176,0.0312,0.1602,0.3142,0.3423,1.4427,1.6766,1.5289,1.7552,2.1858,2.1782,2.182,2.2605,2.4764,2.7755,3.1187,3.3778,3.5522,3.6328,3.724,3.8048,3.8617,3.8196,3.793,3.7734,3.6192,3.4606,3.2109,2.9154,2.5651,2.1772,1.7631,1.39,1.121,0.8896,0.7273,0.7161,0.7066,0.7293,0.7504,1.0687,1.2948,1.4076,1.5941,1.6691,1.7089,1.7632,1.8072,1.8004,1.7843,1.8034,1.8095,1.8015,1.777,1.7523,1.7244,1.6738,1.6528,1.6715,1.6196,1.5166,1.4973,1.3682,1.1403,0.8703,0.6934,0.5839,0.5716,0.6505,0.7358,0.7444,0.7275,0.8007,0.8344,0.885,0.9414,1.0145,1.0798,1.1511,1.2232,1.293,1.4322,1.5817,1.7131,1.8131,1.8959,1.9795,2.0537,2.1133,2.1511,2.1874,2.2206,2.2447,2.2569,2.2853,2.3449,2.3503,2.3599,2.3547,2.3166,2.2563,2.1611,2.0591,1.9449,1.7911,1.6513,1.5383,1.3565,1.1405,0.9772,0.8122,0.6827,0.5601,0.3755,0.2152,0.1346,0.1718,0.2955,0.4058,0.468,1.0797,1.2933,1.1423,1.238,1.5028,1.6816,1.7963,1.9195,2.2067,2.5272,2.8094,3.0185,3.2151,3.3494,3.4183,3.4839,3.5326,3.4679,3.4363,3.3944,3.2489,3.0665,2.8186,2.517,2.1682,1.8036,1.4216,1.163,0.9565,0.796,0.7736,0.7772,0.8532,0.9361,0.9945,1.169,1.2962,1.3895,1.5152,1.5947,1.6081,1.6746,1.7079,1.6812,1.6524,1.64,1.6429,1.6392,1.6358,1.6356,1.6147,1.6262,1.6314,1.6559,1.6146,1.5466,1.5169,1.384,1.1571,0.9314,0.7689,0.6693,0.6576,0.7385,0.8123,0.8216,0.8399,0.8625,0.8951,0.9348,0.9976,1.066,1.137,1.2008,1.2635,1.3039,1.4164,1.6002,1.7492,1.8347,1.9136,1.9929,2.0617,2.0968,2.1384,2.1805,2.2153,2.2446,2.2692,2.2601,2.2877,2.2829,2.2852,2.2959,2.2761,2.2164,2.1492,2.0548,1.9492,1.8322,1.6989,1.5501,1.3807,1.1845,1.0551,0.9194,0.7813,0.6617,0.6167,0.5172,0.4037,0.3663,0.4704,0.5891,0.6863,0.8933,1.0068,0.9004,0.9274,1.0791,1.3261,1.5437,1.7757,2.0848,2.3543,2.549,2.6946,2.8598,3.0186,3.0702,3.1102,3.1682,3.0865,3.0205,2.9679,2.8291,2.6371,2.3979,2.125,1.7995,1.4702,1.2223,0.9867,0.8733,0.807,0.8111,0.8801,0.9884,1.0586,1.1416,1.243,1.3217,1.4132,1.515,1.5749,1.5903,1.6222,1.6496,1.6169,1.5801,1.5349,1.5287,1.5349,1.5542,1.5599,1.5774,1.6016,1.6182,1.6286,1.5905,1.5482,1.4359,1.3208,1.1408,1.0602,0.9061,0.7735,0.8095,0.8371,0.8673,0.8711,0.9078,0.927,0.9506,0.9777,1.0299,1.1068,1.1768,1.2416,1.293,1.3337,1.4892,1.6757,1.7659,1.8517,1.9152,1.9886,2.061,2.0853,2.1239,2.1624,2.1989,2.2314,2.2485,2.2512,2.2392,2.2289,2.2093,2.2147,2.2173,2.198,2.1275,2.0473,1.9553,1.8498,1.6857,1.5308,1.3819,1.2397,1.1044,0.9762,0.8513,0.7546,0.7074,0.6775,0.6248,0.619,0.6691,0.7338,0.8154,0.8392,0.8512,0.7727,0.8238,0.9601,1.1971,1.4945,1.8516,2.0679,2.2115,2.3047,2.4793,2.6,2.6542,2.6835,2.7359,2.7728,2.711,2.6447,2.5501,2.4066,2.2048,1.9826,1.717,1.4795,1.2454,1.0411,0.9253,0.8306,0.8359,0.8737,0.9531,1.0482,1.1523,1.2532,1.3373,1.391,1.4661,1.5303,1.5858,1.6084,1.6146,1.6295,1.5999,1.5434,1.4997,1.4967,1.5007,1.5271,1.5377,1.5497,1.5539,1.5796,1.6129,1.5503,1.459,1.3331,1.2347,1.1861,1.144,1.0854,0.9701,0.9781,0.9403,0.9195,0.9484,0.977,0.9981,1.0077,1.0279,1.0549,1.1327,1.2015,1.2588,1.3163,1.4348,1.6002,1.7161,1.7918,1.8577,1.9163,1.9879,2.0399,2.0801,2.0824,2.1063,2.1302,2.124,2.1596,2.2298,2.211,2.1795,2.1609,2.1352,2.1284,2.1297,2.0925,2.0091,1.952,1.8574,1.6893,1.5151,1.3713,1.2427,1.1491,1.0207,0.871,0.8163,0.7974,0.7732,0.7521,0.7543,0.7686,0.7991,0.8502,0.9195,0.912,0.8718,0.9255,1.0864,1.4066,1.677,1.8739,1.994,2.0945,2.2103,2.27,2.3467,2.3863,2.3597,2.3641,2.3229,2.248,2.1809,2.0907,2.0068,1.8239,1.6409,1.4498,1.2381,1.0997,0.9719,0.8885,0.8526,0.8671,0.9542,1.0438,1.136,1.2584,1.3703,1.4655,1.5012,1.5385,1.5953,1.618,1.6246,1.6238,1.6226,1.5996,1.5565,1.5111,1.4907,1.4897,1.508,1.5033,1.5562,1.5903,1.6096,1.6305,1.5934,1.4847,1.3723,1.2752,1.2687,1.25,1.1982,1.1686,1.174,1.1385,1.0903,1.0658,1.0773,1.0942,1.093,1.1058,1.1327,1.1929,1.2564,1.3138,1.3879,1.5223,1.6788,1.775,1.8422,1.9099,1.9687,1.987,2.0388,2.028,2.0412,2.0542,2.0624,2.0425,2.0716,2.146,2.1471,2.1135,2.0801,2.0398,2.0466,2.0436,2.0186,1.9781,1.921,1.8253,1.6541,1.4907,1.3583,1.237,1.1176,1.0021,0.8791,0.8449,0.8371,0.8698,0.8606,0.8586,0.8656,0.8667,0.8701,1.1005,1.1005,1.0895,1.1609,1.3275,1.5716,1.7679,1.9163,1.99,2.071,2.1314,2.1449,2.1636,2.1828,2.1261,2.0772,2.0553,1.9833,1.912,1.8243,1.684,1.5936,1.4396,1.2962,1.154,1.0296,0.9531,0.8922,0.8801,0.9269,1.0077,1.1223,1.2292,1.3529,1.4721,1.5703,1.657,1.6802,1.6907,1.6765,1.6682,1.6496,1.6348,1.6415,1.6115,1.5778,1.5284,1.5321,1.5393,1.5388,1.6014,1.615,1.6211,1.6218,1.5779,1.4758,1.4037,1.3489,1.3464,1.3464,1.3123,1.3055,1.3374,1.3439,1.2961,1.2535,1.235,1.2155,1.1958,1.1843,1.2272,1.2711,1.3212,1.3814,1.4984,1.6125,1.7221,1.8237,1.9066,1.9837,2.0161,2.0127,2.0144,2.0036,1.9985,2.0189,2.013,1.9883,2.0196,2.093,2.0625,2.0123,1.9712,1.9389,1.9477,1.9547,1.9281,1.8998,1.8627,1.758,1.604,1.471,1.339,1.2027,1.0723,0.9729,0.8844,0.8697,0.8657,0.8893,0.8932,0.8672,0.85,0.8448,0.8542,1.3377,1.368,1.373,1.4526,1.6139,1.6694,1.7997,1.979,2.0372,2.0805,2.0832,2.0678,2.0605,2.043,1.9697,1.9108,1.884,1.8253,1.7663,1.6697,1.6218,1.522,1.3947,1.2473,1.1528,1.0481,0.9783,0.9411,0.9174,0.9632,1.0573,1.1787,1.2521,1.3813,1.5657,1.6486,1.7522,1.8711,1.8371,1.8039,1.7697,1.7246,1.6793,1.7318,1.7375,1.7264,1.6664,1.6534,1.6622,1.6519,1.6475,1.6482,1.648,1.6172,1.5525,1.4997,1.4577,1.4439,1.4423,1.4418,1.4411,1.4339,1.4521,1.4793,1.4406,1.3573,1.317,1.3226,1.3137,1.2952,1.3171,1.3481,1.3939,1.4629,1.5616,1.6714,1.7655,1.8739,1.9837,2.0468,2.0542,2.0525,2.0309,2.0201,1.9918,2.0069,1.9677,1.9312,1.9206,1.9897,1.9601,1.886,1.8446,1.8193,1.843,1.8434,1.8263,1.8035,1.7836,1.7133,1.5789,1.4416,1.3135,1.19,1.0681,0.9841,0.9137,0.8893,0.8664,0.8644,0.8618,0.8441,0.8357,0.8229,0.843,1.479,1.5549,1.5572,1.6169,1.6838,1.7479,1.8171,1.9104,2.0023,2.0641,2.0834,2.0508,2.002,1.9395,1.8926,1.8386,1.7933,1.762,1.6941,1.6669,1.617,1.5286,1.4033,1.3065,1.2001,1.1171,1.0525,0.9936,0.9681,1.0161,1.0954,1.1836,1.2893,1.4687,1.644,1.7218,1.8408,1.9936,2.0283,1.9707,1.9307,1.846,1.7888,1.807,1.805,1.7986,1.7455,1.7064,1.7022,1.6922,1.7099,1.7308,1.761,1.6938,1.6539,1.6204,1.5679,1.5589,1.5593,1.5478,1.5336,1.548,1.5602,1.5596,1.5283,1.444,1.4024,1.4228,1.4225,1.409,1.4139,1.4327,1.4715,1.5472,1.6228,1.7204,1.8108,1.9315,2.0577,2.0759,2.0832,2.0706,2.049,2.0206,1.994,1.955,1.8973,1.8411,1.7847,1.8,1.7952,1.7398,1.6987,1.6864,1.7219,1.7342,1.7194,1.712,1.6947,1.6196,1.5458,1.403,1.2636,1.1756,1.074,0.9798,0.9079,0.8779,0.8588,0.8472,0.8232,0.8088,0.7997,0.7931,0.8277,1.6352,1.7208,1.7056,1.7196,1.7627,1.8006,1.8496,1.917,1.996,2.0489,2.0644,2.0177,1.9548,1.8975,1.8583,1.8294,1.7946,1.7569,1.7282,1.6944,1.6484,1.5725,1.477,1.3722,1.2883,1.1954,1.1022,1.0414,1.0196,1.0681,1.1455,1.2498,1.393,1.5327,1.6999,1.8044,1.9018,2.0485,2.1499,2.1425,2.0629,1.9698,1.8863,1.8854,1.8896,1.8701,1.8308,1.7891,1.79,1.7896,1.8082,1.8073,1.817,1.7864,1.7485,1.7096,1.6702,1.6623,1.6781,1.6616,1.6258,1.6203,1.6292,1.6161,1.5779,1.5051,1.4911,1.5057,1.4962,1.4828,1.5091,1.5362,1.5951,1.6669,1.7145,1.7913,1.8839,1.9991,2.0616,2.0724,2.0779,2.0762,2.0494,2.0035,1.9686,1.8933,1.8262,1.7185,1.6673,1.615,1.6034,1.573,1.5313,1.5533,1.6131,1.6177,1.6083,1.5996,1.5932,1.5619,1.4989,1.345,1.217,1.1092,1.0208,0.9505,0.8886,0.8453,0.8269,0.8081,0.79,0.7675,0.7663,0.764,0.7842,1.7893,1.853,1.8226,1.8173,1.8313,1.8429,1.8834,1.9487,2.0039,2.0333,2.0333,1.9706,1.9353,1.8928,1.8736,1.8559,1.8364,1.8266,1.7934,1.7465,1.6992,1.6121,1.5253,1.451,1.3565,1.2641,1.1703,1.1344,1.1086,1.1784,1.2652,1.3752,1.4753,1.5894,1.7503,1.8532,1.9353,2.0395,2.1186,2.1567,2.1116,2.0652,2.0151,1.9969,1.9735,1.9532,1.9075,1.8823,1.8854,1.8971,1.9049,1.9069,1.8926,1.8795,1.8391,1.8047,1.7613,1.7586,1.76,1.7313,1.6889,1.6551,1.6569,1.6319,1.5914,1.5733,1.5695,1.567,1.5571,1.5686,1.5974,1.6425,1.6946,1.7339,1.7881,1.8356,1.9364,2.0257,2.0473,2.0671,2.0602,2.0584,2.0214,1.9847,1.9107,1.8294,1.7302,1.6186,1.5306,1.4832,1.449,1.3933,1.3347,1.3887,1.4646,1.496,1.4818,1.4729,1.463,1.4787,1.4405,1.2631,1.1182,1.0207,0.9376,0.8856,0.8386,0.7882,0.7732,0.7633,0.75,0.7345,0.7323,0.7356,0.7387,1.8529,1.9407,1.9436,1.9277,1.9059,1.9075,1.9152,1.9231,1.9942,2.002,1.9784,1.9571,1.9017,1.7957,1.868,1.8744,1.8601,1.8665,1.8434,1.7887,1.7317,1.6365,1.5481,1.4691,1.4066,1.3273,1.2572,1.2513,1.2395,1.3099,1.384,1.4508,1.5636,1.6589,1.747,1.8334,1.8967,1.9856,2.0223,2.0474,2.1407,2.1287,2.142,2.0854,1.9861,1.9684,1.9389,1.9226,1.9334,1.9588,1.9883,1.9947,1.979,1.9534,1.9195,1.8762,1.8398,1.8223,1.8064,1.7646,1.7121,1.6824,1.6696,1.6211,1.5886,1.5734,1.5794,1.5984,1.595,1.6121,1.6459,1.704,1.7604,1.7575,1.7866,1.8478,1.9157,1.977,2.0093,2.0172,2.0142,1.9915,1.9516,1.8953,1.8414,1.7416,1.6046,1.4977,1.393,1.3401,1.2958,1.2474,1.1871,1.1984,1.2685,1.3521,1.3616,1.3409,1.3314,1.3369,1.2821,1.1466,1.0155,0.9066,0.8701,0.83,0.7851,0.7387,0.7247,0.7182,0.7106,0.6998,0.6987,0.7095,0.7139]},{"header":{"parameterUnit":"m.s-1","parameterCategory":1,"la1":31.0,"la2":29.5877,"lo1":-88.7671,"lo2":-86.6584,"dy":0.0162,"dx":0.0185,"nx":115,"ny":88,"refTime":"2024-07-05T12:00:00:Z","depth":0,"parameterNumber":3,"parameterNumberName":"V-component_of_WINDS"},"data":[0.0,0.0,0.0,0.0,0.0,0.0,0.0,0.0,0.0,0.0,0.0,0.0,0.0,0.0,0.0,0.0,0.0,0.0,0.0,0.0,0.0,0.0,0.0,0.0,0.0,0.0,0.0,0.0,0.0,0.0,0.0,0.0,0.0,0.0,0.0,0.0,0.0,0.0,0.0,0.0,0.0,0.0,0.0,0.0,0.0,0.0,0.0,0.0,0.0,0.0,0.0,0.0,0.0,0.0,0.0,0.0,0.0,0.0,0.0,0.0,0.0,0.0,0.0,0.0,0.0,0.0,0.0,0.0,0.0,0.0,0.0,0.0,0.0,0.0,0.0,0.0,0.0,0.0,0.0,0.0,0.0,0.0,0.0,0.0,0.0,0.0,0.0,0.0,0.0,0.0,0.0,0.0,0.0,0.0,0.0,0.0,0.0,0.0,0.0,0.0,0.0,0.0,0.0,0.0,0.0,0.0,0.0,0.0,0.0,0.0,0.0,0.0,0.0,0.0,0.0,0.0,0.0,0.0,0.0,0.0,0.0,0.0,0.0,0.0,0.0,0.0,0.0,0.0,0.0,0.0,0.0,0.0,0.0,0.0,0.0,0.0,0.0,0.0,0.0,0.0,0.0,0.0,0.0,0.0,0.0,0.0,0.0,0.0,0.0,0.0,0.0,0.0,0.0,0.0,0.0,0.0,0.0,0.0,0.0,0.0,0.0,0.0,0.0,0.0,0.0,0.0,0.0,0.0,0.0,0.0,0.0,0.0,0.0,0.0,0.0,0.0,0.0,0.0,0.0,0.0,0.0,0.0,0.0,0.0,0.0,0.0,0.0,0.0,0.0,0.0,0.0,0.0,0.0,0.0,0.0,0.0,0.0,0.0,0.0,0.0,0.0,0.0,0.0,0.0,0.0,0.0,0.0,0.0,0.0,0.0,0.0,0.0,0.0,0.0,0.0,0.0,0.0,0.0,0.0,0.0,0.0,0.0,0.0,0.0,0.0,0.0,0.0,0.0,0.0,0.0,0.0,0.0,0.0,0.0,0.0,0.0,0.0,0.0,0.0,0.0,0.0,0.0,0.0,0.0,0.0,0.0,0.0,0.0,0.0,0.0,0.0,0.0,0.0,0.0,0.0,0.0,0.0,0.0,0.0,0.0,0.0,0.0,0.0,0.0,0.0,0.0,0.0,0.0,0.0,0.0,0.0,0.0,0.0,0.0,0.0,0.0,0.0,0.0,0.0,0.0,0.0,0.0,0.0,0.0,0.0,0.0,0.0,0.0,0.0,0.0,0.0,0.0,0.0,0.0,0.0,0.0,0.0,0.0,0.0,0.0,0.0,0.0,0.0,0.0,0.0,0.0,0.0,0.0,0.0,0.0,0.0,0.0,0.0,0.0,0.0,0.0,0.0,0.0,0.0,0.0,0.0,0.0,0.0,0.0,0.0,0.0,0.0,0.0,0.0,0.0,0.0,0.0,0.0,0.0,0.0,0.0,0.0,0.0,0.0,0.0,0.0,0.0,0.0,0.0,0.0,0.0,0.0,0.0,0.0,0.0,0.0,0.0,0.0,0.0,0.0,0.0,0.0,0.0,0.0,0.0,0.0,0.0,0.0,0.0,0.0,0.0,0.0,0.0,0.0,0.0,0.0,0.0,0.0,0.0,0.0,0.0,0.0,0.0,0.0,0.0,0.0,0.0,0.0,0.0,0.0,0.0,0.0,0.0,0.0,0.0,0.0,0.0,0.0,0.0,0.0,0.0,0.0,0.0,0.0,0.0,0.0,0.0,0.0,0.0,0.0,0.0,0.0,0.0,0.0,0.0,0.0,0.0,0.0,0.0,0.0,0.0,0.0,0.0,0.0,0.0,0.0,0.0,0.0,0.0,0.0,0.0,0.0,0.0,0.0,0.0,0.0,0.0,0.0,0.0,0.0,0.0,0.0,0.0,0.0,0.0,0.0,0.0,0.0,0.0,0.0,0.0,0.0,0.0,0.0,0.0,0.0,0.0,0.0,0.0,0.0,0.0,0.0,0.0,0.0,0.0,0.0,0.0,0.0,0.0,0.0,0.0,0.0,0.0,0.0,0.0,0.0,0.0,0.0,0.0,0.0,0.0,0.0,0.0,0.0,0.0,0.0,0.0,0.0,0.0,0.0,0.0,0.0,0.0,0.0,0.0,0.0,0.0,0.0,0.0,0.0,0.0,0.0,0.0,0.0,0.0,0.0,0.0,0.0,0.0,0.0,0.0,0.0,0.0,0.0,0.0,0.0,0.0,0.0,0.0,0.0,0.0,0.0,0.0,0.0,0.0,0.0,0.0,0.0,0.0,0.0,0.0,0.0,0.0,0.0,0.0,0.0,0.0,0.0,0.0,0.0,0.0,0.0,0.0,0.0,0.0,0.0,0.0,0.0,0.0,0.0,0.0,0.0,0.0,0.0,0.0,0.0,0.0,0.0,0.0,0.0,0.0,0.0,0.0,0.0,0.0,0.0,0.0,0.0,0.0,0.0,0.0,0.0,0.0,0.0,0.0,0.0,0.0,0.0,0.0,0.0,0.0,0.0,0.0,0.0,0.0,0.0,0.0,0.0,0.0,0.0,0.0,0.0,0.0,0.0,0.0,0.0,0.0,0.0,0.0,0.0,0.0,0.0,0.0,0.0,0.0,0.0,0.0,0.0,0.0,0.0,0.0,0.0,0.0,0.0,0.0,0.0,0.0,0.0,0.0,0.0,0.0,0.0,0.0,0.0,0.0,0.0,0.0,0.0,0.0,0.0,0.0,0.0,0.0,0.0,0.0,0.0,0.0,0.0,0.0,0.0,0.0,0.0,0.0,0.0,0.0,0.0,0.0,0.0,0.0,0.0,0.0,0.0,0.0,0.0,0.0,0.0,0.0,0.0,0.0,0.0,0.0,0.0,0.0,0.0,0.0,0.0,0.0,0.0,0.0,0.0,0.0,0.0,0.0,0.0,0.0,0.0,0.0,0.0,0.0,0.0,0.0,0.0,0.0,0.0,0.0,0.0,0.0,0.0,0.0,0.0,0.0,0.0,0.0,0.0,0.0,0.0,0.0,0.0,0.0,0.0,0.0,0.0,0.0,0.0,0.0,0.0,0.0,0.0,0.0,0.0,0.0,0.0,0.0,0.0,0.0,0.0,0.0,0.0,0.0,0.0,0.0,0.0,0.0,0.0,0.0,0.0,0.0,0.0,0.0,0.0,0.0,0.0,0.0,0.0,0.0,0.0,0.0,0.0,0.0,0.0,0.0,0.0,0.0,0.0,0.0,0.0,0.0,0.0,0.0,0.0,0.0,0.0,0.0,0.0,0.0,0.0,0.0,0.0,0.0,0.0,0.0,0.0,0.0,0.0,0.0,0.0,0.0,0.0,0.0,0.0,0.0,0.0,0.0,0.0,0.0,0.0,0.0,0.0,0.0,0.0,0.0,0.0,0.0,0.0,0.0,0.0,0.0,0.0,0.0,0.0,0.0,0.0,0.0,0.0,0.0,0.0,0.0,0.0,0.0,0.0,0.0,0.0,0.0,0.0,0.0,0.0,0.0,0.0,0.0,0.0,0.0,0.0,0.0,0.0,0.0,0.0,0.0,0.0,0.0,0.0,0.0,0.0,0.0,0.0,0.0,0.0,0.0,0.0,0.0,0.0,0.0,0.0,0.0,0.0,0.0,0.0,0.0,0.0,0.0,0.0,0.0,0.0,0.0,0.0,0.0,0.0,0.0,0.0,0.0,0.0,0.0,0.0,0.0,0.0,0.0,0.0,0.0,0.0,0.0,0.0,0.0,0.0,0.0,0.0,0.0,0.0,0.0,0.0,0.0,0.0,0.0,0.0,0.0,0.0,0.0,0.0,0.0,0.0,0.0,0.0,0.0,0.0,0.0,0.0,0.0,0.0,0.0,0.0,0.0,0.0,0.0,0.0,0.0,0.0,0.0,0.0,0.0,0.0,0.0,0.0,0.0,0.0,0.0,0.0,0.0,0.0,0.0,0.0,0.0,0.0,0.0,0.0,0.0,0.0,0.0,0.0,0.0,0.0,0.0,0.0,0.0,0.0,0.0,0.0,0.0,0.0,0.0,0.0,0.0,0.0,0.0,0.0,0.0,0.0,0.0,0.0,0.0,0.0,0.0,0.0,0.0,0.0,0.0,0.0,0.0,0.0,0.0,0.0,0.0,0.0,0.0,0.0,0.0,0.0,0.0,0.0,0.0,0.0,0.0,0.0,0.0,0.0,0.0,0.0,0.0,0.0,0.0,0.0,0.0,0.0,0.0,-2.8145,0.0,0.0,0.0,0.0,0.0,0.0,0.0,0.0,0.0,0.0,0.0,0.0,0.0,0.0,0.0,0.0,0.0,0.0,0.0,0.0,0.0,0.0,0.0,0.0,0.0,0.0,0.0,0.0,0.0,0.0,0.0,0.0,0.0,0.0,0.0,0.0,0.0,0.0,0.0,0.0,0.0,0.0,0.0,0.0,0.0,0.0,0.0,0.0,0.0,0.0,0.0,0.0,0.0,0.0,0.0,0.0,0.0,0.0,0.0,0.0,0.0,0.0,0.0,0.0,0.0,0.0,0.0,0.0,0.0,0.0,0.0,0.0,0.0,0.0,0.0,0.0,0.0,0.0,0.0,0.0,0.0,0.0,0.0,0.0,0.0,0.0,0.0,0.0,0.0,0.0,0.0,0.0,0.0,0.0,0.0,0.0,0.0,0.0,0.0,0.0,0.0,0.0,0.0,0.0,0.0,0.0,0.0,0.0,0.0,0.0,-3.0017,-2.9853,-3.0327,-2.9783,-2.8171,0.0,0.0,0.0,0.0,0.0,0.0,0.0,0.0,0.0,0.0,0.0,0.0,0.0,0.0,0.0,0.0,0.0,0.0,0.0,0.0,0.0,0.0,0.0,0.0,0.0,0.0,0.0,0.0,0.0,0.0,0.0,0.0,0.0,0.0,0.0,0.0,0.0,0.0,0.0,0.0,0.0,0.0,0.0,0.0,0.0,0.0,0.0,0.0,0.0,0.0,0.0,0.0,0.0,0.0,0.0,0.0,0.0,0.0,0.0,0.0,0.0,0.0,0.0,0.0,0.0,0.0,0.0,0.0,0.0,0.0,0.0,0.0,0.0,0.0,0.0,0.0,0.0,0.0,0.0,0.0,0.0,0.0,0.0,0.0,0.0,0.0,0.0,0.0,0.0,0.0,0.0,0.0,0.0,0.0,0.0,0.0,0.0,0.0,0.0,0.0,0.0,0.0,0.0,0.0,0.0,0.0,0.0,0.0,0.0,0.0,0.0,0.0,-2.9901,-2.9515,-2.8138,0.0,0.0,0.0,0.0,0.0,0.0,0.0,0.0,0.0,0.0,0.0,0.0,0.0,0.0,0.0,0.0,0.0,0.0,0.0,0.0,0.0,0.0,0.0,0.0,0.0,0.0,0.0,0.0,0.0,0.0,0.0,0.0,0.0,0.0,0.0,0.0,0.0,0.0,0.0,0.0,0.0,0.0,0.0,0.0,0.0,0.0,0.0,0.0,0.0,0.0,0.0,0.0,0.0,0.0,0.0,0.0,0.0,0.0,0.0,0.0,0.0,0.0,0.0,0.0,0.0,0.0,0.0,0.0,0.0,0.0,0.0,0.0,0.0,0.0,0.0,0.0,0.0,0.0,0.0,0.0,0.0,0.0,0.0,0.0,0.0,0.0,0.0,0.0,0.0,0.0,0.0,0.0,0.0,0.0,0.0,0.0,0.0,0.0,0.0,0.0,0.0,0.0,0.0,0.0,0.0,0.0,0.0,0.0,0.0,0.0,-2.8464,-3.0113,-2.95,0.0,-2.8001,0.0,0.0,0.0,0.0,0.0,0.0,0.0,0.0,0.0,0.0,0.0,0.0,0.0,0.0,0.0,0.0,0.0,0.0,0.0,0.0,0.0,0.0,0.0,0.0,0.0,0.0,0.0,0.0,0.0,0.0,0.0,0.0,0.0,0.0,0.0,0.0,0.0,0.0,0.0,0.0,0.0,0.0,0.0,0.0,0.0,0.0,0.0,0.0,0.0,0.0,0.0,0.0,0.0,0.0,0.0,0.0,0.0,0.0,0.0,0.0,0.0,0.0,0.0,0.0,0.0,0.0,0.0,0.0,0.0,0.0,0.0,0.0,0.0,0.0,0.0,0.0,0.0,0.0,0.0,0.0,0.0,0.0,0.0,0.0,0.0,0.0,0.0,0.0,0.0,0.0,0.0,0.0,0.0,0.0,0.0,0.0,0.0,0.0,0.0,0.0,0.0,0.0,0.0,0.0,0.0,0.0,0.0,0.0,0.0,0.0,-2.6919,-2.7788,-2.7611,-2.7449,0.0,0.0,0.0,0.0,0.0,0.0,0.0,0.0,0.0,0.0,0.0,0.0,0.0,0.0,0.0,0.0,0.0,0.0,0.0,0.0,0.0,0.0,0.0,0.0,0.0,0.0,0.0,0.0,0.0,0.0,0.0,0.0,0.0,0.0,0.0,0.0,0.0,0.0,0.0,0.0,0.0,0.0,0.0,0.0,0.0,0.0,0.0,0.0,0.0,0.0,0.0,0.0,0.0,0.0,0.0,0.0,0.0,0.0,0.0,0.0,0.0,0.0,0.0,0.0,0.0,0.0,0.0,0.0,0.0,0.0,0.0,0.0,0.0,0.0,0.0,0.0,0.0,0.0,0.0,0.0,0.0,0.0,0.0,0.0,0.0,0.0,0.0,0.0,0.0,0.0,0.0,0.0,0.0,0.0,0.0,0.0,0.0,0.0,0.0,0.0,0.0,0.0,0.0,0.0,0.0,0.0,0.0,0.0,0.0,0.0,-2.5144,-2.5672,-2.6077,-2.6289,-2.6431,-2.6545,0.0,0.0,0.0,0.0,0.0,0.0,0.0,0.0,0.0,0.0,0.0,0.0,0.0,0.0,0.0,0.0,0.0,0.0,0.0,0.0,0.0,0.0,0.0,0.0,0.0,0.0,0.0,0.0,0.0,0.0,0.0,0.0,0.0,0.0,0.0,0.0,0.0,0.0,0.0,0.0,0.0,0.0,0.0,0.0,0.0,0.0,0.0,0.0,0.0,0.0,0.0,0.0,0.0,0.0,0.0,0.0,0.0,0.0,0.0,0.0,0.0,0.0,0.0,0.0,0.0,0.0,0.0,0.0,0.0,0.0,0.0,0.0,0.0,0.0,0.0,0.0,0.0,0.0,0.0,0.0,0.0,0.0,0.0,0.0,0.0,0.0,0.0,0.0,0.0,0.0,0.0,0.0,0.0,0.0,0.0,0.0,0.0,0.0,0.0,0.0,0.0,0.0,0.0,0.0,0.0,0.0,0.0,0.0,-2.5356,-2.4933,-2.5107,-2.6034,-2.6124,-2.6143,0.0,0.0,0.0,0.0,0.0,0.0,0.0,0.0,0.0,0.0,0.0,0.0,0.0,0.0,0.0,0.0,0.0,0.0,0.0,0.0,0.0,0.0,0.0,0.0,0.0,0.0,0.0,0.0,0.0,0.0,0.0,0.0,0.0,0.0,0.0,0.0,0.0,0.0,0.0,0.0,0.0,0.0,0.0,0.0,0.0,0.0,0.0,0.0,0.0,0.0,0.0,0.0,0.0,0.0,0.0,0.0,0.0,0.0,0.0,0.0,0.0,0.0,0.0,0.0,0.0,0.0,0.0,0.0,0.0,0.0,0.0,0.0,0.0,0.0,0.0,0.0,0.0,0.0,0.0,0.0,0.0,0.0,0.0,0.0,0.0,0.0,0.0,0.0,0.0,0.0,0.0,0.0,0.0,0.0,0.0,0.0,0.0,0.0,0.0,0.0,0.0,0.0,0.0,0.0,0.0,0.0,0.0,0.0,0.0,-2.3842,-2.4293,-2.4789,-2.5257,-2.528,-2.5329,0.0,0.0,0.0,0.0,0.0,0.0,0.0,0.0,0.0,0.0,0.0,0.0,0.0,0.0,0.0,0.0,0.0,0.0,0.0,0.0,0.0,0.0,0.0,0.0,0.0,0.0,0.0,0.0,0.0,0.0,0.0,0.0,0.0,0.0,0.0,0.0,0.0,0.0,0.0,0.0,0.0,0.0,0.0,0.0,0.0,0.0,0.0,0.0,0.0,0.0,0.0,0.0,0.0,0.0,0.0,0.0,0.0,0.0,0.0,0.0,0.0,0.0,0.0,0.0,0.0,0.0,0.0,0.0,0.0,0.0,0.0,0.0,0.0,0.0,0.0,0.0,0.0,0.0,0.0,0.0,0.0,0.0,0.0,0.0,0.0,0.0,0.0,0.0,0.0,0.0,0.0,0.0,0.0,0.0,0.0,0.0,0.0,0.0,0.0,0.0,0.0,0.0,0.0,0.0,0.0,0.0,0.0,0.0,0.0,-2.2996,0.0,-2.4591,-2.4731,-2.4738,-2.4775,0.0,0.0,0.0,0.0,0.0,0.0,0.0,0.0,0.0,0.0,0.0,0.0,0.0,0.0,0.0,0.0,0.0,0.0,0.0,0.0,0.0,0.0,0.0,0.0,0.0,0.0,0.0,0.0,0.0,0.0,0.0,0.0,0.0,0.0,0.0,0.0,0.0,0.0,0.0,0.0,0.0,0.0,0.0,0.0,0.0,0.0,0.0,0.0,0.0,0.0,0.0,0.0,0.0,0.0,0.0,0.0,0.0,0.0,0.0,0.0,0.0,0.0,0.0,0.0,0.0,0.0,0.0,0.0,0.0,0.0,0.0,0.0,0.0,0.0,0.0,0.0,0.0,0.0,0.0,0.0,0.0,0.0,0.0,0.0,0.0,0.0,0.0,0.0,0.0,0.0,0.0,0.0,0.0,0.0,0.0,0.0,0.0,0.0,0.0,0.0,0.0,0.0,0.0,0.0,0.0,0.0,0.0,0.0,-2.1954,-2.3061,-2.4062,-2.4607,-2.4607,-2.4623,-2.4623,0.0,0.0,0.0,0.0,0.0,0.0,0.0,0.0,0.0,0.0,0.0,0.0,0.0,0.0,0.0,0.0,0.0,0.0,0.0,0.0,0.0,0.0,0.0,0.0,0.0,0.0,0.0,0.0,0.0,0.0,0.0,0.0,0.0,0.0,0.0,0.0,0.0,0.0,0.0,0.0,0.0,0.0,0.0,0.0,0.0,0.0,0.0,0.0,0.0,0.0,0.0,0.0,0.0,0.0,0.0,0.0,0.0,0.0,0.0,0.0,0.0,0.0,0.0,0.0,0.0,0.0,0.0,0.0,0.0,0.0,0.0,0.0,0.0,0.0,0.0,0.0,0.0,0.0,0.0,0.0,0.0,0.0,0.0,0.0,0.0,0.0,0.0,0.0,0.0,0.0,0.0,0.0,0.0,0.0,0.0,0.0,0.0,0.0,0.0,0.0,0.0,0.0,0.0,0.0,0.0,0.0,0.0,0.0,0.0,-2.213,-2.3698,-2.4591,-2.4654,-2.476,-2.4818,0.0,0.0,0.0,0.0,0.0,0.0,0.0,0.0,0.0,0.0,0.0,0.0,0.0,0.0,0.0,0.0,0.0,0.0,0.0,0.0,0.0,0.0,0.0,0.0,0.0,0.0,0.0,0.0,0.0,0.0,0.0,0.0,0.0,0.0,0.0,0.0,0.0,0.0,0.0,0.0,0.0,0.0,0.0,0.0,0.0,0.0,0.0,0.0,0.0,0.0,0.0,0.0,0.0,0.0,0.0,0.0,0.0,0.0,0.0,0.0,0.0,0.0,0.0,0.0,0.0,0.0,0.0,0.0,0.0,0.0,0.0,0.0,0.0,0.0,0.0,0.0,0.0,0.0,0.0,0.0,0.0,0.0,0.0,0.0,0.0,0.0,0.0,0.0,0.0,0.0,0.0,0.0,0.0,0.0,0.0,0.0,0.0,0.0,0.0,0.0,0.0,0.0,0.0,0.0,0.0,0.0,0.0,0.0,0.0,-2.1534,-2.3466,-2.457,-2.4783,-2.4888,-2.4968,-2.4981,0.0,0.0,0.0,0.0,0.0,0.0,0.0,0.0,0.0,0.0,0.0,0.0,0.0,0.0,0.0,0.0,0.0,0.0,0.0,0.0,0.0,0.0,0.0,0.0,0.0,0.0,0.0,0.0,0.0,0.0,0.0,0.0,0.0,0.0,0.0,0.0,0.0,0.0,0.0,0.0,0.0,0.0,0.0,0.0,0.0,0.0,0.0,0.0,0.0,0.0,0.0,0.0,0.0,0.0,0.0,0.0,0.0,0.0,0.0,0.0,0.0,0.0,0.0,0.0,0.0,0.0,0.0,0.0,0.0,0.0,0.0,0.0,0.0,0.0,0.0,0.0,0.0,0.0,0.0,0.0,0.0,0.0,0.0,0.0,0.0,0.0,0.0,0.0,0.0,0.0,0.0,0.0,0.0,0.0,0.0,0.0,0.0,0.0,0.0,0.0,0.0,0.0,0.0,0.0,0.0,0.0,0.0,0.0,-2.1054,-2.3198,-2.4451,-2.4826,-2.4892,-2.5003,0.0,0.0,0.0,0.0,0.0,0.0,0.0,0.0,0.0,0.0,0.0,0.0,0.0,0.0,0.0,0.0,0.0,0.0,0.0,0.0,0.0,0.0,0.0,0.0,0.0,0.0,0.0,0.0,0.0,0.0,0.0,0.0,0.0,0.0,0.0,0.0,0.0,0.0,0.0,0.0,0.0,0.0,0.0,0.0,0.0,0.0,0.0,0.0,0.0,0.0,0.0,0.0,0.0,0.0,0.0,0.0,0.0,0.0,0.0,0.0,0.0,0.0,0.0,0.0,0.0,0.0,0.0,0.0,0.0,0.0,0.0,0.0,0.0,0.0,0.0,0.0,0.0,0.0,0.0,0.0,0.0,0.0,0.0,0.0,0.0,0.0,0.0,0.0,0.0,0.0,0.0,0.0,0.0,0.0,0.0,0.0,0.0,0.0,0.0,0.0,0.0,0.0,0.0,0.0,0.0,0.0,0.0,0.0,0.0,-2.0508,-2.145,-2.2564,-2.3954,-2.4213,-2.4639,0.0,0.0,0.0,0.0,0.0,0.0,0.0,0.0,0.0,0.0,0.0,0.0,0.0,0.0,0.0,0.0,0.0,0.0,0.0,0.0,0.0,0.0,0.0,0.0,0.0,0.0,0.0,0.0,0.0,0.0,0.0,0.0,0.0,0.0,0.0,0.0,0.0,0.0,0.0,0.0,0.0,0.0,0.0,0.0,0.0,0.0,0.0,0.0,0.0,0.0,0.0,0.0,0.0,0.0,0.0,0.0,0.0,0.0,0.0,0.0,0.0,0.0,0.0,0.0,0.0,0.0,0.0,0.0,0.0,0.0,0.0,0.0,0.0,0.0,0.0,0.0,0.0,0.0,0.0,0.0,0.0,0.0,0.0,0.0,0.0,0.0,0.0,0.0,0.0,0.0,0.0,0.0,0.0,0.0,0.0,0.0,0.0,0.0,0.0,0.0,0.0,0.0,0.0,0.0,0.0,0.0,0.0,0.0,-1.7409,-1.8866,-1.8947,-1.9917,-2.1795,-2.3231,-2.4215,0.0,0.0,0.0,0.0,0.0,0.0,0.0,0.0,0.0,0.0,0.0,0.0,0.0,0.0,0.0,0.0,0.0,0.0,0.0,0.0,0.0,0.0,0.0,0.0,0.0,0.0,0.0,0.0,0.0,0.0,0.0,0.0,0.0,0.0,0.0,0.0,0.0,0.0,0.0,0.0,0.0,0.0,0.0,0.0,0.0,0.0,0.0,0.0,0.0,0.0,0.0,0.0,0.0,0.0,0.0,0.0,0.0,0.0,0.0,0.0,0.0,0.0,0.0,0.0,0.0,0.0,0.0,0.0,0.0,0.0,0.0,0.0,0.0,0.0,0.0,0.0,0.0,0.0,0.0,0.0,0.0,0.0,0.0,0.0,0.0,0.0,0.0,0.0,0.0,0.0,0.0,0.0,0.0,0.0,0.0,0.0,0.0,0.0,0.0,0.0,0.0,0.0,0.0,0.0,0.0,0.0,0.0,0.0,-1.5526,-1.6636,-1.6261,-1.7029,-1.9058,-2.201,-2.3725,0.0,0.0,0.0,0.0,0.0,0.0,0.0,0.0,0.0,0.0,0.0,0.0,0.0,0.0,0.0,0.0,0.0,0.0,0.0,0.0,0.0,0.0,0.0,0.0,0.0,0.0,0.0,0.0,0.0,0.0,0.0,0.0,0.0,0.0,0.0,0.0,0.0,0.0,0.0,0.0,0.0,0.0,0.0,0.0,0.0,0.0,0.0,0.0,0.0,0.0,0.0,0.0,0.0,0.0,0.0,0.0,0.0,0.0,0.0,0.0,0.0,0.0,0.0,0.0,0.0,0.0,0.0,0.0,0.0,0.0,0.0,0.0,0.0,0.0,0.0,0.0,0.0,0.0,0.0,0.0,0.0,0.0,0.0,0.0,0.0,0.0,0.0,0.0,0.0,0.0,0.0,0.0,0.0,0.0,0.0,0.0,0.0,0.0,0.0,0.0,0.0,0.0,0.0,0.0,0.0,0.0,0.0,0.0,-1.4978,-1.4936,-1.4694,-1.5536,-1.7506,-2.0494,-2.2713,0.0,0.0,0.0,0.0,0.0,0.0,0.0,0.0,0.0,0.0,0.0,0.0,0.0,0.0,0.0,0.0,0.0,0.0,0.0,0.0,0.0,0.0,0.0,0.0,0.0,0.0,0.0,0.0,0.0,0.0,0.0,0.0,0.0,0.0,0.0,0.0,0.0,0.0,0.0,0.0,0.0,0.0,0.0,0.0,0.0,0.0,0.0,0.0,-2.158,0.0,0.0,0.0,0.0,0.0,0.0,0.0,0.0,0.0,0.0,0.0,0.0,0.0,0.0,0.0,0.0,0.0,0.0,0.0,0.0,0.0,0.0,0.0,0.0,0.0,0.0,0.0,0.0,0.0,0.0,0.0,0.0,0.0,0.0,0.0,0.0,0.0,0.0,0.0,0.0,0.0,0.0,0.0,0.0,0.0,0.0,0.0,0.0,0.0,0.0,0.0,0.0,0.0,0.0,0.0,0.0,0.0,0.0,0.0,-1.3331,-1.2677,-1.2611,-1.3495,-1.545,-1.8355,-2.0783,0.0,0.0,0.0,0.0,0.0,0.0,0.0,0.0,0.0,0.0,0.0,0.0,0.0,0.0,0.0,0.0,0.0,0.0,0.0,0.0,0.0,0.0,0.0,0.0,0.0,0.0,0.0,0.0,0.0,0.0,0.0,0.0,0.0,0.0,0.0,0.0,0.0,0.0,0.0,0.0,0.0,0.0,0.0,0.0,0.0,0.0,0.0,0.0,0.0,0.0,0.0,0.0,0.0,0.0,0.0,0.0,0.0,0.0,0.0,0.0,0.0,0.0,0.0,0.0,0.0,0.0,0.0,0.0,0.0,0.0,0.0,0.0,0.0,0.0,0.0,0.0,0.0,0.0,0.0,0.0,0.0,0.0,0.0,0.0,0.0,0.0,0.0,0.0,0.0,0.0,0.0,0.0,0.0,0.0,0.0,0.0,0.0,0.0,0.0,0.0,0.0,0.0,0.0,0.0,0.0,0.0,0.0,-1.215,-1.1465,-1.0454,-1.0482,-1.1427,-1.3283,-1.6,-1.8467,-2.0515,0.0,0.0,0.0,0.0,0.0,0.0,0.0,0.0,0.0,0.0,0.0,0.0,0.0,0.0,0.0,0.0,0.0,0.0,0.0,0.0,0.0,0.0,0.0,0.0,0.0,0.0,0.0,0.0,0.0,0.0,0.0,0.0,0.0,0.0,0.0,0.0,0.0,0.0,-1.5296,-1.6436,0.0,0.0,0.0,0.0,0.0,0.0,0.0,0.0,-2.0767,0.0,0.0,0.0,0.0,0.0,0.0,0.0,0.0,0.0,0.0,0.0,0.0,0.0,0.0,0.0,0.0,0.0,0.0,0.0,0.0,0.0,0.0,0.0,0.0,0.0,0.0,0.0,0.0,0.0,0.0,0.0,0.0,0.0,0.0,0.0,0.0,0.0,0.0,0.0,0.0,0.0,0.0,0.0,0.0,0.0,0.0,0.0,0.0,0.0,0.0,0.0,0.0,0.0,0.0,0.0,0.0,-0.9969,-1.0639,-1.0355,-0.9055,-0.9001,-0.994,-1.1957,-1.4006,-1.6209,-1.8596,0.0,0.0,0.0,0.0,0.0,0.0,0.0,0.0,0.0,0.0,0.0,0.0,0.0,0.0,0.0,0.0,0.0,0.0,0.0,0.0,0.0,0.0,0.0,0.0,0.0,0.0,0.0,0.0,0.0,0.0,0.0,0.0,0.0,0.0,0.0,0.0,0.0,0.0,0.0,-1.6505,-1.6916,0.0,0.0,0.0,0.0,0.0,0.0,0.0,0.0,-1.9945,0.0,0.0,0.0,0.0,0.0,0.0,0.0,0.0,0.0,0.0,0.0,0.0,0.0,0.0,0.0,0.0,0.0,0.0,0.0,0.0,0.0,0.0,0.0,0.0,0.0,0.0,0.0,0.0,0.0,0.0,0.0,0.0,0.0,0.0,0.0,0.0,0.0,0.0,0.0,0.0,0.0,0.0,0.0,0.0,0.0,0.0,0.0,0.0,0.0,0.0,0.0,0.0,0.0,0.0,0.0,-0.8398,-0.8548,-0.8124,-0.6998,-0.7444,-0.8479,-1.0041,-1.138,-1.3056,0.0,0.0,0.0,0.0,0.0,0.0,0.0,0.0,0.0,0.0,0.0,0.0,0.0,0.0,0.0,0.0,0.0,0.0,0.0,0.0,0.0,0.0,0.0,0.0,0.0,0.0,0.0,0.0,0.0,0.0,0.0,0.0,0.0,0.0,0.0,0.0,0.0,0.0,0.0,0.0,-1.637,-1.6205,-1.7099,0.0,0.0,0.0,0.0,0.0,0.0,-1.9613,-2.0679,0.0,0.0,0.0,0.0,0.0,0.0,0.0,0.0,0.0,0.0,0.0,0.0,0.0,0.0,0.0,0.0,0.0,0.0,0.0,0.0,0.0,0.0,0.0,0.0,0.0,0.0,0.0,0.0,0.0,0.0,0.0,0.0,0.0,0.0,0.0,0.0,0.0,0.0,0.0,0.0,0.0,0.0,0.0,0.0,0.0,0.0,0.0,0.0,0.0,0.0,0.0,0.0,0.0,0.0,0.0,-0.6935,-0.6417,-0.5749,-0.4998,-0.5832,-0.6877,-0.8001,-0.9095,-1.0056,0.0,0.0,0.0,0.0,0.0,0.0,0.0,0.0,0.0,0.0,0.0,0.0,0.0,0.0,0.0,0.0,0.0,0.0,0.0,0.0,0.0,0.0,0.0,0.0,0.0,0.0,0.0,0.0,0.0,0.0,0.0,0.0,0.0,0.0,0.0,0.0,0.0,0.0,0.0,0.0,0.0,-1.6034,-1.6686,-1.727,0.0,0.0,0.0,0.0,-1.8478,-1.9576,0.0,0.0,0.0,0.0,0.0,0.0,0.0,0.0,0.0,0.0,0.0,0.0,0.0,0.0,0.0,0.0,0.0,0.0,0.0,0.0,0.0,0.0,0.0,0.0,0.0,0.0,0.0,0.0,0.0,0.0,0.0,0.0,0.0,0.0,0.0,0.0,0.0,0.0,0.0,0.0,0.0,0.0,0.0,0.0,0.0,0.0,0.0,0.0,0.0,0.0,0.0,0.0,0.0,0.0,0.0,0.0,-0.5318,-0.4635,-0.4076,-0.3661,-0.4159,-0.4985,-0.6106,-0.8121,-0.7829,0.0,0.0,0.0,0.0,0.0,0.0,0.0,0.0,0.0,0.0,0.0,0.0,0.0,0.0,0.0,0.0,0.0,0.0,0.0,0.0,0.0,0.0,0.0,0.0,0.0,0.0,0.0,0.0,0.0,0.0,0.0,0.0,0.0,0.0,0.0,0.0,0.0,0.0,0.0,0.0,0.0,-1.6905,-1.801,-1.6151,-1.4964,0.0,0.0,-1.6269,-1.5735,-1.689,0.0,0.0,0.0,0.0,0.0,0.0,0.0,0.0,0.0,0.0,0.0,0.0,0.0,0.0,0.0,0.0,0.0,0.0,0.0,0.0,0.0,0.0,0.0,0.0,0.0,0.0,0.0,0.0,0.0,0.0,0.0,0.0,0.0,0.0,0.0,0.0,0.0,0.0,0.0,0.0,0.0,0.0,0.0,0.0,0.0,0.0,0.0,0.0,0.0,0.0,0.0,0.0,0.0,0.0,0.0,-0.5247,-0.4289,-0.3609,-0.3114,-0.2788,-0.314,-0.3418,-0.3721,-0.5081,-0.5598,0.0,0.0,0.0,0.0,0.0,0.0,0.0,0.0,0.0,0.0,0.0,0.0,0.0,0.0,0.0,0.0,0.0,0.0,0.0,0.0,0.0,0.0,0.0,0.0,0.0,0.0,0.0,0.0,0.0,0.0,0.0,0.0,0.0,0.0,0.0,0.0,0.0,0.0,0.0,0.0,0.0,0.0,-1.7963,-1.5292,0.0,0.0,0.0,-1.4884,-1.5453,0.0,0.0,0.0,0.0,0.0,0.0,0.0,0.0,0.0,0.0,0.0,0.0,0.0,0.0,0.0,0.0,0.0,0.0,0.0,0.0,0.0,0.0,0.0,0.0,0.0,0.0,0.0,0.0,0.0,0.0,0.0,0.0,0.0,0.0,0.0,0.0,0.0,0.0,0.0,0.0,0.0,0.0,0.0,0.0,0.0,0.0,0.0,0.0,0.0,0.0,0.0,0.0,0.0,0.0,0.0,0.0,0.0,-0.3619,-0.2977,-0.2435,-0.21,-0.2123,-0.2065,-0.1895,-0.2561,0.0,0.0,0.0,0.0,0.0,0.0,0.0,0.0,0.0,0.0,0.0,0.0,0.0,0.0,0.0,0.0,0.0,0.0,0.0,0.0,0.0,0.0,0.0,0.0,0.0,0.0,0.0,-0.8507,0.0,0.0,0.0,0.0,0.0,0.0,0.0,0.0,0.0,0.0,0.0,0.0,0.0,0.0,-1.9433,-1.8978,-1.6003,-1.3795,0.0,0.0,-1.4007,-1.5725,-1.752,-1.93,0.0,0.0,0.0,0.0,0.0,0.0,0.0,0.0,0.0,0.0,0.0,0.0,0.0,0.0,0.0,0.0,0.0,0.0,0.0,0.0,0.0,0.0,0.0,0.0,0.0,0.0,0.0,0.0,0.0,0.0,0.0,0.0,0.0,0.0,0.0,0.0,0.0,0.0,0.0,0.0,0.0,0.0,0.0,0.0,0.0,0.0,0.0,0.0,0.0,0.0,0.0,0.0,0.0,0.0,-0.3483,-0.3413,-0.2767,-0.2101,-0.1472,-0.093,-0.0843,-0.125,-0.1663,-0.219,0.0,0.0,0.0,0.0,0.0,0.0,0.0,0.0,0.0,0.0,0.0,0.0,0.0,0.0,0.0,0.0,0.0,0.0,0.0,0.0,0.0,0.0,0.0,0.0,0.0,0.0,0.0,0.0,0.0,0.0,0.0,0.0,0.0,0.0,0.0,0.0,0.0,0.0,0.0,0.0,0.0,-2.2293,-2.2185,-1.9344,-1.7442,0.0,-1.5073,-1.3704,-1.6077,-1.6251,-1.7162,-2.0402,0.0,0.0,0.0,0.0,0.0,0.0,0.0,0.0,0.0,0.0,0.0,0.0,0.0,0.0,0.0,0.0,0.0,0.0,0.0,0.0,0.0,0.0,0.0,0.0,0.0,0.0,0.0,0.0,0.3846,0.0,0.0,0.0,0.0,0.0,0.0,0.0,0.0,0.0,0.0,0.0,0.0,0.0,0.0,0.0,0.0,0.0,0.0,0.0,0.0,0.0,0.0,0.0,0.0,-0.3313,-0.2908,-0.2001,-0.1486,-0.1383,-0.0776,-0.0448,-0.0458,-0.0991,-0.161,0.0,0.0,0.0,0.0,0.0,0.0,0.0,0.0,0.0,0.0,0.0,0.0,0.0,0.0,0.0,0.0,0.0,0.0,0.0,0.0,0.0,0.0,0.0,0.0,0.0,0.0,0.0,0.0,-1.0379,-1.1188,-1.2864,0.0,0.0,0.0,0.0,0.0,0.0,0.0,0.0,0.0,0.0,-2.436,-2.5468,-2.252,0.0,0.0,-1.9484,-1.827,-1.6736,-1.7876,-1.936,-2.065,-2.22,0.0,0.0,0.0,0.0,0.0,0.0,0.0,0.0,0.0,0.0,0.0,0.0,0.0,0.0,0.0,0.0,0.0,0.0,0.0,0.0,0.0,0.0,0.0,0.0,0.0,0.0,0.0,0.5327,0.0,0.0,0.0,0.0,0.0,0.0,0.0,0.0,0.0,0.0,0.0,0.0,0.0,0.0,0.0,0.0,0.0,0.0,0.0,0.0,0.0,0.0,0.0,0.0,-0.2732,-0.2627,-0.189,-0.1326,-0.0995,-0.0516,-0.0182,-0.0016,-0.0726,-0.1368,0.0,0.0,0.0,0.0,0.0,0.0,0.0,0.0,0.0,0.0,0.0,0.0,0.0,0.0,0.0,0.0,0.0,0.0,0.0,0.0,0.0,0.0,0.0,0.0,0.0,0.0,0.0,0.0,-1.1416,-1.2335,-1.4063,0.0,0.0,0.0,0.0,0.0,0.0,0.0,0.0,0.0,0.0,-2.6422,-2.7676,-2.5691,-2.3828,-2.2992,-2.2915,-2.2029,-1.9405,-2.0346,-2.1601,-2.2187,0.0,0.0,0.0,0.0,0.0,0.0,0.0,0.0,0.0,0.0,0.0,0.0,0.0,0.0,0.0,0.0,0.0,0.0,0.0,0.0,0.0,0.0,0.0,0.0,0.0,0.0,0.0,0.6812,0.0,0.0,-0.0241,0.0,0.0,0.0,0.0,0.0,0.0,0.0,0.0,0.0,0.0,0.0,0.0,0.0,0.0,0.0,0.0,0.0,0.0,0.0,0.0,0.0,0.0,-0.1531,-0.2644,-0.2563,-0.177,0.0,0.0,0.0,0.0,-0.0898,-0.141,-0.1484,0.0,0.0,0.0,0.0,0.0,0.0,0.0,0.0,0.0,0.0,0.0,0.0,0.0,0.0,0.0,0.0,0.0,0.0,0.0,0.0,0.0,0.0,0.0,0.0,0.0,0.0,-1.1794,-1.2896,-1.4157,0.0,0.0,0.0,0.0,0.0,0.0,0.0,0.0,0.0,-2.7576,-2.8257,-2.8587,-2.8517,-2.8961,-2.8327,-2.6155,-2.4696,-2.4016,-2.45,-2.3456,-2.3202,0.0,0.0,0.0,0.0,0.0,0.0,0.0,0.0,0.0,0.0,0.0,0.0,0.0,0.0,0.0,0.0,0.0,0.0,0.0,0.0,0.0,0.0,0.0,0.0,0.0,0.0,0.0,0.5795,0.6202,0.0,0.0,0.0,0.0,0.0,0.0,0.0,0.0,0.0,0.0,0.0,-0.7348,-0.6023,0.0,0.0,0.0,0.0,0.0,0.0,0.0,0.0,0.0,0.0,0.0,0.0,-0.0497,-0.0904,-0.0911,-0.0619,0.0,0.0,0.0,0.0,-0.0311,-0.1469,-0.3558,0.0,0.0,0.0,0.0,0.0,0.0,0.0,0.0,0.0,0.0,0.0,0.0,0.0,0.0,0.0,0.0,0.0,0.0,0.0,0.0,0.0,0.0,0.0,0.0,0.0,-1.3825,0.0,0.0,0.0,0.0,0.0,0.0,0.0,0.0,0.0,0.0,-2.4877,-2.6684,-2.7733,-2.8506,-2.9098,-2.9513,-2.9665,-2.9308,0.0,0.0,0.0,0.0,0.0,0.0,0.0,0.0,0.0,0.0,0.0,0.0,0.0,0.0,-3.634,-3.5353,-3.1828,-2.8868,-2.8349,0.0,0.0,0.0,0.0,0.0,0.0,0.0,0.0,0.0,0.0,0.0,0.0,0.0,0.0,0.5678,0.5906,0.3662,0.0,0.0,0.0,0.0,0.0,0.0,0.0,0.0,-1.0764,-1.0482,-0.92,-0.7764,-0.5873,-0.3649,-0.2204,-0.09,0.0,0.0,0.0,0.0,0.0,0.0,0.0,0.0,0.0,0.0,-0.0112,-0.0273,-0.0481,-0.077,-0.0988,-0.1136,-0.0944,-0.1835,-0.3962,-0.3615,-0.3903,0.0,0.0,0.0,0.0,0.0,0.0,0.0,0.0,0.0,0.0,0.0,0.0,0.0,0.0,0.0,0.0,0.0,0.0,0.0,0.0,0.0,0.0,0.0,-1.5295,0.0,0.0,0.0,0.0,0.0,0.0,0.0,0.0,0.0,-2.3057,-2.5028,-2.6695,-2.7418,-2.8481,-2.9326,-2.9698,0.0,0.0,0.0,0.0,0.0,0.0,0.0,-2.9736,-2.9423,-3.0068,-3.0956,-3.1928,-3.2067,-3.2601,-3.4314,0.0,0.0,-3.6727,-3.3691,-3.1202,-3.1427,-3.0903,-3.0076,-2.9043,-2.8898,-2.8312,0.0,0.0,0.0,0.0,0.2532,0.0,0.0,0.0,0.5557,0.5796,0.0,0.4255,0.0,0.0,0.0,0.0,-1.2371,-1.2674,0.0,0.0,-1.3153,-1.2925,-1.1891,-0.9923,-0.8376,-0.7005,-0.2863,-0.0553,0.0021,0.0774,0.0759,0.0,0.0,0.0,0.0,0.0,0.0002,0.0,-0.0333,-0.0808,-0.142,-0.2251,-0.2957,-0.349,-0.2897,-0.2753,-0.2936,-0.4414,-0.5114,-0.523,-0.6906,0.0,0.0,0.0,0.0,0.0,0.0,0.0,0.0,0.0,0.0,0.0,0.0,0.0,0.0,0.0,0.0,0.0,0.0,0.0,0.0,-1.5718,0.0,0.0,0.0,0.0,0.0,0.0,0.0,0.0,0.0,-2.3724,-2.2574,-2.4811,-2.6612,-2.6795,0.0,0.0,0.0,0.0,-3.052,-3.0501,-3.0667,-3.1054,-3.1718,-3.189,-3.2155,-3.2685,0.0,0.0,-3.1569,-3.3682,-3.473,-3.261,-3.2797,-3.3643,-3.4913,-3.4198,-3.3601,-3.3962,-3.293,-3.2154,-3.2353,-3.1882,-3.1117,-0.3755,0.0,0.0,0.0,0.0,0.4835,0.5566,0.6084,0.576,0.6434,0.7528,0.3072,0.0,0.0,0.0,0.0,0.0,0.0,-1.5152,-1.4552,-1.5751,-1.6046,-1.5356,-1.2322,-1.0447,-0.9484,-0.4778,-0.1635,-0.0039,0.0245,0.023,0.0,0.0,0.0,0.0,0.0,0.0121,0.0304,-0.049,-0.1312,-0.2108,-0.3792,-0.5754,-0.7964,-0.764,-0.77,-0.8293,-0.855,-0.832,-0.7599,-0.8746,0.0,0.0,0.0,0.0,0.0,0.0,0.0,0.0,0.0,0.0,0.0,0.0,0.0,0.0,0.0,0.0,0.0,0.0,0.0,-1.6276,-1.6521,-1.7122,0.0,0.0,0.0,0.0,0.0,0.0,0.0,0.0,0.0,-2.4579,-2.6223,-2.7333,0.0,0.0,-3.0011,-2.9175,-2.9945,-3.0665,-3.0701,-3.1741,0.0,-3.1932,-3.2792,-3.3504,-3.3657,-3.354,-3.3309,-3.3064,-3.3374,-3.3195,-3.1893,-3.0444,-3.0092,-3.209,-3.2774,-3.3401,-3.4753,-3.4421,-3.388,-3.4274,-3.3771,-3.2862,-0.4018,-0.2147,-0.0723,0.1362,0.3745,0.4412,0.5031,0.5635,0.6463,0.6865,0.6477,0.1201,-0.3711,-0.8126,-0.884,0.0,0.0,0.0,-1.7621,-1.7381,-1.8836,-1.92,-1.8385,-1.4984,-1.2774,-1.1512,-0.6218,-0.2355,0.0,0.0,0.0,0.0,0.0,0.0,0.0,0.0,0.0052,0.0092,-0.0817,-0.1782,-0.2821,-0.5385,-0.7852,-1.0081,-1.0683,-1.1089,-1.1336,-1.1395,-1.0894,-0.9829,-1.0934,-1.1649,0.0,0.0,0.0,0.0,0.0,0.0,0.0,0.0,0.0,0.0,0.0,-1.8471,-1.8749,0.0,0.0,0.0,-1.6522,-1.6504,-1.6949,-1.7761,0.0,0.0,0.0,0.0,0.0,0.0,0.0,-2.4273,-2.5815,-2.6641,-2.6079,-2.7459,-2.8246,-2.75,-2.9062,-2.998,-2.9118,0.0,-3.0728,-3.0735,-3.1835,-3.2608,-3.2329,-3.321,-3.3897,-3.3646,-3.3375,-3.2748,-3.1864,-3.2138,-3.1859,-2.9889,-2.7809,-2.7153,-2.9413,-3.0508,-3.1903,-3.4314,-3.4285,-3.3991,-3.4587,-3.3629,-3.273,-0.4205,-0.2606,-0.0857,0.0893,0.2621,0.3492,0.4026,0.4532,0.7212,0.6719,0.3686,-0.0835,-0.4131,-0.6478,-0.9967,0.0,-1.5634,-1.8251,-1.9884,-2.0698,-2.21,-2.2294,-2.1345,-1.7682,-1.5003,-1.3142,-0.7113,-0.2748,0.0,0.0,0.0,0.0,0.0,0.0,0.0,0.0,-0.0101,-0.0413,-0.1208,-0.2346,-0.3825,-0.7118,-0.9585,-1.1074,-1.2723,-1.34,-1.3023,-1.3295,-1.301,-1.2068,-1.3262,-1.3661,-1.3027,0.0,0.0,0.0,0.0,0.0,0.0,0.0,0.0,0.0,0.0,0.0,0.0,0.0,0.0,0.0,-1.7536,0.0,-1.7768,-1.9201,0.0,0.0,0.0,-2.3203,-2.4402,-2.5416,-2.6083,-2.6289,0.0,0.0,-2.7016,-2.8405,-2.9253,-2.8592,-2.9116,-2.9433,-2.9012,-2.9962,-3.0737,-3.0616,-3.1317,-3.2113,-3.2603,-3.3255,-3.3505,-3.2932,-3.2538,-3.1434,-2.9452,-3.0172,-3.0056,-2.7136,-2.521,-2.4872,-2.6835,-2.8056,-2.9553,-3.2703,-3.2966,-3.2815,-3.3473,-3.2382,-3.152,-0.3623,-0.3041,-0.1815,-0.0346,0.1231,0.1818,0.2924,0.4424,0.5242,0.3918,0.1059,-0.0696,-0.3768,-0.7859,-1.0724,-1.3552,-1.637,-1.9026,-2.1121,-2.2762,-2.4136,-2.4613,-2.4016,-1.9399,-1.5429,-1.2069,-0.6942,-0.2902,0.0,0.0,0.0,0.0,0.0,0.0,0.0,0.0215,0.0104,-0.0327,-0.1415,-0.3731,-0.7284,-0.9829,-1.2375,-1.5029,-1.6391,-1.707,-1.699,-1.6415,-1.5519,-1.4404,-1.5115,-1.5273,-1.4652,-1.6375,0.0,0.0,0.0,0.0,0.0,0.0,0.0,0.0,0.0,-2.0653,-2.0421,0.0,-1.9092,0.0,-1.9633,-1.9212,-1.8394,-1.9898,0.0,0.0,-2.3161,-2.4264,-2.5565,-2.5929,-2.616,-2.6408,-2.6812,-2.7207,-2.7684,-2.8714,-2.9845,-3.0882,-3.0703,-2.9938,-2.8746,-2.9685,-3.0557,-3.0559,-3.1534,-3.2458,-3.24,-3.3098,-3.313,-3.1972,-3.0987,-2.9869,-2.8463,-2.7495,-2.6595,-2.5364,-2.403,-2.4005,-2.5906,-2.6767,-2.7883,-3.0023,-3.1133,-3.1953,-3.2747,-3.1607,-3.0579,-0.463,-0.3623,-0.2281,-0.104,0.0061,0.0566,0.1575,0.2825,0.2939,0.1928,0.0089,-0.1834,-0.4653,-0.8094,-1.0734,-1.336,-1.6063,-1.8552,-2.1109,-2.3562,-2.4524,-2.5039,-2.5107,-2.0427,-1.6276,-1.254,-0.7361,-0.3188,0.0,0.0,0.0,0.0,0.0,0.0474,0.1362,0.104,0.0401,-0.0467,-0.1974,-0.5251,-1.0303,-1.3505,-1.6473,-1.9319,-2.2194,-2.3681,-2.3688,-2.4441,-2.3308,-2.0132,-2.0477,-1.9635,-1.7098,-1.8512,-1.9881,0.0,0.0,0.0,0.0,0.0,0.0,0.0,0.0,0.0,0.0,0.0,-2.1279,-2.0871,-2.0678,-2.0403,-2.0082,-2.1148,-2.2379,-2.3624,-2.4317,-2.5153,-2.6276,-2.6525,-2.655,-2.6402,-2.6833,-2.734,-2.7854,-2.8734,-3.0095,-3.2085,-3.1637,-3.0718,-2.9765,-3.0374,-3.0853,-3.0163,-3.0814,-3.1363,-3.1144,-3.1627,-3.1541,-3.0128,-2.9067,-2.7913,-2.6184,-2.5178,-2.4295,-2.3351,-2.2941,-2.3254,-2.4665,-2.5912,-2.7053,-2.8112,-2.9026,-2.9802,-3.0522,-2.9148,-2.7962,-0.6029,-0.4104,-0.234,-0.1246,-0.0669,-0.0119,0.0418,0.0914,0.0883,0.061,-0.0034,-0.3148,-0.5642,-0.7654,-1.0088,-1.2648,-1.5248,-1.7393,-2.0206,-2.3369,-2.3783,-2.4263,-2.4723,-2.0752,-1.7048,-1.3558,-0.8293,-0.3919,-0.047,-0.0159,0.0,0.0,0.0,0.1069,0.3069,0.2344,0.1016,-0.0918,-0.2652,-0.6681,-1.3029,-1.7544,-2.1211,-2.4024,-2.8356,-3.0848,-3.0985,-3.3695,-3.272,-2.7593,-2.8028,-2.6022,-2.0681,-2.1765,-2.2231,0.0,-2.2216,0.0,0.0,0.0,0.0,0.0,0.0,0.0,0.0,-2.3784,-2.3491,-2.1521,-2.1517,-2.169,-2.1988,-2.2648,-2.3619,-2.4975,-2.5368,-2.5856,-2.6691,-2.6943,-2.679,-2.6214,-2.6823,-2.7385,-2.7725,-2.8463,-2.9902,-3.2237,-3.2237,-3.1611,-3.1252,-3.1424,-3.113,-2.9701,-2.9607,-2.9942,-2.9875,-2.9905,-2.9545,-2.8075,-2.716,-2.5831,-2.3544,-2.3236,-2.287,-2.1658,-2.2281,-2.3189,-2.3653,-2.5296,-2.665,-2.7302,-2.7393,-2.7442,-2.7699,-2.6022,-2.4836,-0.5564,-0.3806,-0.186,-0.0709,-0.0103,0.0415,0.0771,0.0979,0.0859,0.0476,-0.0253,-0.2164,-0.4265,-0.6511,-0.8507,-1.1253,-1.4517,-1.6072,-1.8385,-2.1334,-2.2123,-2.2399,-2.2082,-1.9355,-1.6592,-1.3807,-0.9952,-0.6214,-0.265,-0.0883,0.0,0.0,0.0,0.1069,0.3147,0.0,0.0,0.0,-0.2918,-0.7254,-1.5384,-2.0859,-2.5476,-2.9278,-3.1405,0.0,-3.4376,-3.697,-3.7004,-3.4141,-3.6596,0.0,0.0,0.0,0.0,0.0,0.0,0.0,0.0,0.0,0.0,0.0,-2.3595,-2.3727,-2.4018,-2.5422,-2.5211,-2.2681,-2.4052,-2.4516,-2.2901,-2.4043,-2.4913,-2.4968,-2.5681,-2.6255,-2.6589,-2.6095,-2.5709,-2.5809,-2.5446,-2.5754,-2.7167,-2.7662,-2.9104,-3.2067,-3.2607,-3.2645,-3.2785,-3.1966,-3.0836,-2.9522,-2.9315,-2.9502,-2.9682,-2.9314,-2.845,-2.7015,-2.5754,-2.4516,-2.295,-2.2282,-2.2113,-2.1592,-2.2481,-2.3483,-2.4447,-2.549,-2.6562,-2.7536,-2.6835,-2.6152,-2.6232,-2.3795,-2.1803,-0.563,-0.3776,-0.1789,-0.0546,0.0,0.0995,0.1495,0.1716,0.1283,0.0628,-0.0244,-0.1672,-0.3599,-0.5898,-0.7613,-1.0042,-1.2975,-1.4036,-1.6044,-1.8734,-1.8753,-1.8933,-1.92,-1.6895,-1.4531,-1.2118,-0.9723,-0.6911,-0.374,-0.2068,-0.083,0.0032,0.1483,0.2777,0.3833,0.4511,0.2665,-0.1733,-0.5173,-1.035,-1.7278,-2.5039,-3.0823,-3.4513,-3.853,0.0,0.0,0.0,0.0,0.0,0.0,0.0,0.0,0.0,0.0,-2.3394,-2.2552,-2.2232,-2.22,-2.2616,-2.3436,-2.4657,-2.5517,-2.5664,-2.5027,-2.6123,-2.6016,-2.4139,-2.5321,-2.5489,-2.3842,-2.4901,-2.5637,-2.5327,-2.6007,-2.6525,-2.6475,-2.5919,-2.5274,-2.4754,-2.4469,-2.4983,-2.6762,-2.7635,-2.9178,-3.1922,-3.2939,-3.3189,-3.307,-3.2386,-3.1147,-2.9245,-2.8593,-2.8376,-2.8209,-2.7664,-2.6864,-2.5512,-2.4471,-2.3413,-2.2149,-2.1773,-2.1569,-2.1421,-2.2382,-2.3696,-2.4454,-2.5613,-2.6545,-2.6324,-2.5077,-2.3141,-2.1673,-1.9687,-1.8399,-0.5307,-0.3548,-0.1571,-0.0276,0.0565,0.1594,0.2216,0.2498,0.181,0.0,0.0,-0.1238,-0.3041,-0.5245,-0.6859,-0.8894,-1.1188,-1.1994,-1.3624,-1.5773,-1.4983,-1.5126,-1.6016,-1.4241,-1.2362,-1.0568,-0.9817,-0.8226,-0.5781,-0.339,-0.1415,0.0169,0.3075,0.5043,0.5711,0.4905,0.306,0.0168,-0.6644,-1.2964,-1.8546,-2.8733,-3.5843,-3.9304,-4.5738,-5.0057,-5.1999,-5.5018,-5.3922,-4.8344,-4.7829,-4.3786,-3.5237,-3.3336,-3.0693,-2.647,-2.4929,-2.3891,-2.318,-2.3736,-2.449,-2.5398,-2.6869,-2.7117,-2.5646,-2.6398,-2.6467,-2.5258,-2.573,-2.5627,-2.4505,-2.5412,-2.6033,-2.5729,-2.6204,-2.6506,-2.6331,-2.5728,-2.4892,-2.4004,-2.4064,-2.4827,-2.6689,-2.7792,-2.9416,-3.1713,-3.2749,-3.3072,-3.2616,-3.1881,-3.0744,-2.887,-2.7918,-2.7234,-2.659,-2.5975,-2.5061,-2.4256,-2.3341,-2.2424,-2.1579,-2.1393,-2.1355,-2.1152,-2.2455,-2.3725,-2.4462,-2.5681,-2.6265,-2.5069,-2.2867,-2.014,-1.6686,-1.4907,-1.4104,-0.3307,-0.2464,-0.0565,0.0727,0.1628,0.2166,0.2539,0.2713,0.223,0.1634,0.0935,-0.0383,-0.2052,-0.3962,-0.5584,-0.7675,-0.9935,-1.0655,-1.1426,-1.2202,-1.191,-1.2149,-1.2824,-1.2272,-1.1803,-1.1528,-1.2661,-1.3045,-1.1698,-0.4296,-0.0206,0.0,0.3341,0.7042,1.0527,0.7742,0.5744,0.494,-0.3667,-1.1658,-1.8778,-2.9728,-3.8131,-4.3612,-4.8903,-5.3428,-5.7108,-6.1079,-6.1772,-5.8732,-5.9726,-5.5734,-4.5663,-4.1496,-3.6137,-2.8513,-2.5615,-2.4173,-2.3948,-2.4108,-2.4537,-2.5286,-2.6201,-2.6304,-2.5418,-2.6668,-2.6861,-2.5285,-2.5491,-2.5576,-2.5063,-2.561,-2.6019,-2.6028,-2.6056,-2.6056,-2.5901,-2.478,-2.4178,-2.4488,-2.4563,-2.5353,-2.7264,-2.8108,-2.9401,-3.1525,-3.2032,-3.1449,-3.0984,-2.9849,-2.8855,-2.7989,-2.7299,-2.659,-2.6023,-2.5098,-2.439,-2.3477,-2.2539,-2.1831,-2.1265,-2.136,-2.1628,-2.1971,-2.3171,-2.4311,-2.5217,-2.5647,-2.535,-2.4227,-2.137,-1.7864,-1.4154,-1.0874,-0.8639,-0.261,-0.1917,-0.009,0.1161,0.2057,0.3068,0.3516,0.3494,0.3321,0.264,0.1593,0.0324,-0.1208,-0.2918,-0.448,-0.6072,-0.7677,-0.829,-0.8624,-0.8617,-0.8882,-0.9102,-0.9223,-0.8065,-0.7577,-0.7892,-1.027,-1.0624,-0.8597,-0.2861,0.0,0.0,0.4144,0.9092,1.4222,1.0998,0.8964,0.8544,-0.1032,-1.0073,-1.8261,-2.6155,-3.5282,-4.5761,-5.3807,-5.9727,-6.3056,-6.5359,-6.5631,-6.3476,-6.293,-5.8829,-5.0555,-4.6101,-4.0383,-3.284,-2.8579,-2.5955,-2.4983,-2.5304,-2.5408,-2.5208,-2.6256,-2.6238,-2.4693,-2.5958,-2.6147,-2.4767,-2.5484,-2.5792,-2.5041,-2.6025,-2.6578,-2.5884,-2.5976,-2.6016,-2.5713,-2.4603,-2.415,-2.4833,-2.4751,-2.5577,-2.8036,-2.8778,-2.9832,-3.1825,-3.1598,-3.0885,-3.0463,-2.9405,-2.8523,-2.8223,-2.7811,-2.723,-2.6502,-2.577,-2.4832,-2.3593,-2.274,-2.2005,-2.15,-2.1636,-2.2162,-2.2643,-2.3679,-2.4721,-2.5556,-2.5715,-2.4876,-2.271,-2.0038,-1.6314,-1.2058,-0.7975,-0.5614,-0.219,-0.1618,0.0294,0.1658,0.2693,0.3935,0.4447,0.4354,0.4354,0.3726,0.2578,0.1175,-0.0328,-0.1839,-0.3286,-0.4489,-0.5415,-0.6001,-0.6003,-0.5631,-0.5936,-0.6048,-0.5807,-0.4142,-0.3392,-0.3737,-0.5984,-0.5963,-0.375,-0.1257,0.0,0.0,0.4585,1.0627,1.7913,1.4006,1.1977,1.1551,0.318,-0.601,-1.5277,-2.1898,-3.2134,-4.6109,-5.764,-6.5051,-6.7959,-6.9385,-6.913,-6.7112,-6.4939,-6.0777,-5.4396,-4.949,-4.3947,-3.7578,-3.2031,-2.7984,-2.5883,-2.6027,-2.5906,-2.5072,-2.5956,-2.586,-2.4339,-2.4779,-2.5015,-2.4339,-2.497,-2.533,-2.4978,-2.5883,-2.6454,-2.5647,-2.5671,-2.568,-2.5468,-2.4563,-2.4315,-2.5234,-2.5185,-2.6007,-2.8416,-2.962,-3.06,-3.1896,-3.1675,-3.1012,-3.0561,-2.9503,-2.8748,-2.8949,-2.8673,-2.7965,-2.7296,-2.6284,-2.5209,-2.3885,-2.3055,-2.2432,-2.2007,-2.23,-2.2776,-2.3258,-2.4153,-2.5059,-2.5603,-2.5547,-2.4407,-2.2021,-1.9016,-1.519,-0.9997,-0.6753,-0.4199,-0.1607,-0.1155,0.0744,0.2589,0.403,0.4553,0.4855,0.5054,0.4842,0.4671,0.4233,0.2411,0.0816,-0.0552,-0.1873,-0.3052,-0.3974,-0.4432,-0.4275,-0.3647,-0.3199,-0.2945,-0.2843,-0.2021,-0.1202,-0.0616,-0.0975,-0.118,-0.0705,-0.0333,0.0,0.0,0.3928,1.0927,1.9343,1.6221,1.4422,1.5429,1.0654,0.2895,-0.7795,-1.8727,-3.0879,-4.4304,-5.7749,-6.6667,-7.0572,-7.3782,-7.4101,-7.1334,-6.888,-6.4968,-5.8983,-5.2715,-4.6874,-4.1558,-3.5194,-2.9922,-2.6128,-2.5445,-2.5224,-2.4953,-2.4639,-2.4339,-2.3696,-2.3477,-2.3455,-2.3486,-2.3412,-2.3864,-2.4726,-2.4774,-2.4913,-2.531,-2.5093,-2.4839,-2.4649,-2.4014,-2.4333,-2.6185,-2.6165,-2.7112,-2.9512,-3.0597,-3.1334,-3.2395,-3.2201,-3.1784,-3.1251,-2.9966,-2.9231,-2.997,-2.9869,-2.8725,-2.7363,-2.5879,-2.514,-2.441,-2.3315,-2.2811,-2.2748,-2.2861,-2.3212,-2.3872,-2.4632,-2.5406,-2.573,-2.5379,-2.3973,-2.1547,-1.82,-1.4037,-0.8722,-0.6163,-0.4795,-0.1784,-0.1284,0.0544,0.2424,0.404,0.4506,0.4934,0.5344,0.51,0.5104,0.513,0.3779,0.2238,0.0636,-0.0526,-0.146,-0.2151,-0.2506,-0.2325,-0.1709,-0.1365,-0.1048,-0.0676,-0.0424,0.0004,0.0449,0.0598,0.0626,0.029,-0.1141,-0.2296,-0.2168,0.2565,0.9396,1.6606,1.6253,1.7062,1.956,1.5612,0.6852,-0.58,-1.1416,-2.2503,-4.0459,-5.8017,-6.9015,-7.2405,-7.3782,-7.376,-7.2674,-7.0208,-6.6679,-6.2156,-5.6575,-5.0856,-4.4873,-3.5748,-2.9264,-2.6435,-2.5592,-2.4968,-2.4624,-2.4228,-2.3723,-2.3189,-2.2822,-2.2617,-2.2546,-2.289,-2.35,-2.4255,-2.4282,-2.4457,-2.4805,-2.4521,-2.4266,-2.4204,-2.3832,-2.4276,-2.6049,-2.6944,-2.82,-3.059,-3.2072,-3.2673,-3.2759,-3.2441,-3.2162,-3.1538,-3.0661,-3.0306,-3.0421,-3.0726,-3.0254,-2.8446,-2.7269,-2.6199,-2.5048,-2.4357,-2.3974,-2.3251,-2.3612,-2.4043,-2.4513,-2.5108,-2.5686,-2.6241,-2.5179,-2.3752,-2.1075,-1.6797,-1.2237,-0.8353,-0.717,-0.6152,-0.2296,-0.1345,0.0514,0.2329,0.3821,0.4208,0.474,0.5252,0.5128,0.532,0.5594,0.4839,0.3676,0.2196,0.0885,0.0,-0.0489,-0.0784,-0.0658,-0.0162,0.0072,0.0448,0.0909,0.0942,0.1046,0.1263,0.1639,0.1566,0.0798,-0.2386,-0.4883,-0.544,0.0069,0.6605,1.2448,1.5079,1.7846,2.049,1.8654,0.9805,-0.4618,-0.9253,-1.9119,-3.6954,-5.6314,-6.85,-7.222,-7.2491,-7.2518,-7.2628,-7.0191,-6.7349,-6.3982,-5.9039,-5.2919,-4.5216,-3.5718,-2.9016,-2.6562,-2.5542,-2.4753,-2.411,-2.3783,-2.3325,-2.2613,-2.2248,-2.2065,-2.1944,-2.2495,-2.3056,-2.3621,-2.3894,-2.4125,-2.4346,-2.4128,-2.4036,-2.394,-2.404,-2.49,-2.6182,-2.7631,-2.9435,-3.1784,-3.339,-3.412,-3.3849,-3.3334,-3.3026,-3.2514,-3.1989,-3.1081,-3.1284,-3.201,-3.1434,-2.9611,-2.8486,-2.7348,-2.6358,-2.5654,-2.4753,-2.3989,-2.4481,-2.4895,-2.5321,-2.5632,-2.5966,-2.6495,-2.5513,-2.3502,-2.0384,-1.6199,-1.18,-0.9356,-0.8442,-0.7459,-0.3118,-0.1556,0.0973,0.2513,0.3462,0.3681,0.4202,0.4802,0.489,0.5203,0.5565,0.5377,0.4931,0.4169,0.2384,0.125,0.0827,0.0539,0.0544,0.0758,0.1124,0.1557,0.2008,0.2022,0.2135,0.2304,0.2928,0.2679,0.1281,-0.3053,-0.7522,-1.057,-0.4003,0.2737,0.8936,1.2804,1.5648,1.7392,1.9107,1.2324,-0.445,-1.5283,-2.4715,-3.4566,-5.1642,-6.3498,-6.8008,-7.0531,-7.1197,-7.0656,-6.8903,-6.6868,-6.4132,-5.9134,-5.1519,-4.1817,-3.5078,-2.9803,-2.615,-2.5011,-2.4331,-2.3342,-2.3168,-2.2811,-2.1618,-2.1586,-2.1685,-2.1853,-2.185,-2.2229,-2.2897,-2.3254,-2.3491,-2.3903,-2.4118,-2.4074,-2.3902,-2.5253,-2.6181,-2.6853,-2.8658,-3.0899,-3.3241,-3.4469,-3.5151,-3.5363,-3.5055,-3.4682,-3.5014,-3.304,-3.2317,-3.3101,-3.3152,-3.2118,-3.0434,-2.9317,-2.8646,-2.7728,-2.6623,-2.5654,-2.5627,-2.562,-2.5883,-2.6209,-2.675,-2.7016,-2.701,-2.5673,-2.3253,-2.0081,-1.6131,-1.244,-1.0271,-0.8896,-0.7941,-0.34,-0.0775,0.086,0.1951,0.2585,0.2819,0.3299,0.3947,0.398,0.4566,0.5274,0.5106,0.5188,0.5479,0.364,0.2443,0.1775,0.1521,0.1349,0.1358,0.1734,0.2104,0.246,0.2533,0.2687,0.2928,0.3247,0.2961,0.1789,-0.1803,-0.5166,-0.7423,-0.5346,-0.1104,0.3732,0.8235,1.1552,1.3422,1.3508,0.6577,-0.6515,-1.9881,-2.862,-3.2138,-4.778,-5.8876,-6.401,-6.5726,-6.6812,-6.7226,-6.6145,-6.4889,-6.2781,-5.5817,-4.8844,-4.2134,-3.4366,-2.8522,-2.5608,-2.3926,-2.2853,-2.2043,-2.1708,-2.1313,-2.0586,-2.052,-2.0603,-2.067,-2.1155,-2.1735,-2.2425,-2.2902,-2.3345,-2.383,-2.3889,-2.413,-2.4689,-2.5644,-2.6663,-2.801,-3.0208,-3.2548,-3.3857,-3.4699,-3.5154,-3.569,-3.5379,-3.5403,-3.5593,-3.4673,-3.4163,-3.4071,-3.421,-3.3868,-3.2494,-3.0639,-2.9323,-2.8688,-2.784,-2.712,-2.6788,-2.6857,-2.7016,-2.7264,-2.7805,-2.7729,-2.7459,-2.5205,-2.283,-1.98,-1.5798,-1.3159,-1.1148,-0.9646,-0.8725,-0.3412,-0.0682,0.0319,0.0997,0.1517,0.1782,0.2277,0.2868,0.2976,0.3711,0.459,0.4421,0.4777,0.5329,0.4194,0.3099,0.2417,0.1999,0.1786,0.1801,0.2104,0.249,0.2885,0.3044,0.3309,0.3564,0.3577,0.324,0.23,-0.0913,-0.4131,-0.6859,-0.6859,-0.5206,-0.156,0.2665,0.6107,0.7758,0.7261,0.1688,-0.9414,-2.2883,-3.0319,-3.2398,-4.3712,-5.3327,-5.8103,-6.012,-6.1847,-6.3045,-6.2736,-6.1695,-5.9761,-5.306,-4.695,-4.2258,-3.4018,-2.7115,-2.3674,-2.2314,-2.157,-2.0838,-2.0547,-2.0151,-1.9436,-1.9516,-1.9618,-1.9846,-2.0563,-2.1494,-2.2207,-2.3064,-2.3773,-2.4142,-2.4181,-2.4583,-2.5592,-2.6691,-2.829,-3.0039,-3.1655,-3.3348,-3.4599,-3.4889,-3.5342,-3.6,-3.5954,-3.5857,-3.615,-3.6338,-3.6072,-3.4921,-3.4989,-3.4718,-3.3787,-3.2289,-3.0763,-2.9956,-2.8836,-2.8209,-2.8045,-2.8093,-2.8243,-2.8379,-2.8394,-2.8207,-2.6938,-2.4769,-2.2176,-1.9482,-1.6508,-1.3675,-1.1917,-1.0297,-0.9239,-0.3206,-0.1368,-0.0673,-0.017,0.0257,0.0618,0.1073,0.1597,0.1959,0.2686,0.3563,0.3429,0.3675,0.4159,0.3512,0.3062,0.2381,0.1824,0.1804,0.2119,0.2196,0.2638,0.3251,0.3487,0.3798,0.4229,0.4168,0.3741,0.2798,-0.0766,-0.4377,-0.7886,-0.9503,-0.8769,-0.6813,-0.3267,-0.0556,0.1383,0.2281,-0.2201,-1.2215,-2.4024,-3.0181,-3.1191,-3.9673,-4.6721,-5.109,-5.3995,-5.684,-5.8871,-5.8984,-5.7569,-5.5418,-5.1067,-4.6765,-4.1481,-3.3792,-2.6079,-2.0011,-2.012,-2.0264,-1.9497,-1.9682,-1.9099,-1.8226,-1.8501,-1.8892,-1.9186,-2.0162,-2.1182,-2.1938,-2.3359,-2.4484,-2.4695,-2.4923,-2.5543,-2.6767,-2.8698,-3.0852,-3.2577,-3.3213,-3.3598,-3.4747,-3.5166,-3.556,-3.6486,-3.6572,-3.6566,-3.7005,-3.7292,-3.7104,-3.6195,-3.5487,-3.4938,-3.4551,-3.4018,-3.2644,-3.1322,-2.9988,-2.9108,-2.925,-2.9388,-2.9717,-2.9875,-2.9729,-2.9522,-2.7898,-2.5638,-2.2963,-2.0176,-1.7145,-1.427,-1.2393,-1.0733,-0.9349,-0.3666,-0.2364,-0.1805,-0.1289,-0.0891,-0.0489,0.0,0.0538,0.0882,0.1605,0.2309,0.2234,0.185,0.1505,0.1511,0.1458,0.1074,0.0419,0.0674,0.1685,0.1853,0.2142,0.2806,0.3254,0.3487,0.3636,0.3977,0.3465,0.1921,-0.0098,-0.3283,-0.7368,-1.0063,-1.0587,-0.9673,-0.7756,-0.5872,-0.4432,-0.5243,-0.9045,-1.5224,-2.3016,-2.826,-3.1175,-3.7607,-4.2996,-4.6341,-5.016,-5.3419,-5.5907,-5.6446,-5.5505,-5.2555,-4.872,-4.4808,-4.044,-3.094,-2.2518,-1.7143,-1.6777,-1.7244,-1.668,-1.6509,-1.6285,-1.603,-1.6727,-1.7294,-1.7672,-1.8792,-2.0061,-2.1535,-2.2769,-2.3878,-2.4604,-2.526,-2.633,-2.821,-3.0564,-3.2861,-3.4383,-3.4752,-3.5016,-3.5337,-3.5363,-3.563,-3.6577,-3.6321,-3.6194,-3.705,-3.7255,-3.6856,-3.5941,-3.5396,-3.5129,-3.4952,-3.4578,-3.3582,-3.2478,-3.1292,-3.0354,-3.0481,-3.0462,-3.0826,-3.1206,-3.109,-3.0178,-2.8533,-2.6445,-2.385,-2.0836,-1.7797,-1.5222,-1.2841,-1.1147,-0.9818,-0.4094,-0.2834,-0.2408,-0.1989,-0.1598,-0.1348,-0.0955,-0.0424,-0.0166,0.0432,0.1,0.0835,-0.0135,-0.1028,-0.022,-0.0074,-0.0927,-0.2777,-0.2672,-0.0753,0.0301,0.083,0.1583,0.2488,0.314,0.3357,0.3279,0.2541,0.1203,-0.0527,-0.3493,-0.7564,-0.9953,-1.1274,-1.1576,-1.1141,-1.0262,-0.9836,-1.1349,-1.4207,-1.8446,-2.3578,-2.7806,-3.1174,-3.6693,-4.0968,-4.3814,-4.7157,-5.0385,-5.3223,-5.5056,-5.4283,-5.1098,-4.6795,-4.2828,-3.8077,-2.9296,-2.0093,-1.4419,-1.4368,-1.4882,-1.4669,-1.4479,-1.4405,-1.4578,-1.534,-1.5867,-1.6271,-1.7955,-1.9556,-2.0788,-2.2512,-2.3748,-2.4775,-2.5547,-2.7435,-3.0314,-3.2476,-3.3951,-3.4927,-3.5277,-3.546,-3.5504,-3.5508,-3.5622,-3.6264,-3.6087,-3.5858,-3.6707,-3.6654,-3.6208,-3.59,-3.5794,-3.5613,-3.5481,-3.5019,-3.4443,-3.348,-3.256,-3.1917,-3.1646,-3.131,-3.134,-3.221,-3.2404,-3.0878,-2.9293,-2.7365,-2.4942,-2.1768,-1.8732,-1.656,-1.4332,-1.1917,-1.0462,-0.4394,-0.2803,-0.2654,-0.2383,-0.2018,-0.2124,-0.1795,-0.1256,-0.1135,-0.0748,-0.0274,-0.0622,-0.2065,-0.3165,-0.1628,-0.1569,-0.3676,-0.6629,-0.7068,-0.5155,-0.3445,-0.2036,-0.0679,0.0874,0.2155,0.3046,0.2118,0.1204,0.0313,-0.1748,-0.4627,-0.7624,-0.9259,-1.0899,-1.1884,-1.3062,-1.3413,-1.3668,-1.5332,-1.7748,-2.0976,-2.5502,-2.9037,-3.0887,-3.6275,-4.058,-4.3051,-4.5536,-4.8172,-5.1547,-5.407,-5.3445,-4.9704,-4.5014,-4.0526,-3.6423,-2.7238,-1.9055,-1.3267,-1.2606,-1.3496,-1.3479,-1.3262,-1.3485,-1.3695,-1.421,-1.483,-1.5277,-1.7432,-1.9153,-2.0003,-2.2078,-2.4081,-2.5442,-2.6557,-2.9238,-3.3913,-3.4303,-3.448,-3.5012,-3.5084,-3.5116,-3.5545,-3.5599,-3.5757,-3.61,-3.6241,-3.6186,-3.6284,-3.6175,-3.604,-3.5959,-3.6019,-3.6019,-3.589,-3.5493,-3.4941,-3.4409,-3.3666,-3.3419,-3.3123,-3.2723,-3.2559,-3.3272,-3.2997,-3.153,-2.9924,-2.8015,-2.5815,-2.2928,-2.0337,-1.8155,-1.5655,-1.3088,-1.1163,-0.4118,-0.3291,-0.3147,-0.2917,-0.2659,-0.267,-0.2348,-0.1932,-0.1956,-0.1518,-0.1143,-0.2001,-0.3798,-0.5687,-0.3801,-0.404,-0.655,-0.897,-0.9822,-0.9181,-0.8894,-0.6311,-0.3493,-0.1425,-0.0096,0.068,0.0506,0.0,-0.0648,-0.2459,-0.4331,-0.5829,-0.7639,-0.9435,-1.1185,-1.2832,-1.4367,-1.5455,-1.7566,-1.9832,-2.2701,-2.6508,-3.0195,-3.3456,-3.6608,-3.9939,-4.3172,-4.6405,-4.8748,-5.0391,-5.1726,-5.0283,-4.5953,-4.131,-3.6422,-3.0612,-2.3728,-1.713,-1.3034,-1.1559,-1.1444,-1.1266,-1.1282,-1.1388,-1.2294,-1.2942,-1.3782,-1.4803,-1.6583,-1.805,-1.9293,-2.1586,-2.4402,-2.7817,-2.8627,-3.0404,-3.3424,-3.4482,-3.4799,-3.5357,-3.5645,-3.5828,-3.5892,-3.5813,-3.5744,-3.6055,-3.5934,-3.5657,-3.5872,-3.5879,-3.5766,-3.6088,-3.6254,-3.6309,-3.6268,-3.5838,-3.5395,-3.511,-3.4802,-3.4841,-3.4782,-3.471,-3.4726,-3.5105,-3.3332,-3.1816,-3.0341,-2.8698,-2.6253,-2.3978,-2.1242,-1.8745,-1.6367,-1.3908,-1.2068,-0.3912,-0.3286,-0.2983,-0.2735,-0.2666,-0.269,-0.2543,-0.235,-0.2452,-0.2165,-0.1908,-0.3036,-0.5307,-0.7651,-0.6599,-0.7218,-0.9444,-1.1946,-1.3025,-1.3019,-1.285,-0.9851,-0.5922,-0.3598,-0.2595,-0.1596,-0.1249,-0.1387,-0.1844,-0.291,-0.3731,-0.4372,-0.5316,-0.6904,-0.9065,-1.1411,-1.3456,-1.5431,-1.8109,-2.0757,-2.3268,-2.6866,-3.0369,-3.3636,-3.62,-3.9158,-4.2823,-4.5348,-4.7405,-4.8955,-4.9519,-4.7675,-4.2879,-3.8231,-3.2945,-2.6811,-2.0953,-1.6087,-1.2512,-1.0847,-1.0276,-0.9994,-0.9837,-1.0347,-1.1294,-1.2154,-1.3231,-1.4573,-1.6159,-1.7731,-1.9468,-2.1948,-2.5065,-2.7937,-2.9475,-3.1215,-3.4051,-3.4396,-3.5014,-3.5745,-3.6112,-3.6114,-3.6257,-3.5961,-3.587,-3.5969,-3.5873,-3.5792,-3.5827,-3.5667,-3.5748,-3.62,-3.6622,-3.6826,-3.7074,-3.68,-3.6869,-3.6452,-3.6137,-3.6159,-3.5728,-3.5829,-3.5399,-3.4891,-3.3495,-3.2149,-3.0852,-2.9326,-2.7295,-2.4844,-2.1947,-1.9419,-1.717,-1.4583,-1.2797,-0.3557,-0.2835,-0.2398,-0.2166,-0.2186,-0.238,-0.2507,-0.25,-0.2859,-0.2757,-0.2774,-0.4054,-0.6485,-0.9506,-0.9225,-1.0433,-1.2234,-1.5386,-1.6796,-1.6817,-1.5971,-1.311,-0.8947,-0.639,-0.5006,-0.3859,-0.3244,-0.2974,-0.3012,-0.3088,-0.2994,-0.3076,-0.2941,-0.415,-0.6611,-0.8989,-1.1586,-1.4359,-1.7285,-2.0178,-2.2808,-2.6172,-2.955,-3.2809,-3.5968,-3.8595,-4.1362,-4.3199,-4.4678,-4.7395,-4.7426,-4.4742,-4.0291,-3.5728,-3.0587,-2.4991,-2.0124,-1.5826,-1.2213,-1.0928,-1.0072,-0.9803,-0.9656,-0.995,-1.1106,-1.2253,-1.3453,-1.5073,-1.651,-1.856,-2.0864,-2.3515,-2.5916,-2.8117,-2.9214,-3.1286,-3.3859,-3.4283,-3.4548,-3.6389,-3.6114,-3.6024,-3.627,-3.6334,-3.6209,-3.6319,-3.6076,-3.5951,-3.5856,-3.5675,-3.5953,-3.6443,-3.6901,-3.7417,-3.7701,-3.7954,-3.8117,-3.812,-3.7681,-3.7298,-3.6214,-3.584,-3.5267,-3.46,-3.4097,-3.3006,-3.1564,-2.9881,-2.805,-2.5484,-2.2505,-2.0329,-1.8207,-1.5358,-1.3127,-0.1822,-0.1236,-0.1391,-0.1407,-0.1517,-0.2118,-0.2542,-0.2673,-0.3239,-0.35,-0.3994,-0.5382,-0.7546,-1.0038,-1.0978,-1.2271,-1.4154,-1.7911,-2.0342,-2.0726,-1.9442,-1.7835,-1.4506,-1.088,-0.7911,-0.673,-0.5666,-0.499,-0.439,-0.3038,-0.1971,-0.098,-0.1605,-0.2742,-0.4629,-0.6437,-0.8886,-1.2078,-1.5278,-1.8316,-2.1329,-2.4491,-2.7915,-3.1612,-3.5543,-3.8152,-3.9719,-4.144,-4.2404,-4.2502,-4.2607,-4.0995,-3.6869,-3.2918,-2.8386,-2.3662,-1.968,-1.6276,-1.3667,-1.1764,-1.057,-1.0553,-1.052,-1.0769,-1.2294,-1.3233,-1.4654,-1.6363,-1.8021,-2.0364,-2.3391,-2.516,-2.7192,-2.9102,-3.0033,-3.1276,-3.3451,-3.3796,-3.4134,-3.5078,-3.5548,-3.5711,-3.6947,-3.6951,-3.6847,-3.6718,-3.6554,-3.63,-3.6054,-3.5906,-3.6133,-3.6723,-3.7553,-3.8098,-3.8267,-3.8647,-3.9154,-3.9188,-3.881,-3.8121,-3.7001,-3.6087,-3.559,-3.5379,-3.5235,-3.3931,-3.2507,-3.0448,-2.8614,-2.5859,-2.2936,-2.0088,-1.7474,-1.5215,-1.3574,-0.0336,0.0167,0.0,-0.0373,-0.0945,-0.1487,-0.1929,-0.2585,-0.3295,-0.3808,-0.4499,-0.6163,-0.8682,-1.1241,-1.2212,-1.3519,-1.6469,-2.0504,-2.2997,-2.3174,-2.2565,-2.1713,-2.0026,-1.6404,-1.3116,-0.9981,-0.8194,-0.6921,-0.4962,-0.2692,-0.043,0.0949,0.0208,-0.0815,-0.2392,-0.4016,-0.6435,-0.9437,-1.2899,-1.6143,-1.9117,-2.2486,-2.6277,-3.0113,-3.3937,-3.6167,-3.7176,-3.854,-3.9017,-3.8833,-3.8486,-3.7105,-3.3932,-3.0546,-2.6627,-2.2585,-1.9626,-1.7093,-1.49,-1.3232,-1.2117,-1.209,-1.2141,-1.3225,-1.4463,-1.5544,-1.7208,-1.9156,-2.0757,-2.2461,-2.5701,-2.7517,-2.9066,-3.0307,-3.0999,-3.2107,-3.383,-3.3802,-3.3996,-3.5376,-3.6149,-3.6906,-3.7552,-3.8052,-3.8278,-3.8402,-3.8341,-3.8058,-3.703,-3.6815,-3.6569,-3.7062,-3.8134,-3.8722,-3.8861,-3.937,-4.013,-3.9944,-3.9502,-3.8623,-3.7557,-3.6735,-3.5969,-3.5823,-3.5625,-3.5002,-3.3476,-3.1413,-2.8858,-2.5844,-2.2776,-1.9482,-1.6431,-1.3994,-1.2844,0.0841,0.1424,0.125,0.0523,-0.0436,-0.0709,-0.1311,-0.231,-0.3201,-0.393,-0.4757,-0.6914,-0.9497,-1.2112,-1.3141,-1.514,-1.885,-2.2384,-2.4855,-2.555,-2.5793,-2.4959,-2.3568,-2.145,-1.8592,-1.3497,-1.1573,-0.9356,-0.6119,-0.2759,-0.0713,0.1587,0.2365,0.1253,-0.0188,-0.1886,-0.4273,-0.7139,-1.0766,-1.4115,-1.7158,-2.0664,-2.465,-2.8554,-3.1293,-3.3265,-3.4604,-3.5763,-3.63,-3.6053,-3.4995,-3.351,-3.1455,-2.8966,-2.5834,-2.2189,-2.0056,-1.8405,-1.679,-1.5286,-1.4461,-1.4395,-1.5012,-1.6205,-1.771,-1.9339,-2.1095,-2.2951,-2.4712,-2.6286,-2.8116,-3.0076,-3.1255,-3.1915,-3.2193,-3.3234,-3.4441,-3.4184,-3.5116,-3.6537,-3.7203,-3.7866,-3.9082,-3.9934,-4.0006,-4.0103,-4.007,-3.9658,-3.8621,-3.7995,-3.7957,-3.7954,-3.9028,-3.9844,-4.0051,-4.0537,-4.1271,-4.1048,-4.048,-3.9376,-3.8247,-3.7341,-3.66,-3.6168,-3.5793,-3.5422,-3.4163,-3.1666,-2.894,-2.592,-2.1711,-1.7386,-1.4668,-1.2661,-1.1807,0.143,0.184,0.1249,0.0671,0.0145,-0.0496,-0.1311,-0.2248,-0.3205,-0.4395,-0.5854,-0.7581,-0.9795,-1.2123,-1.4115,-1.7398,-2.1303,-2.4629,-2.6664,-2.7785,-2.8222,-2.7905,-2.7105,-2.5527,-2.3424,-2.0896,-1.7262,-1.3244,-0.9353,-0.6084,-0.2606,0.0537,0.3011,0.3069,0.1499,-0.0272,-0.2848,-0.5996,-0.9226,-1.2469,-1.5918,-1.946,-2.2874,-2.6797,-2.894,-3.0764,-3.2506,-3.3898,-3.4934,-3.5333,-3.4148,-3.2347,-3.0479,-2.8508,-2.5909,-2.3139,-2.1278,-1.9976,-1.9153,-1.8047,-1.8017,-1.8649,-1.9337,-2.0439,-2.2208,-2.3983,-2.5782,-2.7952,-3.0325,-3.2331,-3.2875,-3.3867,-3.4123,-3.4211,-3.4266,-3.4694,-3.5113,-3.5705,-3.6215,-3.7441,-3.811,-3.8925,-4.0417,-4.1656,-4.2024,-4.2093,-4.2118,-4.1383,-4.0273,-3.9886,-3.9806,-3.9865,-4.0053,-4.0788,-4.1374,-4.1992,-4.2512,-4.2219,-4.1646,-4.0574,-3.9377,-3.8055,-3.7292,-3.6998,-3.6879,-3.6862,-3.4982,-3.2055,-2.7952,-2.4164,-1.9594,-1.4852,-1.2117,-0.9628,-0.9435,0.202,0.2342,0.1953,0.1269,0.0436,-0.0283,-0.1183,-0.2146,-0.322,-0.4667,-0.6318,-0.8045,-1.0302,-1.273,-1.4192,-1.7934,-2.2636,-2.6148,-2.8104,-2.9536,-3.024,-3.0504,-2.9916,-2.855,-2.7475,-2.57,-2.2756,-1.7792,-1.2459,-0.8957,-0.5208,-0.1148,0.1958,0.3027,0.2549,0.0637,-0.2279,-0.5616,-0.8623,-1.1869,-1.5447,-1.8994,-2.23,-2.4524,-2.6468,-2.8082,-2.9714,-3.1297,-3.2504,-3.3146,-3.2591,-3.1439,-3.0074,-2.8604,-2.6785,-2.4277,-2.2716,-2.2147,-2.2084,-2.1499,-2.171,-2.3298,-2.4043,-2.5497,-2.7219,-2.8987,-3.0671,-3.3015,-3.5479,-3.728,-3.6838,-3.7293,-3.7193,-3.6787,-3.6521,-3.6342,-3.6612,-3.7447,-3.793,-3.8345,-3.9345,-4.0508,-4.2066,-4.3107,-4.3853,-4.4145,-4.4105,-4.3205,-4.2052,-4.1617,-4.146,-4.1354,-4.1362,-4.1716,-4.2268,-4.2631,-4.3053,-4.2921,-4.2506,-4.1499,-4.0283,-3.8842,-3.8279,-3.8049,-3.8049,-3.8055,-3.5156,-3.2075,-2.7271,-2.209,-1.6574,-1.1807,-0.8833,-0.6938,-0.6643,0.1692,0.2095,0.1974,0.1285,0.022,-0.0359,-0.1207,-0.2275,-0.3435,-0.4828,-0.6493,-0.8218,-1.0583,-1.3297,-1.5652,-1.8783,-2.361,-2.6803,-2.9157,-3.0837,-3.2001,-3.2481,-3.1932,-3.1021,-2.9758,-2.8897,-2.6939,-2.2813,-1.6374,-1.2098,-0.7592,-0.3362,-0.0362,0.1837,0.248,0.061,-0.2642,-0.5811,-0.9025,-1.2091,-1.6169,-1.9636,-2.2092,-2.3184,-2.4412,-2.5858,-2.7481,-2.9224,-3.0568,-3.136,-3.1397,-3.0918,-3.0179,-2.9274,-2.7924,-2.6249,-2.4702,-2.4604,-2.4905,-2.5301,-2.5787,-2.7606,-2.8862,-3.0448,-3.2179,-3.3655,-3.5543,-3.8004,-3.9929,-4.088,-4.0063,-4.0004,-3.965,-3.8925,-3.8183,-3.7764,-3.7848,-3.8401,-3.9186,-3.987,-4.081,-4.1733,-4.2887,-4.4439,-4.5172,-4.5297,-4.5252,-4.5341,-4.4145,-4.3093,-4.2791,-4.2632,-4.2617,-4.2774,-4.2965,-4.2912,-4.316,-4.3071,-4.268,-4.1977,-4.0738,-3.9371,-3.9105,-3.8875,-3.8883,-3.8339,-3.5237,-3.1692,-2.6982,-2.124,-1.3988,-0.9369,-0.7488,-0.4864,-0.3323,-0.0684,-0.0,-0.0081,-0.0314,-0.0756,-0.1198,-0.1846,-0.2699,-0.3949,-0.4974,-0.623,-0.809,-1.0343,-1.3194,-1.7537,-2.0823,-2.4013,-2.7112,-2.9884,-3.1761,-3.3507,-3.3939,-3.3453,-3.2813,-3.1384,-3.0237,-2.8611,-2.5078,-1.9582,-1.5189,-1.0596,-0.5673,-0.1944,0.0469,0.1102,-0.0278,-0.2645,-0.6058,-0.9395,-1.3959,-1.9099,-2.123,-2.2427,-2.3196,-2.4018,-2.5083,-2.6517,-2.8194,-2.9663,-3.0736,-3.1264,-3.0911,-3.0158,-2.955,-2.9484,-2.8888,-2.8036,-2.7164,-2.7871,-2.8545,-2.9765,-3.1441,-3.2703,-3.4148,-3.5906,-3.8004,-4.0011,-4.2299,-4.3388,-4.3272,-4.2448,-4.2221,-4.139,-4.0231,-3.9214,-3.8303,-3.8021,-3.9049,-3.9896,-4.0565,-4.122,-4.2146,-4.3162,-4.4923,-4.6364,-4.6419,-4.6473,-4.6378,-4.5815,-4.4334,-4.344,-4.3013,-4.2399,-4.2455,-4.2557,-4.2723,-4.2929,-4.294,-4.2704,-4.2279,-4.1359,-4.0358,-3.9856,-3.9675,-3.9588,-3.831,-3.53,-3.1394,-2.6699,-2.0891,-1.4349,-1.0148,-0.7027,-0.4172,-0.1546,-0.3898,-0.1794,-0.1673,-0.1696,-0.1858,-0.221,-0.2559,-0.3081,-0.4088,-0.5398,-0.6834,-0.8446,-1.094,-1.4346,-1.838,-2.152,-2.4307,-2.7348,-3.0466,-3.2642,-3.4341,-3.4969,-3.4583,-3.3482,-3.2111,-3.0232,-2.8339,-2.546,-2.1204,-1.7082,-1.2499,-0.7549,-0.3808,-0.1434,-0.0711,-0.1686,-0.4083,-0.7533,-1.1681,-1.6426,-2.0434,-2.2731,-2.3624,-2.3904,-2.4346,-2.521,-2.6282,-2.7392,-2.8942,-3.0067,-3.0715,-3.0895,-3.1002,-3.1091,-3.1261,-3.1544,-3.1801,-3.155,-3.1288,-3.1888,-3.3186,-3.4704,-3.596,-3.7304,-3.9413,-4.1145,-4.2711,-4.3957,-4.4816,-4.4692,-4.3821,-4.3174,-4.2068,-4.0946,-3.9787,-3.9036,-3.8542,-3.9509,-4.0414,-4.0989,-4.1611,-4.2331,-4.3044,-4.4153,-4.5337,-4.5717,-4.5856,-4.6048,-4.5267,-4.3951,-4.3259,-4.2989,-4.2199,-4.1588,-4.1674,-4.1735,-4.2207,-4.2381,-4.2624,-4.2228,-4.2043,-4.1398,-4.0593,-3.9613,-3.8894,-3.7236,-3.4943,-3.1743,-2.766,-2.1481,-1.4992,-1.1224,-0.761,-0.5257,-0.3281,-0.6929,-0.3756,-0.3087,-0.2678,-0.2623,-0.3178,-0.3581,-0.3791,-0.4849,-0.6225,-0.7885,-0.9658,-1.2342,-1.5383,-1.847,-2.1415,-2.419,-2.7197,-3.0484,-3.3007,-3.4593,-3.5059,-3.4537,-3.3301,-3.1198,-2.9407,-2.6565,-2.3796,-2.0727,-1.7005,-1.2747,-0.8967,-0.5509,-0.3406,-0.2838,-0.3788,-0.6019,-1.0003,-1.438,-1.8482,-2.1973,-2.4427,-2.5,-2.5152,-2.5219,-2.5652,-2.6422,-2.7354,-2.8729,-2.9622,-3.039,-3.0843,-3.1308,-3.1981,-3.2642,-3.321,-3.3978,-3.4495,-3.4219,-3.4535,-3.5719,-3.6906,-3.8173,-3.9199,-4.1674,-4.3194,-4.4089,-4.4916,-4.5398,-4.5233,-4.4469,-4.344,-4.2336,-4.1157,-4.0085,-3.9452,-3.9087,-3.987,-4.0489,-4.0998,-4.1563,-4.2097,-4.2717,-4.3325,-4.4012,-4.4716,-4.5185,-4.5607,-4.4694,-4.3339,-4.2605,-4.2099,-4.1156,-4.038,-4.0174,-4.049,-4.107,-4.1518,-4.1742,-4.1709,-4.1153,-4.1071,-4.0664,-3.9589,-3.8,-3.6094,-3.3825,-3.1377,-2.8608,-2.2397,-1.6555,-1.1919,-0.8387,-0.6072,-0.4886,-0.9262,-0.5996,-0.4437,-0.35,-0.2921,-0.3935,-0.4791,-0.5414,-0.6634,-0.7785,-0.9256,-1.1596,-1.3799,-1.5852,-1.8371,-2.1112,-2.3967,-2.6655,-2.9782,-3.2412,-3.4089,-3.4564,-3.382,-3.2155,-2.9677,-2.703,-2.4315,-2.1433,-1.8407,-1.5029,-1.2072,-0.9629,-0.657,-0.5054,-0.4963,-0.611,-0.9074,-1.2744,-1.6484,-1.9643,-2.3016,-2.5615,-2.6974,-2.648,-2.6495,-2.6638,-2.6891,-2.7905,-2.8793,-2.9673,-3.0384,-3.0925,-3.1483,-3.2479,-3.3303,-3.4259,-3.5153,-3.5723,-3.5933,-3.596,-3.6632,-3.7641,-3.8727,-4.002,-4.1989,-4.3054,-4.4178,-4.5131,-4.5208,-4.4906,-4.4174,-4.3366,-4.2086,-4.1,-4.0013,-3.9491,-3.9386,-3.9977,-4.0598,-4.1006,-4.1469,-4.2,-4.2211,-4.2695,-4.3453,-4.4143,-4.4143,-4.4528,-4.3731,-4.2568,-4.1586,-4.0767,-3.9752,-3.897,-3.8498,-3.8673,-3.8918,-3.9525,-4.0026,-3.9939,-3.9662,-3.978,-4.0073,-3.7764,-3.5835,-3.4268,-3.2675,-3.0277,-2.724,-2.2889,-1.8203,-1.3781,-0.9707,-0.6896,-0.619,-1.8941,-1.488,-1.2406,-0.8927,-0.5213,-0.6457,-0.7113,-0.7436,-0.8737,-1.0273,-1.1775,-1.3574,-1.5273,-1.6888,-1.8475,-2.0925,-2.3745,-2.6372,-2.9307,-3.1783,-3.3543,-3.4015,-3.3091,-3.1423,-2.9083,-2.5614,-2.2219,-1.9,-1.6166,-1.2983,-1.0672,-0.8563,-0.6855,-0.6349,-0.6613,-0.8801,-1.2183,-1.4485,-1.7099,-1.9665,-2.3423,-2.7394,-2.8965,-2.7674,-2.8086,-2.8431,-2.8767,-2.8873,-2.9452,-3.0096,-3.0674,-3.1039,-3.1594,-3.2708,-3.3773,-3.4659,-3.5471,-3.6009,-3.6421,-3.651,-3.6883,-3.7794,-3.8863,-4.0084,-4.1454,-4.216,-4.3027,-4.3747,-4.4214,-4.3882,-4.2769,-4.2087,-4.1314,-4.0413,-3.9777,-3.9406,-3.9612,-4.0159,-4.0744,-4.1189,-4.1511,-4.1894,-4.192,-4.202,-4.2824,-4.3605,-4.35,-4.3254,-4.2565,-4.1545,-4.05,-3.9375,-3.8348,-3.765,-3.7129,-3.6903,-3.6747,-3.7477,-3.8243,-3.8274,-3.8257,-3.8769,-3.8523,-3.6039,-3.3747,-3.225,-3.0664,-2.8973,-2.6314,-2.3122,-1.9636,-1.5818,-1.1916,-0.7925,-0.7283,-2.9571,-2.3813,-2.062,-1.5241,-0.9208,-0.9482,-0.9981,-1.0509,-1.1905,-1.3369,-1.5119,-1.6063,-1.6924,-1.8077,-1.9385,-2.1134,-2.3643,-2.5977,-2.8733,-3.0951,-3.2582,-3.3157,-3.2356,-3.0735,-2.8153,-2.4581,-2.0964,-1.7697,-1.4689,-1.1534,-0.9576,-0.8109,-0.6954,-0.6885,-0.7968,-1.144,-1.4419,-1.5929,-1.8063,-2.0098,-2.3905,-2.7372,-2.9806,-2.879,-2.9416,-2.987,-2.9944,-2.9826,-3.0011,-3.0492,-3.0912,-3.1142,-3.1935,-3.2962,-3.4023,-3.4761,-3.5274,-3.5648,-3.5725,-3.6114,-3.6463,-3.706,-3.8299,-3.9367,-4.0472,-4.1412,-4.243,-4.3034,-4.3047,-4.2522,-4.1648,-4.1393,-4.0836,-3.9986,-3.9577,-3.9229,-3.968,-4.0159,-4.0817,-4.1407,-4.1659,-4.1894,-4.184,-4.1904,-4.2416,-4.2997,-4.2936,-4.2597,-4.1877,-4.0731,-3.922,-3.8038,-3.6881,-3.6274,-3.5752,-3.5712,-3.5679,-3.5768,-3.649,-3.6763,-3.697,-3.7311,-3.6552,-3.4067,-3.1958,-3.0319,-2.8617,-2.6983,-2.5644,-2.4177,-2.0194,-1.5895,-1.2594,-0.8874,-0.7968,-4.0184,-3.1699,-2.8013,-2.1675,-1.4536,-1.2895,-1.3437,-1.475,-1.6159,-1.7428,-1.8554,-1.9306,-1.9388,-1.9622,-2.0962,-2.23,-2.378,-2.5521,-2.7939,-3.0556,-3.1601,-3.1849,-3.1416,-3.0059,-2.7993,-2.4287,-2.1105,-1.7792,-1.4093,-1.149,-0.9436,-0.8422,-0.7987,-0.7993,-0.8118,-1.2293,-1.5294,-1.6999,-1.9863,-2.215,-2.418,-2.7022,-2.8642,-2.9237,-3.0292,-3.0769,-3.0415,-3.0281,-3.047,-3.0972,-3.095,-3.1315,-3.2263,-3.3525,-3.4341,-3.4467,-3.5062,-3.4957,-3.4328,-3.4908,-3.5262,-3.5856,-3.7141,-3.8873,-4.0191,-4.1168,-4.1793,-4.2176,-4.243,-4.2087,-4.1604,-4.107,-4.0297,-3.9815,-3.9394,-3.95,-3.989,-4.0413,-4.1104,-4.1697,-4.1843,-4.1972,-4.1876,-4.1928,-4.2218,-4.2471,-4.2431,-4.1995,-4.1351,-3.9985,-3.8453,-3.6715,-3.5486,-3.491,-3.4507,-3.4579,-3.4584,-3.4611,-3.4729,-3.5153,-3.5012,-3.4755,-3.3574,-3.1765,-3.0299,-2.8798,-2.6881,-2.5005,-2.4045,-2.2868,-1.925,-1.5373,-1.2307,-1.0367,-0.9756,-4.4972,-3.8099,-3.4897,-3.064,-2.5512,-2.0309,-1.8602,-1.9364,-2.0668,-2.1776,-2.2347,-2.2643,-2.2933,-2.3128,-2.2948,-2.3721,-2.4735,-2.5896,-2.8201,-2.9899,-3.0966,-3.1478,-3.1442,-3.0533,-2.8513,-2.5758,-2.2531,-1.9261,-1.5762,-1.2989,-1.0796,-0.964,-0.9559,-1.0442,-1.1644,-1.4308,-1.6443,-1.8191,-2.0665,-2.2881,-2.4067,-2.68,-2.8565,-2.8541,-2.9964,-3.0521,-3.0417,-3.0348,-3.0765,-3.1252,-3.1185,-3.1916,-3.2721,-3.395,-3.4235,-3.4333,-3.4679,-3.3208,-3.2452,-3.248,-3.3304,-3.4434,-3.6363,-3.8438,-3.9924,-4.0384,-4.0825,-4.1017,-4.1227,-4.0898,-4.0388,-4.0132,-3.9652,-3.9586,-3.9472,-3.9834,-4.0277,-4.0886,-4.1461,-4.1944,-4.2234,-4.2255,-4.2271,-4.2055,-4.2195,-4.2111,-4.2106,-4.1773,-4.115,-3.9544,-3.7886,-3.5663,-3.4201,-3.3562,-3.3272,-3.3486,-3.3736,-3.3862,-3.3761,-3.3745,-3.3343,-3.2682,-3.1565,-3.0264,-2.8792,-2.7281,-2.5755,-2.427,-2.3016,-2.1134,-1.879,-1.6872,-1.4695,-1.3155,-1.2319,-4.705,-4.3178,-4.0615,-3.7543,-3.3459,-2.6167,-2.2994,-2.3351,-2.4626,-2.5581,-2.5939,-2.6136,-2.6205,-2.6125,-2.5762,-2.5524,-2.6233,-2.7307,-2.8663,-3.0202,-3.1558,-3.2276,-3.2259,-3.1653,-3.0247,-2.7797,-2.52,-2.2032,-1.8943,-1.5923,-1.3172,-1.1316,-1.1074,-1.1861,-1.3366,-1.5418,-1.7381,-1.9185,-2.1437,-2.3349,-2.4605,-2.6343,-2.7866,-2.8147,-2.8802,-2.9486,-3.0002,-3.0452,-3.0836,-3.1288,-3.1812,-3.2477,-3.3178,-3.3952,-3.4304,-3.4369,-3.3625,-3.2285,-3.1556,-3.1918,-3.2673,-3.2851,-3.5775,-3.8155,-3.9528,-4.012,-4.0118,-4.0155,-3.9979,-3.9954,-3.9823,-3.9575,-3.9413,-3.9378,-3.95,-3.9859,-4.0639,-4.1216,-4.1602,-4.2083,-4.227,-4.2404,-4.2492,-4.2286,-4.2137,-4.1985,-4.1795,-4.1312,-4.0774,-3.9189,-3.7267,-3.4987,-3.3064,-3.2225,-3.2112,-3.2433,-3.276,-3.3084,-3.2866,-3.253,-3.1871,-3.1214,-2.9976,-2.8856,-2.7683,-2.646,-2.5079,-2.3752,-2.2958,-2.1988,-2.0597,-1.8771,-1.7096,-1.6102,-1.5175,-4.6991,-4.6493,-4.4966,-4.1893,-3.7461,-3.0005,-2.6686,-2.6567,-2.7947,-2.8821,-2.9235,-2.9678,-2.9518,-2.8713,-2.8278,-2.8208,-2.834,-2.9199,-3.0424,-3.1774,-3.2972,-3.3469,-3.3657,-3.3338,-3.2278,-3.0442,-2.8219,-2.5772,-2.2667,-1.8341,-1.4982,-1.2822,-1.2058,-1.291,-1.4416,-1.6008,-1.7884,-1.9814,-2.1855,-2.3511,-2.4767,-2.5839,-2.6985,-2.7433,-2.7844,-2.8657,-2.9375,-3.0099,-3.0797,-3.1354,-3.1774,-3.2578,-3.3493,-3.4588,-3.4617,-3.4163,-3.3205,-3.2165,-3.1514,-3.2084,-3.2205,-3.2489,-3.527,-3.7713,-3.9049,-3.9502,-3.9553,-3.9662,-3.9678,-3.9747,-3.9717,-3.9502,-3.9298,-3.9323,-3.9341,-3.9963,-4.0886,-4.143,-4.1704,-4.1971,-4.205,-4.2149,-4.229,-4.2181,-4.1995,-4.1789,-4.136,-4.0158,-3.9568,-3.8817,-3.6798,-3.4376,-3.2494,-3.0923,-3.0969,-3.1575,-3.1916,-3.2309,-3.1698,-3.1221,-3.0475,-2.9896,-2.9077,-2.8076,-2.6907,-2.5746,-2.4597,-2.3877,-2.3323,-2.2456,-2.2157,-2.0866,-1.9265,-1.9056,-1.8232,-4.6761,-4.6377,-4.5381,-4.3079,-3.951,-3.4382,-3.121,-2.97,-3.0413,-3.1199,-3.216,-3.2269,-3.2151,-3.2248,-3.1032,-3.0949,-3.0967,-3.1227,-3.203,-3.3135,-3.424,-3.4852,-3.519,-3.5218,-3.4485,-3.3351,-3.1544,-2.9063,-2.5116,-2.0677,-1.6952,-1.477,-1.372,-1.4162,-1.4888,-1.6134,-1.805,-2.0051,-2.216,-2.3433,-2.4661,-2.5735,-2.6478,-2.6754,-2.7233,-2.7977,-2.8483,-2.9717,-3.0412,-3.0653,-3.2263,-3.3529,-3.4518,-3.5368,-3.5579,-3.4351,-3.313,-3.1964,-3.1401,-3.1938,-3.2261,-3.2327,-3.4585,-3.6385,-3.7713,-3.8432,-3.8846,-3.9124,-3.9411,-3.9537,-3.9502,-3.9324,-3.9249,-3.9266,-3.9467,-4.0181,-4.1035,-4.1564,-4.1868,-4.1908,-4.198,-4.1894,-4.2035,-4.2044,-4.185,-4.1655,-4.0916,-3.9658,-3.8756,-3.8125,-3.6269,-3.3822,-3.2183,-3.0672,-3.0486,-3.1022,-3.1232,-3.1351,-3.0742,-3.0229,-2.9687,-2.9099,-2.8317,-2.746,-2.6489,-2.5441,-2.4319,-2.3861,-2.3805,-2.4394,-2.4136,-2.2813,-2.1696,-2.1186,-2.0622,-4.5404,-4.5404,-4.4948,-4.2951,-3.9674,-3.6145,-3.3602,-3.237,-3.2474,-3.2982,-3.3617,-3.3994,-3.4292,-3.4263,-3.3373,-3.3082,-3.3539,-3.3335,-3.3794,-3.4673,-3.5506,-3.5792,-3.6313,-3.6352,-3.5516,-3.4757,-3.3515,-3.1373,-2.7493,-2.2797,-1.8753,-1.7118,-1.5876,-1.536,-1.5649,-1.6332,-1.777,-1.976,-2.1639,-2.297,-2.4273,-2.5524,-2.6035,-2.627,-2.682,-2.7606,-2.815,-2.9589,-3.0211,-3.0695,-3.2652,-3.3671,-3.4765,-3.5794,-3.6288,-3.5195,-3.4099,-3.2972,-3.2306,-3.2306,-3.2278,-3.2516,-3.3735,-3.5009,-3.6601,-3.7738,-3.8292,-3.8846,-3.9111,-3.935,-3.9219,-3.912,-3.9201,-3.9282,-3.9812,-4.0418,-4.1067,-4.1694,-4.1837,-4.1823,-4.1798,-4.1728,-4.1763,-4.1771,-4.1666,-4.1394,-4.0596,-3.9234,-3.8589,-3.8151,-3.5904,-3.3161,-3.1855,-3.0582,-3.0573,-3.0389,-3.0558,-3.0551,-2.9954,-2.9403,-2.8938,-2.841,-2.776,-2.7014,-2.6212,-2.5345,-2.4632,-2.456,-2.4616,-2.5112,-2.5223,-2.3988,-2.2887,-2.2447,-2.1825,-4.3415,-4.4058,-4.3879,-4.1889,-3.8724,-3.6006,-3.4757,-3.4626,-3.4242,-3.4118,-3.433,-3.5105,-3.5509,-3.5385,-3.4814,-3.4829,-3.5063,-3.5065,-3.5234,-3.6219,-3.7077,-3.7202,-3.6571,-3.6481,-3.6012,-3.4824,-3.3564,-3.2289,-2.9546,-2.5257,-2.1441,-1.9714,-1.7554,-1.6608,-1.6644,-1.6272,-1.7446,-1.9291,-2.0673,-2.1883,-2.3592,-2.4976,-2.5983,-2.5918,-2.7142,-2.859,-2.9304,-3.0137,-3.0934,-3.1564,-3.2509,-3.3422,-3.4942,-3.5901,-3.6355,-3.5984,-3.4763,-3.4015,-3.3172,-3.2961,-3.2751,-3.2782,-3.3001,-3.382,-3.5214,-3.6545,-3.719,-3.7874,-3.8153,-3.8711,-3.8802,-3.915,-3.9363,-3.9653,-4.0156,-4.0601,-4.1094,-4.1599,-4.1823,-4.1735,-4.1655,-4.162,-4.1639,-4.1648,-4.1525,-4.1148,-4.0122,-3.8734,-3.7694,-3.7422,-3.5361,-3.2502,-3.116,-3.0129,-3.0075,-2.9935,-2.9949,-2.9721,-2.9249,-2.8942,-2.863,-2.799,-2.7232,-2.6728,-2.6271,-2.5804,-2.5274,-2.5112,-2.4986,-2.5282,-2.5208,-2.4691,-2.41,-2.3565,-2.3162,-4.2955,-4.3309,-4.1928,-4.0274,-3.8724,-3.7061,-3.6247,-3.6118,-3.5572,-3.5217,-3.5194,-3.552,-3.5932,-3.6096,-3.5594,-3.57,-3.6365,-3.6127,-3.6537,-3.7005,-3.7864,-3.7597,-3.704,-3.6895,-3.6393,-3.5429,-3.4157,-3.2499,-2.9795,-2.6644,-2.3898,-2.1799,-1.9666,-1.8465,-1.7784,-1.7143,-1.7545,-1.9168,-1.9932,-2.1413,-2.3318,-2.4387,-2.5194,-2.5687,-2.6886,-2.9065,-2.993,-3.0469,-3.1028,-3.166,-3.3199,-3.4714,-3.6306,-3.6323,-3.6292,-3.5972,-3.5009,-3.4406,-3.4018,-3.3383,-3.2889,-3.2822,-3.2894,-3.3069,-3.373,-3.4862,-3.583,-3.6589,-3.7301,-3.7937,-3.8585,-3.9098,-3.9621,-4.0045,-4.0419,-4.0777,-4.1153,-4.1421,-4.1726,-4.1635,-4.1555,-4.153,-4.155,-4.1429,-4.1341,-4.0531,-3.9335,-3.7958,-3.619,-3.5327,-3.412,-3.1713,-3.0333,-2.9505,-2.9526,-2.9589,-2.9631,-2.9357,-2.8915,-2.8626,-2.8322,-2.7836,-2.7252,-2.6877,-2.6416,-2.5862,-2.5461,-2.5318,-2.5301,-2.5505,-2.5337,-2.4891,-2.4797,-2.4408,-2.421,-4.2049,-4.2592,-4.0924,-3.9548,-3.8457,-3.733,-3.6696,-3.6437,-3.601,-3.5667,-3.5577,-3.5844,-3.6191,-3.6451,-3.6082,-3.6098,-3.6794,-3.6629,-3.6852,-3.7395,-3.7685,-3.75,-3.7257,-3.6948,-3.6131,-3.5214,-3.3672,-3.1815,-3.0035,-2.7825,-2.543,-2.388,-2.1972,-2.034,-1.9383,-1.8523,-1.8206,-1.9271,-1.9787,-2.1332,-2.3317,-2.4109,-2.4472,-2.502,-2.7112,-2.9354,-3.047,-3.0987,-3.1477,-3.2286,-3.3653,-3.4718,-3.5854,-3.6225,-3.6453,-3.6249,-3.5614,-3.4657,-3.4407,-3.3879,-3.2967,-3.3037,-3.3037,-3.3319,-3.2896,-3.4005,-3.5343,-3.6128,-3.6801,-3.7402,-3.8558,-3.9249,-3.9982,-4.0492,-4.0887,-4.1196,-4.1339,-4.1446,-4.1576,-4.1565,-4.145,-4.1415,-4.1331,-4.1078,-4.0813,-3.9917,-3.8722,-3.6854,-3.5153,-3.3671,-3.2337,-3.0872,-2.9417,-2.9213,-2.9556,-2.9487,-2.9315,-2.9007,-2.8595,-2.8323,-2.8042,-2.773,-2.7335,-2.6778,-2.6249,-2.5764,-2.5446,-2.5264,-2.5448,-2.5631,-2.5442,-2.5103,-2.5066,-2.4991,-2.4683,-4.0906,-4.1864,-4.0459,-3.9195,-3.8179,-3.7166,-3.6568,-3.6268,-3.5966,-3.5756,-3.5756,-3.6105,-3.6207,-3.6167,-3.6574,-3.662,-3.6631,-3.6636,-3.6974,-3.7241,-3.7502,-3.7076,-3.6597,-3.6141,-3.5337,-3.4266,-3.282,-3.2035,-3.109,-2.8985,-2.7288,-2.6001,-2.4312,-2.2489,-2.1614,-2.0582,-1.9866,-2.0484,-2.1186,-2.2236,-2.3247,-2.4074,-2.4445,-2.579,-2.7667,-2.9933,-3.0825,-3.1482,-3.2008,-3.3025,-3.4014,-3.4939,-3.5594,-3.6104,-3.6486,-3.6396,-3.5913,-3.5273,-3.4917,-3.4536,-3.3875,-3.3563,-3.3598,-3.3459,-3.3178,-3.3739,-3.5044,-3.5824,-3.6463,-3.7178,-3.8328,-3.9409,-4.0165,-4.0847,-4.1124,-4.1471,-4.1527,-4.1534,-4.1515,-4.1461,-4.1321,-4.1286,-4.099,-4.0691,-3.9834,-3.9009,-3.7532,-3.5723,-3.3977,-3.2734,-3.143,-2.988,-2.8299,-2.8473,-2.9057,-2.9204,-2.8925,-2.8752,-2.8407,-2.8105,-2.782,-2.7556,-2.7163,-2.6417,-2.5935,-2.5539,-2.5245,-2.4998,-2.529,-2.5564,-2.5319,-2.4998,-2.4923,-2.4832,-2.4741,-4.0192,-4.0687,-3.9631,-3.8664,-3.7812,-3.6839,-3.6402,-3.636,-3.5975,-3.5932,-3.6062,-3.6045,-3.5766,-3.4866,-3.6076,-3.6394,-3.6116,-3.6435,-3.6771,-3.7083,-3.7137,-3.6542,-3.6034,-3.5688,-3.4382,-3.327,-3.2329,-3.1765,-3.1266,-3.0127,-2.9017,-2.7722,-2.6151,-2.4479,-2.3079,-2.2044,-2.1345,-2.186,-2.2264,-2.3142,-2.5176,-2.5938,-2.6334,-2.7425,-2.8629,-2.974,-3.0582,-3.1374,-3.2177,-3.3253,-3.4438,-3.5256,-3.5702,-3.5976,-3.6291,-3.6429,-3.5913,-3.5958,-3.5645,-3.52,-3.4719,-3.547,-3.5401,-3.4765,-3.4658,-3.4727,-3.5684,-3.6113,-3.6682,-3.7076,-3.808,-3.919,-4.0009,-4.0661,-4.1088,-4.1502,-4.1795,-4.1682,-4.1657,-4.1358,-4.1069,-4.0832,-4.0461,-3.9735,-3.839,-3.735,-3.5829,-3.4038,-3.2619,-3.157,-3.0528,-2.9035,-2.7466,-2.7076,-2.7359,-2.8347,-2.8388,-2.827,-2.8229,-2.8029,-2.7812,-2.7511,-2.698,-2.5962,-2.5634,-2.5356,-2.5089,-2.4741,-2.4864,-2.5045,-2.4986,-2.4813,-2.4776,-2.4745,-2.4692]}]]